[[{"header":{"parameterUnit":"m.s-1","parameterCategory":1,"la1":31.0,"la2":29.5877,"lo1":-88.7671,"lo2":-86.6584,"dy":0.0162,"dx":0.0185,"nx":115,"ny":88,"refTime":"2024-08-28T12:00:00:Z","depth":0,"parameterNumber":2,"parameterNumberName":"U-component_of_WINDS"},"data":[0.0,0.0,0.0,0.0,0.0,0.0,0.0,0.0,0.0,0.0,0.0,0.0,0.0,0.0,0.0,0.0,0.0,0.0,0.0,0.0,0.0,0.0,0.0,0.0,0.0,0.0,0.0,0.0,0.0,0.0,0.0,0.0,0.0,0.0,0.0,0.0,0.0,0.0,0.0,0.0,0.0,0.0,0.0,0.0,0.0,0.0,0.0,0.0,0.0,0.0,0.0,0.0,0.0,0.0,0.0,0.0,0.0,0.0,0.0,0.0,0.0,0.0,0.0,0.0,0.0,0.0,0.0,0.0,0.0,0.0,0.0,0.0,0.0,0.0,0.0,0.0,0.0,0.0,0.0,0.0,0.0,0.0,0.0,0.0,0.0,0.0,0.0,0.0,0.0,0.0,0.0,0.0,0.0,0.0,0.0,0.0,0.0,0.0,0.0,0.0,0.0,0.0,0.0,0.0,0.0,0.0,0.0,0.0,0.0,0.0,0.0,0.0,0.0,0.0,0.0,0.0,0.0,0.0,0.0,0.0,0.0,0.0,0.0,0.0,0.0,0.0,0.0,0.0,0.0,0.0,0.0,0.0,0.0,0.0,0.0,0.0,0.0,0.0,0.0,0.0,0.0,0.0,0.0,0.0,0.0,0.0,0.0,0.0,0.0,0.0,0.0,0.0,0.0,0.0,0.0,0.0,0.0,0.0,0.0,0.0,0.0,0.0,0.0,0.0,0.0,0.0,0.0,0.0,0.0,0.0,0.0,0.0,0.0,0.0,0.0,0.0,0.0,0.0,0.0,0.0,0.0,0.0,0.0,0.0,0.0,0.0,0.0,0.0,0.0,0.0,0.0,0.0,0.0,0.0,0.0,0.0,0.0,0.0,0.0,0.0,0.0,0.0,0.0,0.0,0.0,0.0,0.0,0.0,0.0,0.0,0.0,0.0,0.0,0.0,0.0,0.0,0.0,0.0,0.0,0.0,0.0,0.0,0.0,0.0,0.0,0.0,0.0,0.0,0.0,0.0,0.0,0.0,0.0,0.0,0.0,0.0,0.0,0.0,0.0,0.0,0.0,0.0,0.0,0.0,0.0,0.0,0.0,0.0,0.0,0.0,0.0,0.0,0.0,0.0,0.0,0.0,0.0,0.0,0.0,0.0,0.0,0.0,0.0,0.0,0.0,0.0,0.0,0.0,0.0,0.0,0.0,0.0,0.0,0.0,0.0,0.0,0.0,0.0,0.0,0.0,0.0,0.0,0.0,0.0,0.0,0.0,0.0,0.0,0.0,0.0,0.0,0.0,0.0,0.0,0.0,0.0,0.0,0.0,0.0,0.0,0.0,0.0,0.0,0.0,0.0,0.0,0.0,0.0,0.0,0.0,0.0,0.0,0.0,0.0,0.0,0.0,0.0,0.0,0.0,0.0,0.0,0.0,0.0,0.0,0.0,0.0,0.0,0.0,0.0,0.0,0.0,0.0,0.0,0.0,0.0,0.0,0.0,0.0,0.0,0.0,0.0,0.0,0.0,0.0,0.0,0.0,0.0,0.0,0.0,0.0,0.0,0.0,0.0,0.0,0.0,0.0,0.0,0.0,0.0,0.0,0.0,0.0,0.0,0.0,0.0,0.0,0.0,0.0,0.0,0.0,0.0,0.0,0.0,0.0,0.0,0.0,0.0,0.0,0.0,0.0,0.0,0.0,0.0,0.0,0.0,0.0,0.0,0.0,0.0,0.0,0.0,0.0,0.0,0.0,0.0,0.0,0.0,0.0,0.0,0.0,0.0,0.0,0.0,0.0,0.0,0.0,0.0,0.0,0.0,0.0,0.0,0.0,0.0,0.0,0.0,0.0,0.0,0.0,0.0,0.0,0.0,0.0,0.0,0.0,0.0,0.0,0.0,0.0,0.0,0.0,0.0,0.0,0.0,0.0,0.0,0.0,0.0,0.0,0.0,0.0,0.0,0.0,0.0,0.0,0.0,0.0,0.0,0.0,0.0,0.0,0.0,0.0,0.0,0.0,0.0,0.0,0.0,0.0,0.0,0.0,0.0,0.0,0.0,0.0,0.0,0.0,0.0,0.0,0.0,0.0,0.0,0.0,0.0,0.0,0.0,0.0,0.0,0.0,0.0,0.0,0.0,0.0,0.0,0.0,0.0,0.0,0.0,0.0,0.0,0.0,0.0,0.0,0.0,0.0,0.0,0.0,0.0,0.0,0.0,0.0,0.0,0.0,0.0,0.0,0.0,0.0,0.0,0.0,0.0,0.0,0.0,0.0,0.0,0.0,0.0,0.0,0.0,0.0,0.0,0.0,0.0,0.0,0.0,0.0,0.0,0.0,0.0,0.0,0.0,0.0,0.0,0.0,0.0,0.0,0.0,0.0,0.0,0.0,0.0,0.0,0.0,0.0,0.0,0.0,0.0,0.0,0.0,0.0,0.0,0.0,0.0,0.0,0.0,0.0,0.0,0.0,0.0,0.0,0.0,0.0,0.0,0.0,0.0,0.0,0.0,0.0,0.0,0.0,0.0,0.0,0.0,0.0,0.0,0.0,0.0,0.0,0.0,0.0,0.0,0.0,0.0,0.0,0.0,0.0,0.0,0.0,0.0,0.0,0.0,0.0,0.0,0.0,0.0,0.0,0.0,0.0,0.0,0.0,0.0,0.0,0.0,0.0,0.0,0.0,0.0,0.0,0.0,0.0,0.0,0.0,0.0,0.0,0.0,0.0,0.0,0.0,0.0,0.0,0.0,0.0,0.0,0.0,0.0,0.0,0.0,0.0,0.0,0.0,0.0,0.0,0.0,0.0,0.0,0.0,0.0,0.0,0.0,0.0,0.0,0.0,0.0,0.0,0.0,0.0,0.0,0.0,0.0,0.0,0.0,0.0,0.0,0.0,0.0,0.0,0.0,0.0,0.0,0.0,0.0,0.0,0.0,0.0,0.0,0.0,0.0,0.0,0.0,0.0,0.0,0.0,0.0,0.0,0.0,0.0,0.0,0.0,0.0,0.0,0.0,0.0,0.0,0.0,0.0,0.0,0.0,0.0,0.0,0.0,0.0,0.0,0.0,0.0,0.0,0.0,0.0,0.0,0.0,0.0,0.0,0.0,0.0,0.0,0.0,0.0,0.0,0.0,0.0,0.0,0.0,0.0,0.0,0.0,0.0,0.0,0.0,0.0,0.0,0.0,0.0,0.0,0.0,0.0,0.0,0.0,0.0,0.0,0.0,0.0,0.0,0.0,0.0,0.0,0.0,0.0,0.0,0.0,0.0,0.0,0.0,0.0,0.0,0.0,0.0,0.0,0.0,0.0,0.0,0.0,0.0,0.0,0.0,0.0,0.0,0.0,0.0,0.0,0.0,0.0,0.0,0.0,0.0,0.0,0.0,0.0,0.0,0.0,0.0,0.0,0.0,0.0,0.0,0.0,0.0,0.0,0.0,0.0,0.0,0.0,0.0,0.0,0.0,0.0,0.0,0.0,0.0,0.0,0.0,0.0,0.0,0.0,0.0,0.0,0.0,0.0,0.0,0.0,0.0,0.0,0.0,0.0,0.0,0.0,0.0,0.0,0.0,0.0,0.0,0.0,0.0,0.0,0.0,0.0,0.0,0.0,0.0,0.0,0.0,0.0,0.0,0.0,0.0,0.0,0.0,0.0,0.0,0.0,0.0,0.0,0.0,0.0,0.0,0.0,0.0,0.0,0.0,0.0,0.0,0.0,0.0,0.0,0.0,0.0,0.0,0.0,0.0,0.0,0.0,0.0,0.0,0.0,0.0,0.0,0.0,0.0,0.0,0.0,0.0,0.0,0.0,0.0,0.0,0.0,0.0,0.0,0.0,0.0,0.0,0.0,0.0,0.0,0.0,0.0,0.0,0.0,0.0,0.0,0.0,0.0,0.0,0.0,0.0,0.0,0.0,0.0,0.0,0.0,0.0,0.0,0.0,0.0,0.0,0.0,0.0,0.0,0.0,0.0,0.0,0.0,0.0,0.0,0.0,0.0,0.0,0.0,0.0,0.0,0.0,0.0,0.0,0.0,0.0,0.0,0.0,0.0,0.0,0.0,0.0,0.0,0.0,0.0,0.0,0.0,0.0,0.0,0.0,0.0,0.0,0.0,0.0,0.0,0.0,0.0,0.0,0.0,0.0,0.0,0.0,0.0,0.0,0.0,0.0,0.0,0.0,0.0,0.0,0.0,0.0,0.0,0.0,0.0,0.0,0.0,0.0,0.0,0.0,0.0,0.0,0.0,0.0,0.0,0.0,0.0,0.0,0.0,0.0,0.0,0.3209,0.0,0.0,0.0,0.0,0.0,0.0,0.0,0.0,0.0,0.0,0.0,0.0,0.0,0.0,0.0,0.0,0.0,0.0,0.0,0.0,0.0,0.0,0.0,0.0,0.0,0.0,0.0,0.0,0.0,0.0,0.0,0.0,0.0,0.0,0.0,0.0,0.0,0.0,0.0,0.0,0.0,0.0,0.0,0.0,0.0,0.0,0.0,0.0,0.0,0.0,0.0,0.0,0.0,0.0,0.0,0.0,0.0,0.0,0.0,0.0,0.0,0.0,0.0,0.0,0.0,0.0,0.0,0.0,0.0,0.0,0.0,0.0,0.0,0.0,0.0,0.0,0.0,0.0,0.0,0.0,0.0,0.0,0.0,0.0,0.0,0.0,0.0,0.0,0.0,0.0,0.0,0.0,0.0,0.0,0.0,0.0,0.0,0.0,0.0,0.0,0.0,0.0,0.0,0.0,0.0,0.0,0.0,0.0,0.0,0.0,0.2506,0.2726,0.2837,0.2989,0.3083,0.0,0.0,0.0,0.0,0.0,0.0,0.0,0.0,0.0,0.0,0.0,0.0,0.0,0.0,0.0,0.0,0.0,0.0,0.0,0.0,0.0,0.0,0.0,0.0,0.0,0.0,0.0,0.0,0.0,0.0,0.0,0.0,0.0,0.0,0.0,0.0,0.0,0.0,0.0,0.0,0.0,0.0,0.0,0.0,0.0,0.0,0.0,0.0,0.0,0.0,0.0,0.0,0.0,0.0,0.0,0.0,0.0,0.0,0.0,0.0,0.0,0.0,0.0,0.0,0.0,0.0,0.0,0.0,0.0,0.0,0.0,0.0,0.0,0.0,0.0,0.0,0.0,0.0,0.0,0.0,0.0,0.0,0.0,0.0,0.0,0.0,0.0,0.0,0.0,0.0,0.0,0.0,0.0,0.0,0.0,0.0,0.0,0.0,0.0,0.0,0.0,0.0,0.0,0.0,0.0,0.0,0.0,0.0,0.0,0.0,0.0,0.0,0.2462,0.264,0.2879,0.0,0.0,0.0,0.0,0.0,0.0,0.0,0.0,0.0,0.0,0.0,0.0,0.0,0.0,0.0,0.0,0.0,0.0,0.0,0.0,0.0,0.0,0.0,0.0,0.0,0.0,0.0,0.0,0.0,0.0,0.0,0.0,0.0,0.0,0.0,0.0,0.0,0.0,0.0,0.0,0.0,0.0,0.0,0.0,0.0,0.0,0.0,0.0,0.0,0.0,0.0,0.0,0.0,0.0,0.0,0.0,0.0,0.0,0.0,0.0,0.0,0.0,0.0,0.0,0.0,0.0,0.0,0.0,0.0,0.0,0.0,0.0,0.0,0.0,0.0,0.0,0.0,0.0,0.0,0.0,0.0,0.0,0.0,0.0,0.0,0.0,0.0,0.0,0.0,0.0,0.0,0.0,0.0,0.0,0.0,0.0,0.0,0.0,0.0,0.0,0.0,0.0,0.0,0.0,0.0,0.0,0.0,0.0,0.0,0.0,0.1591,0.1861,0.1995,0.0,0.2529,0.0,0.0,0.0,0.0,0.0,0.0,0.0,0.0,0.0,0.0,0.0,0.0,0.0,0.0,0.0,0.0,0.0,0.0,0.0,0.0,0.0,0.0,0.0,0.0,0.0,0.0,0.0,0.0,0.0,0.0,0.0,0.0,0.0,0.0,0.0,0.0,0.0,0.0,0.0,0.0,0.0,0.0,0.0,0.0,0.0,0.0,0.0,0.0,0.0,0.0,0.0,0.0,0.0,0.0,0.0,0.0,0.0,0.0,0.0,0.0,0.0,0.0,0.0,0.0,0.0,0.0,0.0,0.0,0.0,0.0,0.0,0.0,0.0,0.0,0.0,0.0,0.0,0.0,0.0,0.0,0.0,0.0,0.0,0.0,0.0,0.0,0.0,0.0,0.0,0.0,0.0,0.0,0.0,0.0,0.0,0.0,0.0,0.0,0.0,0.0,0.0,0.0,0.0,0.0,0.0,0.0,0.0,0.0,0.0,0.0,0.1099,0.1389,0.1705,0.1994,0.0,0.0,0.0,0.0,0.0,0.0,0.0,0.0,0.0,0.0,0.0,0.0,0.0,0.0,0.0,0.0,0.0,0.0,0.0,0.0,0.0,0.0,0.0,0.0,0.0,0.0,0.0,0.0,0.0,0.0,0.0,0.0,0.0,0.0,0.0,0.0,0.0,0.0,0.0,0.0,0.0,0.0,0.0,0.0,0.0,0.0,0.0,0.0,0.0,0.0,0.0,0.0,0.0,0.0,0.0,0.0,0.0,0.0,0.0,0.0,0.0,0.0,0.0,0.0,0.0,0.0,0.0,0.0,0.0,0.0,0.0,0.0,0.0,0.0,0.0,0.0,0.0,0.0,0.0,0.0,0.0,0.0,0.0,0.0,0.0,0.0,0.0,0.0,0.0,0.0,0.0,0.0,0.0,0.0,0.0,0.0,0.0,0.0,0.0,0.0,0.0,0.0,0.0,0.0,0.0,0.0,0.0,0.0,0.0,0.0,0.0494,0.0674,0.0942,0.1366,0.1671,0.1782,0.0,0.0,0.0,0.0,0.0,0.0,0.0,0.0,0.0,0.0,0.0,0.0,0.0,0.0,0.0,0.0,0.0,0.0,0.0,0.0,0.0,0.0,0.0,0.0,0.0,0.0,0.0,0.0,0.0,0.0,0.0,0.0,0.0,0.0,0.0,0.0,0.0,0.0,0.0,0.0,0.0,0.0,0.0,0.0,0.0,0.0,0.0,0.0,0.0,0.0,0.0,0.0,0.0,0.0,0.0,0.0,0.0,0.0,0.0,0.0,0.0,0.0,0.0,0.0,0.0,0.0,0.0,0.0,0.0,0.0,0.0,0.0,0.0,0.0,0.0,0.0,0.0,0.0,0.0,0.0,0.0,0.0,0.0,0.0,0.0,0.0,0.0,0.0,0.0,0.0,0.0,0.0,0.0,0.0,0.0,0.0,0.0,0.0,0.0,0.0,0.0,0.0,0.0,0.0,0.0,0.0,0.0,0.0,0.0022,0.0157,0.0337,0.0517,0.0897,0.1078,0.0,0.0,0.0,0.0,0.0,0.0,0.0,0.0,0.0,0.0,0.0,0.0,0.0,0.0,0.0,0.0,0.0,0.0,0.0,0.0,0.0,0.0,0.0,0.0,0.0,0.0,0.0,0.0,0.0,0.0,0.0,0.0,0.0,0.0,0.0,0.0,0.0,0.0,0.0,0.0,0.0,0.0,0.0,0.0,0.0,0.0,0.0,0.0,0.0,0.0,0.0,0.0,0.0,0.0,0.0,0.0,0.0,0.0,0.0,0.0,0.0,0.0,0.0,0.0,0.0,0.0,0.0,0.0,0.0,0.0,0.0,0.0,0.0,0.0,0.0,0.0,0.0,0.0,0.0,0.0,0.0,0.0,0.0,0.0,0.0,0.0,0.0,0.0,0.0,0.0,0.0,0.0,0.0,0.0,0.0,0.0,0.0,0.0,0.0,0.0,0.0,0.0,0.0,0.0,0.0,0.0,0.0,0.0,0.0,-0.0247,-0.0045,0.0157,0.0315,0.0584,0.0682,0.0,0.0,0.0,0.0,0.0,0.0,0.0,0.0,0.0,0.0,0.0,0.0,0.0,0.0,0.0,0.0,0.0,0.0,0.0,0.0,0.0,0.0,0.0,0.0,0.0,0.0,0.0,0.0,0.0,0.0,0.0,0.0,0.0,0.0,0.0,0.0,0.0,0.0,0.0,0.0,0.0,0.0,0.0,0.0,0.0,0.0,0.0,0.0,0.0,0.0,0.0,0.0,0.0,0.0,0.0,0.0,0.0,0.0,0.0,0.0,0.0,0.0,0.0,0.0,0.0,0.0,0.0,0.0,0.0,0.0,0.0,0.0,0.0,0.0,0.0,0.0,0.0,0.0,0.0,0.0,0.0,0.0,0.0,0.0,0.0,0.0,0.0,0.0,0.0,0.0,0.0,0.0,0.0,0.0,0.0,0.0,0.0,0.0,0.0,0.0,0.0,0.0,0.0,0.0,0.0,0.0,0.0,0.0,0.0,-0.0641,0.0,-0.0137,0.0,0.0206,0.0335,0.0,0.0,0.0,0.0,0.0,0.0,0.0,0.0,0.0,0.0,0.0,0.0,0.0,0.0,0.0,0.0,0.0,0.0,0.0,0.0,0.0,0.0,0.0,0.0,0.0,0.0,0.0,0.0,0.0,0.0,0.0,0.0,0.0,0.0,0.0,0.0,0.0,0.0,0.0,0.0,0.0,0.0,0.0,0.0,0.0,0.0,0.0,0.0,0.0,0.0,0.0,0.0,0.0,0.0,0.0,0.0,0.0,0.0,0.0,0.0,0.0,0.0,0.0,0.0,0.0,0.0,0.0,0.0,0.0,0.0,0.0,0.0,0.0,0.0,0.0,0.0,0.0,0.0,0.0,0.0,0.0,0.0,0.0,0.0,0.0,0.0,0.0,0.0,0.0,0.0,0.0,0.0,0.0,0.0,0.0,0.0,0.0,0.0,0.0,0.0,0.0,0.0,0.0,0.0,0.0,0.0,0.0,0.0,-0.1145,-0.1188,-0.081,-0.0549,-0.0405,-0.0143,0.0023,0.0,0.0,0.0,0.0,0.0,0.0,0.0,0.0,0.0,0.0,0.0,0.0,0.0,0.0,0.0,0.0,0.0,0.0,0.0,0.0,0.0,0.0,0.0,0.0,0.0,0.0,0.0,0.0,0.0,0.0,0.0,0.0,0.0,0.0,0.0,0.0,0.0,0.0,0.0,0.0,0.0,0.0,0.0,0.0,0.0,0.0,0.0,0.0,0.0,0.0,0.0,0.0,0.0,0.0,0.0,0.0,0.0,0.0,0.0,0.0,0.0,0.0,0.0,0.0,0.0,0.0,0.0,0.0,0.0,0.0,0.0,0.0,0.0,0.0,0.0,0.0,0.0,0.0,0.0,0.0,0.0,0.0,0.0,0.0,0.0,0.0,0.0,0.0,0.0,0.0,0.0,0.0,0.0,0.0,0.0,0.0,0.0,0.0,0.0,0.0,0.0,0.0,0.0,0.0,0.0,0.0,0.0,0.0,0.0,-0.1805,-0.1321,-0.1004,-0.0823,-0.0427,-0.0096,0.0,0.0,0.0,0.0,0.0,0.0,0.0,0.0,0.0,0.0,0.0,0.0,0.0,0.0,0.0,0.0,0.0,0.0,0.0,0.0,0.0,0.0,0.0,0.0,0.0,0.0,0.0,0.0,0.0,0.0,0.0,0.0,0.0,0.0,0.0,0.0,0.0,0.0,0.0,0.0,0.0,0.0,0.0,0.0,0.0,0.0,0.0,0.0,0.0,0.0,0.0,0.0,0.0,0.0,0.0,0.0,0.0,0.0,0.0,0.0,0.0,0.0,0.0,0.0,0.0,0.0,0.0,0.0,0.0,0.0,0.0,0.0,0.0,0.0,0.0,0.0,0.0,0.0,0.0,0.0,0.0,0.0,0.0,0.0,0.0,0.0,0.0,0.0,0.0,0.0,0.0,0.0,0.0,0.0,0.0,0.0,0.0,0.0,0.0,0.0,0.0,0.0,0.0,0.0,0.0,0.0,0.0,0.0,0.0,-0.2906,-0.1974,-0.1437,-0.1379,-0.0654,-0.0129,0.0189,0.0,0.0,0.0,0.0,0.0,0.0,0.0,0.0,0.0,0.0,0.0,0.0,0.0,0.0,0.0,0.0,0.0,0.0,0.0,0.0,0.0,0.0,0.0,0.0,0.0,0.0,0.0,0.0,0.0,0.0,0.0,0.0,0.0,0.0,0.0,0.0,0.0,0.0,0.0,0.0,0.0,0.0,0.0,0.0,0.0,0.0,0.0,0.0,0.0,0.0,0.0,0.0,0.0,0.0,0.0,0.0,0.0,0.0,0.0,0.0,0.0,0.0,0.0,0.0,0.0,0.0,0.0,0.0,0.0,0.0,0.0,0.0,0.0,0.0,0.0,0.0,0.0,0.0,0.0,0.0,0.0,0.0,0.0,0.0,0.0,0.0,0.0,0.0,0.0,0.0,0.0,0.0,0.0,0.0,0.0,0.0,0.0,0.0,0.0,0.0,0.0,0.0,0.0,0.0,0.0,0.0,0.0,0.0,-0.447,-0.2763,-0.1908,-0.2016,-0.0844,-0.0057,0.0,0.0,0.0,0.0,0.0,0.0,0.0,0.0,0.0,0.0,0.0,0.0,0.0,0.0,0.0,0.0,0.0,0.0,0.0,0.0,0.0,0.0,0.0,0.0,0.0,0.0,0.0,0.0,0.0,0.0,0.0,0.0,0.0,0.0,0.0,0.0,0.0,0.0,0.0,0.0,0.0,0.0,0.0,0.0,0.0,0.0,0.0,0.0,0.0,0.0,0.0,0.0,0.0,0.0,0.0,0.0,0.0,0.0,0.0,0.0,0.0,0.0,0.0,0.0,0.0,0.0,0.0,0.0,0.0,0.0,0.0,0.0,0.0,0.0,0.0,0.0,0.0,0.0,0.0,0.0,0.0,0.0,0.0,0.0,0.0,0.0,0.0,0.0,0.0,0.0,0.0,0.0,0.0,0.0,0.0,0.0,0.0,0.0,0.0,0.0,0.0,0.0,0.0,0.0,0.0,0.0,0.0,0.0,0.0,-0.5217,-0.434,-0.3397,-0.2442,-0.1034,-0.0063,0.0,0.0,0.0,0.0,0.0,0.0,0.0,0.0,0.0,0.0,0.0,0.0,0.0,0.0,0.0,0.0,0.0,0.0,0.0,0.0,0.0,0.0,0.0,0.0,0.0,0.0,0.0,0.0,0.0,0.0,0.0,0.0,0.0,0.0,0.0,0.0,0.0,0.0,0.0,0.0,0.0,0.0,0.0,0.0,0.0,0.0,0.0,0.0,0.0,0.0,0.0,0.0,0.0,0.0,0.0,0.0,0.0,0.0,0.0,0.0,0.0,0.0,0.0,0.0,0.0,0.0,0.0,0.0,0.0,0.0,0.0,0.0,0.0,0.0,0.0,0.0,0.0,0.0,0.0,0.0,0.0,0.0,0.0,0.0,0.0,0.0,0.0,0.0,0.0,0.0,0.0,0.0,0.0,0.0,0.0,0.0,0.0,0.0,0.0,0.0,0.0,0.0,0.0,0.0,0.0,0.0,0.0,0.0,-0.5141,-0.5905,-0.5195,-0.4267,-0.3105,-0.1681,-0.0536,0.0,0.0,0.0,0.0,0.0,0.0,0.0,0.0,0.0,0.0,0.0,0.0,0.0,0.0,0.0,0.0,0.0,0.0,0.0,0.0,0.0,0.0,0.0,0.0,0.0,0.0,0.0,0.0,0.0,0.0,0.0,0.0,0.0,0.0,0.0,0.0,0.0,0.0,0.0,0.0,0.0,0.0,0.0,0.0,0.0,0.0,0.0,0.0,0.0,0.0,0.0,0.0,0.0,0.0,0.0,0.0,0.0,0.0,0.0,0.0,0.0,0.0,0.0,0.0,0.0,0.0,0.0,0.0,0.0,0.0,0.0,0.0,0.0,0.0,0.0,0.0,0.0,0.0,0.0,0.0,0.0,0.0,0.0,0.0,0.0,0.0,0.0,0.0,0.0,0.0,0.0,0.0,0.0,0.0,0.0,0.0,0.0,0.0,0.0,0.0,0.0,0.0,0.0,0.0,0.0,0.0,0.0,0.0,-0.5714,-0.6408,-0.5732,-0.4932,-0.3968,-0.2572,-0.117,0.0,0.0,0.0,0.0,0.0,0.0,0.0,0.0,0.0,0.0,0.0,0.0,0.0,0.0,0.0,0.0,0.0,0.0,0.0,0.0,0.0,0.0,0.0,0.0,0.0,0.0,0.0,0.0,0.0,0.0,0.0,0.0,0.0,0.0,0.0,0.0,0.0,0.0,0.0,0.0,0.0,0.0,0.0,0.0,0.0,0.0,0.0,0.0,0.0,0.0,0.0,0.0,0.0,0.0,0.0,0.0,0.0,0.0,0.0,0.0,0.0,0.0,0.0,0.0,0.0,0.0,0.0,0.0,0.0,0.0,0.0,0.0,0.0,0.0,0.0,0.0,0.0,0.0,0.0,0.0,0.0,0.0,0.0,0.0,0.0,0.0,0.0,0.0,0.0,0.0,0.0,0.0,0.0,0.0,0.0,0.0,0.0,0.0,0.0,0.0,0.0,0.0,0.0,0.0,0.0,0.0,0.0,0.0,-0.607,-0.674,-0.6982,-0.6483,-0.5216,-0.3132,-0.1329,0.0,0.0,0.0,0.0,0.0,0.0,0.0,0.0,0.0,0.0,0.0,0.0,0.0,0.0,0.0,0.0,0.0,0.0,0.0,0.0,0.0,0.0,0.0,0.0,0.0,0.0,0.0,0.0,0.0,0.0,0.0,0.0,0.0,0.0,0.0,0.0,0.0,0.0,0.0,0.0,0.0,0.0,0.0,0.0,0.0,0.0,0.0,0.0,0.4714,0.0,0.0,0.0,0.0,0.0,0.0,0.0,0.0,0.0,0.0,0.0,0.0,0.0,0.0,0.0,0.0,0.0,0.0,0.0,0.0,0.0,0.0,0.0,0.0,0.0,0.0,0.0,0.0,0.0,0.0,0.0,0.0,0.0,0.0,0.0,0.0,0.0,0.0,0.0,0.0,0.0,0.0,0.0,0.0,0.0,0.0,0.0,0.0,0.0,0.0,0.0,0.0,0.0,0.0,0.0,0.0,0.0,0.0,0.0,-0.6365,-0.7122,-0.7441,-0.6992,-0.5689,-0.3997,-0.2308,0.0,0.0,0.0,0.0,0.0,0.0,0.0,0.0,0.0,0.0,0.0,0.0,0.0,0.0,0.0,0.0,0.0,0.0,0.0,0.0,0.0,0.0,0.0,0.0,0.0,0.0,0.0,0.0,0.0,0.0,0.0,0.0,0.0,0.0,0.0,0.0,0.0,0.0,0.0,0.0,0.0,0.0,0.0,0.0,0.0,0.0,0.0,0.0,0.0,0.0,0.0,0.0,0.0,0.0,0.0,0.0,0.0,0.0,0.0,0.0,0.0,0.0,0.0,0.0,0.0,0.0,0.0,0.0,0.0,0.0,0.0,0.0,0.0,0.0,0.0,0.0,0.0,0.0,0.0,0.0,0.0,0.0,0.0,0.0,0.0,0.0,0.0,0.0,0.0,0.0,0.0,0.0,0.0,0.0,0.0,0.0,0.0,0.0,0.0,0.0,0.0,0.0,0.0,0.0,0.0,0.0,0.0,-0.5848,-0.6658,-0.7383,-0.7577,-0.7162,-0.6117,-0.4883,-0.3569,-0.2159,0.0,0.0,0.0,0.0,0.0,0.0,0.0,0.0,0.0,0.0,0.0,0.0,0.0,0.0,0.0,0.0,0.0,0.0,0.0,0.0,0.0,0.0,0.0,0.0,0.0,0.0,0.0,0.0,0.0,0.0,0.0,0.0,0.0,0.0,0.0,0.0,0.0,0.0,0.3426,0.3287,0.0,0.0,0.0,0.0,0.0,0.0,0.0,0.0,0.4959,0.0,0.0,0.0,0.0,0.0,0.0,0.0,0.0,0.0,0.0,0.0,0.0,0.0,0.0,0.0,0.0,0.0,0.0,0.0,0.0,0.0,0.0,0.0,0.0,0.0,0.0,0.0,0.0,0.0,0.0,0.0,0.0,0.0,0.0,0.0,0.0,0.0,0.0,0.0,0.0,0.0,0.0,0.0,0.0,0.0,0.0,0.0,0.0,0.0,0.0,0.0,0.0,0.0,0.0,0.0,0.0,-0.5451,-0.6244,-0.6906,-0.755,-0.7824,-0.7702,-0.7268,-0.5708,-0.442,-0.3445,0.0,0.0,0.0,0.0,0.0,0.0,0.0,0.0,0.0,0.0,0.0,0.0,0.0,0.0,0.0,0.0,0.0,0.0,0.0,0.0,0.0,0.0,0.0,0.0,0.0,0.0,0.0,0.0,0.0,0.0,0.0,0.0,0.0,0.0,0.0,0.0,0.0,0.0,0.0,0.2374,0.2463,0.0,0.0,0.0,0.0,0.0,0.0,0.0,0.0,0.5344,0.0,0.0,0.0,0.0,0.0,0.0,0.0,0.0,0.0,0.0,0.0,0.0,0.0,0.0,0.0,0.0,0.0,0.0,0.0,0.0,0.0,0.0,0.0,0.0,0.0,0.0,0.0,0.0,0.0,0.0,0.0,0.0,0.0,0.0,0.0,0.0,0.0,0.0,0.0,0.0,0.0,0.0,0.0,0.0,0.0,0.0,0.0,0.0,0.0,0.0,0.0,0.0,0.0,0.0,0.0,-0.5692,-0.642,-0.7058,-0.7587,-0.7811,-0.7818,-0.7553,-0.5787,-0.4494,0.0,0.0,0.0,0.0,0.0,0.0,0.0,0.0,0.0,0.0,0.0,0.0,0.0,0.0,0.0,0.0,0.0,0.0,0.0,0.0,0.0,0.0,0.0,0.0,0.0,0.0,0.0,0.0,0.0,0.0,0.0,0.0,0.0,0.0,0.0,0.0,0.0,0.0,0.0,0.0,0.1607,0.1659,0.1438,0.0,0.0,0.0,0.0,0.0,0.0,0.4507,0.4555,0.0,0.0,0.0,0.0,0.0,0.0,0.0,0.0,0.0,0.0,0.0,0.0,0.0,0.0,0.0,0.0,0.0,0.0,0.0,0.0,0.0,0.0,0.0,0.0,0.0,0.0,0.0,0.0,0.0,0.0,0.0,0.0,0.0,0.0,0.0,0.0,0.0,0.0,0.0,0.0,0.0,0.0,0.0,0.0,0.0,0.0,0.0,0.0,0.0,0.0,0.0,0.0,0.0,0.0,0.0,-0.627,-0.7005,-0.7686,-0.8326,-0.8255,-0.8119,-0.7962,-0.5968,-0.462,0.0,0.0,0.0,0.0,0.0,0.0,0.0,0.0,0.0,0.0,0.0,0.0,0.0,0.0,0.0,0.0,0.0,0.0,0.0,0.0,0.0,0.0,0.0,0.0,0.0,0.0,0.0,0.0,0.0,0.0,0.0,0.0,0.0,0.0,0.0,0.0,0.0,0.0,0.0,0.0,0.0,0.0932,0.0761,0.146,0.0,0.0,0.0,0.0,0.3554,0.3486,0.0,0.0,0.0,0.0,0.0,0.0,0.0,0.0,0.0,0.0,0.0,0.0,0.0,0.0,0.0,0.0,0.0,0.0,0.0,0.0,0.0,0.0,0.0,0.0,0.0,0.0,0.0,0.0,0.0,0.0,0.0,0.0,0.0,0.0,0.0,0.0,0.0,0.0,0.0,0.0,0.0,0.0,0.0,0.0,0.0,0.0,0.0,0.0,0.0,0.0,0.0,0.0,0.0,0.0,0.0,0.0,-0.7983,-0.8678,-0.9614,-1.0772,-0.9995,-0.9483,-0.9241,-0.6924,-0.5279,0.0,0.0,0.0,0.0,0.0,0.0,0.0,0.0,0.0,0.0,0.0,0.0,0.0,0.0,0.0,0.0,0.0,0.0,0.0,0.0,0.0,0.0,0.0,0.0,0.0,0.0,0.0,0.0,0.0,0.0,0.0,0.0,0.0,0.0,0.0,0.0,0.0,0.0,0.0,0.0,0.0,0.0624,0.0547,0.0931,0.1269,0.0,0.0,0.2528,0.2737,0.2741,0.0,0.0,0.0,0.0,0.0,0.0,0.0,0.0,0.0,0.0,0.0,0.0,0.0,0.0,0.0,0.0,0.0,0.0,0.0,0.0,0.0,0.0,0.0,0.0,0.0,0.0,0.0,0.0,0.0,0.0,0.0,0.0,0.0,0.0,0.0,0.0,0.0,0.0,0.0,0.0,0.0,0.0,0.0,0.0,0.0,0.0,0.0,0.0,0.0,0.0,0.0,0.0,0.0,0.0,0.0,-0.7621,-0.8599,-0.9742,-1.065,-1.1273,-1.0864,-1.0259,-0.952,-0.7793,-0.6185,0.0,0.0,0.0,0.0,0.0,0.0,0.0,0.0,0.0,0.0,0.0,0.0,0.0,0.0,0.0,0.0,0.0,0.0,0.0,0.0,0.0,0.0,0.0,0.0,0.0,0.0,0.0,0.0,0.0,0.0,0.0,0.0,0.0,0.0,0.0,0.0,0.0,0.0,0.0,0.0,0.0,0.0,-0.0166,0.0299,0.0,0.0,0.0,0.1395,0.1787,0.0,0.0,0.0,0.0,0.0,0.0,0.0,0.0,0.0,0.0,0.0,0.0,0.0,0.0,0.0,0.0,0.0,0.0,0.0,0.0,0.0,0.0,0.0,0.0,0.0,0.0,0.0,0.0,0.0,0.0,0.0,0.0,0.0,0.0,0.0,0.0,0.0,0.0,0.0,0.0,0.0,0.0,0.0,0.0,0.0,0.0,0.0,0.0,0.0,0.0,0.0,0.0,0.0,0.0,0.0,0.0,0.0,-0.9606,-1.0932,-1.186,-1.2281,-1.1957,-1.137,-1.0416,-0.8964,0.0,0.0,0.0,0.0,0.0,0.0,0.0,0.0,0.0,0.0,0.0,0.0,0.0,0.0,0.0,0.0,0.0,0.0,0.0,0.0,0.0,0.0,0.0,0.0,0.0,0.0,0.0,-0.002,0.0,0.0,0.0,0.0,0.0,0.0,0.0,0.0,0.0,0.0,0.0,0.0,0.0,0.0,-0.1099,-0.1316,-0.0951,-0.0508,0.0,0.0,0.0184,0.0872,0.0784,0.0811,0.0,0.0,0.0,0.0,0.0,0.0,0.0,0.0,0.0,0.0,0.0,0.0,0.0,0.0,0.0,0.0,0.0,0.0,0.0,0.0,0.0,0.0,0.0,0.0,0.0,0.0,0.0,0.0,0.0,0.0,0.0,0.0,0.0,0.0,0.0,0.0,0.0,0.0,0.0,0.0,0.0,0.0,0.0,0.0,0.0,0.0,0.0,0.0,0.0,0.0,0.0,0.0,0.0,0.0,-0.9746,-1.1729,-1.2611,-1.3723,-1.5015,-1.3805,-1.303,-1.2916,-1.0636,-0.8675,0.0,0.0,0.0,0.0,0.0,0.0,0.0,0.0,0.0,0.0,0.0,0.0,0.0,0.0,0.0,0.0,0.0,0.0,0.0,0.0,0.0,0.0,0.0,0.0,0.0,0.0,0.0,0.0,0.0,0.0,0.0,0.0,0.0,0.0,0.0,0.0,0.0,0.0,0.0,0.0,0.0,-0.3045,-0.3115,-0.3134,-0.2895,0.0,-0.1479,-0.083,-0.0049,0.005,0.0145,0.0515,0.0,0.0,0.0,0.0,0.0,0.0,0.0,0.0,0.0,0.0,0.0,0.0,0.0,0.0,0.0,0.0,0.0,0.0,0.0,0.0,0.0,0.0,0.0,0.0,0.0,0.0,0.0,0.0,0.0,0.0,0.0,0.0,0.0,0.0,0.0,0.0,0.0,0.0,0.0,0.0,0.0,0.0,0.0,0.0,0.0,0.0,0.0,0.0,0.0,0.0,0.0,0.0,0.0,-1.0863,-1.2293,-1.3647,-1.4683,-1.5325,-1.4696,-1.3954,-1.3211,-1.1688,-0.9932,0.0,0.0,0.0,0.0,0.0,0.0,0.0,0.0,0.0,0.0,0.0,0.0,0.0,0.0,0.0,0.0,0.0,0.0,0.0,0.0,0.0,0.0,0.0,0.0,0.0,0.0,0.0,0.0,-0.2178,-0.2303,-0.2362,0.0,0.0,0.0,0.0,0.0,0.0,0.0,0.0,0.0,0.0,-0.386,-0.4377,-0.434,0.0,0.0,-0.2719,-0.2029,-0.1877,-0.1052,-0.0437,-0.0542,-0.0391,0.0,0.0,0.0,0.0,0.0,0.0,0.0,0.0,0.0,0.0,0.0,0.0,0.0,0.0,0.0,0.0,0.0,0.0,0.0,0.0,0.0,0.0,0.0,0.0,0.0,0.0,0.0,0.0,0.0,0.0,0.0,0.0,0.0,0.0,0.0,0.0,0.0,0.0,0.0,0.0,0.0,0.0,0.0,0.0,0.0,0.0,0.0,0.0,0.0,0.0,0.0,0.0,-1.2011,-1.2879,-1.4583,-1.5499,-1.5511,-1.5244,-1.4682,-1.3742,-1.2891,-1.1412,0.0,0.0,0.0,0.0,0.0,0.0,0.0,0.0,0.0,0.0,0.0,0.0,0.0,0.0,0.0,0.0,0.0,0.0,0.0,0.0,0.0,0.0,0.0,0.0,0.0,0.0,0.0,0.0,-0.3155,-0.3265,-0.3443,0.0,0.0,0.0,0.0,0.0,0.0,0.0,0.0,0.0,0.0,-0.5269,-0.5892,-0.5858,-0.56,-0.5105,-0.4106,-0.3264,-0.3025,-0.2077,-0.1465,-0.1737,0.0,0.0,0.0,0.0,0.0,0.0,0.0,0.0,0.0,0.0,0.0,0.0,0.0,0.0,0.0,0.0,0.0,0.0,0.0,0.0,0.0,0.0,0.0,0.0,0.0,0.0,0.0,-0.6339,0.0,0.0,-0.5383,0.0,0.0,0.0,0.0,0.0,0.0,0.0,0.0,0.0,0.0,0.0,0.0,0.0,0.0,0.0,0.0,0.0,0.0,0.0,0.0,0.0,0.0,-1.3254,-1.3699,-1.5609,-1.633,-1.5873,-1.5578,-1.529,-1.497,-1.4369,-1.3217,-1.1428,0.0,0.0,0.0,0.0,0.0,0.0,0.0,0.0,0.0,0.0,0.0,0.0,0.0,0.0,0.0,0.0,0.0,0.0,0.0,0.0,0.0,0.0,0.0,0.0,0.0,0.0,-0.4098,-0.443,-0.4781,0.0,0.0,0.0,0.0,0.0,0.0,0.0,0.0,0.0,-0.5604,-0.6716,-0.7583,-0.7722,-0.7799,-0.7434,-0.6445,-0.5561,-0.4581,-0.3288,-0.2889,-0.2833,0.0,0.0,0.0,0.0,0.0,0.0,0.0,0.0,0.0,0.0,0.0,0.0,0.0,0.0,0.0,0.0,0.0,0.0,0.0,0.0,0.0,0.0,0.0,0.0,0.0,0.0,0.0,-1.0483,-1.017,0.0,0.0,0.0,0.0,0.0,0.0,0.0,0.0,0.0,0.0,0.0,-1.5394,-1.5851,0.0,0.0,0.0,0.0,0.0,0.0,0.0,0.0,0.0,0.0,0.0,0.0,-1.4314,-1.5622,-1.7051,-1.7924,-1.8226,-1.8023,-1.7439,-1.6465,-1.5705,-1.4041,-1.1398,0.0,0.0,0.0,0.0,0.0,0.0,0.0,0.0,0.0,0.0,0.0,0.0,0.0,0.0,0.0,0.0,0.0,0.0,0.0,0.0,0.0,0.0,0.0,0.0,0.0,-0.5641,0.0,0.0,0.0,0.0,0.0,0.0,0.0,0.0,0.0,0.0,-0.729,-0.8121,-0.7762,-0.8534,-0.9231,-0.9449,-0.9312,-0.8982,0.0,0.0,0.0,0.0,0.0,0.0,0.0,0.0,0.0,0.0,0.0,0.0,0.0,0.0,-0.2288,-0.013,0.0522,0.079,0.0791,0.0,0.0,0.0,0.0,0.0,0.0,0.0,0.0,0.0,0.0,0.0,0.0,0.0,0.0,-1.3702,-1.3316,-1.3007,0.0,0.0,0.0,0.0,0.0,0.0,0.0,0.0,-1.7597,-1.8447,-1.855,-1.8939,-1.9028,-1.8737,-1.7803,-1.6077,0.0,0.0,0.0,0.0,0.0,0.0,0.0,0.0,-1.574,-1.7002,-1.8431,-1.9291,-1.9492,-1.931,-1.8807,-1.7858,-1.6587,-1.4896,-1.2784,-1.1188,-0.9799,0.0,0.0,0.0,0.0,0.0,0.0,0.0,0.0,0.0,0.0,0.0,0.0,0.0,0.0,0.0,0.0,0.0,0.0,0.0,0.0,0.0,0.0,0.0,-0.6943,0.0,0.0,0.0,0.0,0.0,0.0,0.0,0.0,0.0,-0.8443,-0.9473,-1.0323,-0.9943,-1.0437,-1.0741,-1.0605,0.0,0.0,0.0,0.0,0.0,0.0,0.0,-0.5815,-0.6278,-0.6587,-0.6749,-0.6749,-0.6401,-0.6007,-0.5586,0.0,0.0,-0.2133,-0.1415,-0.119,-0.119,-0.1148,-0.1062,-0.0929,-0.0441,0.0049,0.0,0.0,0.0,0.0,-1.4226,0.0,0.0,0.0,-1.614,-1.6131,0.0,-1.5843,0.0,0.0,0.0,0.0,-1.5169,-1.7243,0.0,0.0,-2.147,-2.2326,-2.2026,-2.2026,-2.2055,-2.1974,-2.0606,-1.971,-1.9219,-1.6152,0.0,0.0,0.0,0.0,0.0,0.0,-1.7512,-1.7893,-1.9782,-2.0369,-1.9708,-1.9625,-1.945,-1.9129,-1.7101,-1.5871,-1.5443,-1.3137,-1.146,-1.0659,-0.9274,0.0,0.0,0.0,0.0,0.0,0.0,0.0,0.0,0.0,0.0,0.0,0.0,0.0,0.0,0.0,0.0,0.0,0.0,0.0,0.0,-0.7777,0.0,0.0,0.0,0.0,0.0,0.0,0.0,0.0,0.0,-1.2891,-1.1413,-1.1769,-1.2077,-1.2037,0.0,0.0,0.0,0.0,-1.1004,-0.9644,-0.9094,-0.8473,-0.7657,-0.7545,-0.7651,-0.7864,0.0,0.0,-0.8411,-0.7859,-0.7271,-0.699,-0.661,-0.5859,-0.4879,-0.4455,-0.4354,-0.4405,-0.421,-0.4302,-0.42,-0.2864,-0.1831,-2.1136,0.0,0.0,0.0,0.0,-1.84,-1.9278,-2.0926,-2.0704,-2.0386,-1.9992,-1.9657,0.0,0.0,0.0,0.0,0.0,0.0,-2.0674,-2.1431,-2.2664,-2.325,-2.3304,-2.3596,-2.3687,-2.3667,-2.3002,-2.2587,-2.2448,-2.0922,-1.862,-1.5752,0.0,0.0,0.0,0.0,-1.9031,-2.0241,-2.1381,-2.1996,-2.2076,-2.2085,-2.1537,-2.0411,-1.896,-1.744,-1.583,-1.5083,-1.3757,-1.1839,-1.087,0.0,0.0,0.0,0.0,0.0,0.0,0.0,0.0,0.0,0.0,0.0,0.0,0.0,0.0,0.0,0.0,0.0,0.0,0.0,-0.9078,-0.9676,-1.0074,0.0,0.0,0.0,0.0,0.0,0.0,0.0,0.0,0.0,-1.517,-1.4903,-1.4406,0.0,0.0,-1.3678,-1.2822,-1.2115,-1.1424,-1.0588,-0.9592,0.0,-0.8565,-0.8508,-0.8508,-0.8619,-0.8915,-0.9083,-0.9083,-0.8931,-0.8794,-0.8676,-0.859,-0.8311,-0.798,-0.6182,-0.4944,-0.4781,-0.4743,-0.4699,-0.4699,-0.4304,-0.3968,-2.6021,-2.3198,-2.2188,-2.2147,-2.2767,-2.2184,-2.2746,-2.4052,-2.3333,-2.279,-2.2421,-2.2251,-2.1315,-1.9762,-1.9601,0.0,0.0,0.0,-2.2505,-2.3392,-2.3871,-2.4312,-2.458,-2.4814,-2.4894,-2.4912,-2.4502,-2.4297,-2.4277,-2.3603,-2.1886,-1.9286,0.0,-1.8749,-1.8953,-1.9866,-2.097,-2.2136,-2.2872,-2.332,-2.3398,-2.3188,-2.2693,-2.1764,-2.0491,-1.9203,-1.791,-1.6814,-1.5482,-1.3717,-1.2659,-1.1401,0.0,0.0,0.0,0.0,0.0,0.0,0.0,0.0,0.0,0.0,0.0,-0.8157,-0.8248,0.0,0.0,0.0,-0.9368,-0.9816,-1.0572,-1.1179,0.0,0.0,0.0,0.0,0.0,0.0,0.0,-1.4712,-1.586,-1.671,-1.7101,-1.702,-1.6501,-1.5396,-1.5588,-1.5485,-1.4609,0.0,-1.346,-1.2669,-1.1754,-1.1085,-1.0974,-1.1033,-1.0872,-1.0303,-0.979,-0.9557,-0.9554,-0.9557,-0.9557,-0.9554,-0.9557,-0.9557,-0.9554,-0.8059,-0.6833,-0.6701,-0.6715,-0.6744,-0.6744,-0.6332,-0.5917,-2.967,-2.9478,-2.7116,-2.6244,-2.637,-2.5631,-2.5551,-2.5802,-2.4625,-2.3961,-2.3761,-2.3851,-2.3206,-2.2088,-2.2126,0.0,-2.308,-2.348,-2.4181,-2.5117,-2.5127,-2.5342,-2.5684,-2.5674,-2.5684,-2.5674,-2.5312,-2.5165,-2.5145,-2.4717,-2.4234,-2.3664,-2.2342,-2.1689,-2.1757,-2.2343,-2.2974,-2.3567,-2.4127,-2.4228,-2.3838,-2.3418,-2.3149,-2.314,-2.1755,-2.0966,-2.0782,-1.8365,-1.6682,-1.5884,-1.4474,-1.2967,-1.1379,0.0,0.0,0.0,0.0,0.0,0.0,0.0,0.0,0.0,0.0,0.0,0.0,0.0,0.0,0.0,-1.0698,0.0,-1.2027,-1.2459,0.0,0.0,0.0,-1.4192,-1.5242,-1.5396,-1.5731,-1.6459,0.0,0.0,-1.7751,-1.8267,-1.8384,-1.7807,-1.7706,-1.734,-1.6496,-1.6458,-1.6239,-1.5039,-1.4772,-1.4437,-1.3856,-1.3996,-1.3708,-1.2508,-1.102,-1.0108,-1.0065,-0.9829,-0.9836,-0.9856,-0.9859,-0.9856,-0.9856,-0.9734,-0.9774,-0.9409,-0.9432,-0.9506,-0.9327,-0.8417,-0.7576,-3.2208,-3.2178,-3.1545,-3.0274,-2.8622,-2.8433,-2.8409,-2.8372,-2.7224,-2.6491,-2.6033,-2.5176,-2.4417,-2.3848,-2.4169,-2.4419,-2.4582,-2.4974,-2.5333,-2.5566,-2.5576,-2.5586,-2.5684,-2.5684,-2.5684,-2.5684,-2.5625,-2.5586,-2.5566,-2.5421,-2.5323,-2.5178,-2.4819,-2.4144,-2.3079,-2.3191,-2.3586,-2.4176,-2.4319,-2.4365,-2.4258,-2.3857,-2.3623,-2.3623,-2.2631,-2.1551,-2.0401,-1.9459,-1.7946,-1.5876,-1.5932,-1.5304,-1.3675,-1.2907,0.0,0.0,0.0,0.0,0.0,0.0,0.0,0.0,0.0,-1.091,-1.0842,0.0,-1.2359,0.0,-1.2297,-1.2881,-1.3507,-1.4088,0.0,0.0,-1.5623,-1.6133,-1.668,-1.7066,-1.7424,-1.7589,-1.8125,-1.8526,-1.8599,-1.8921,-1.9152,-1.8973,-1.842,-1.7749,-1.708,-1.6511,-1.6109,-1.5656,-1.5083,-1.4555,-1.4603,-1.4483,-1.4484,-1.4059,-1.2693,-1.1663,-1.1739,-1.0725,-1.0032,-1.0141,-1.0171,-1.0171,-1.0224,-1.0171,-1.0148,-1.0066,-0.9914,-0.9771,-0.9771,-0.9405,-0.9217,-3.3809,-3.3809,-3.3809,-3.3007,-3.1661,-3.0637,-3.0226,-3.009,-2.8901,-2.825,-2.7966,-2.7319,-2.6858,-2.6593,-2.6349,-2.6236,-2.6161,-2.5857,-2.5684,-2.5684,-2.5684,-2.5684,-2.5684,-2.5684,-2.5684,-2.5684,-2.5684,-2.5684,-2.5684,-2.5684,-2.5684,-2.5684,-2.5684,-2.5285,-2.451,-2.4481,-2.4635,-2.4953,-2.4805,-2.4697,-2.4697,-2.4102,-2.3789,-2.3769,-2.2959,-2.2096,-2.1226,-2.0231,-1.8913,-1.7425,-1.709,-1.6389,-1.5101,-1.4624,-1.4016,0.0,0.0,0.0,0.0,0.0,0.0,0.0,0.0,0.0,0.0,0.0,-1.3837,-1.3548,-1.3794,-1.4229,-1.481,-1.5391,-1.5979,-1.6553,-1.697,-1.7468,-1.7889,-1.8343,-1.8677,-1.8811,-1.9225,-1.9447,-1.9512,-1.9646,-1.9753,-1.9753,-1.9349,-1.882,-1.8306,-1.7798,-1.7533,-1.7365,-1.7008,-1.6738,-1.6744,-1.6239,-1.5823,-1.5709,-1.4645,-1.3723,-1.3768,-1.3048,-1.247,-1.2566,-1.2591,-1.2339,-1.1657,-1.1467,-1.1281,-1.0446,-1.0144,-1.0012,-0.9937,-0.992,-0.9907,-3.468,-3.468,-3.468,-3.468,-3.4535,-3.2516,-3.1612,-3.1463,-3.0273,-2.96,-2.9396,-2.9396,-2.9396,-2.9315,-2.8319,-2.7814,-2.7778,-2.6524,-2.5965,-2.5927,-2.5781,-2.5684,-2.5684,-2.5684,-2.5684,-2.5684,-2.5684,-2.5684,-2.5684,-2.5684,-2.5684,-2.5684,-2.5684,-2.5684,-2.5684,-2.5684,-2.5684,-2.5684,-2.5352,-2.5146,-2.5146,-2.4316,-2.3867,-2.3828,-2.2988,-2.249,-2.2379,-2.08,-1.9677,-1.922,-1.8104,-1.7098,-1.6228,-1.6109,-1.566,0.0,-1.4916,0.0,0.0,0.0,0.0,0.0,0.0,0.0,0.0,-1.4942,-1.5399,-1.5732,-1.549,-1.5663,-1.6573,-1.6848,-1.725,-1.794,-1.8097,-1.8335,-1.8965,-1.9265,-1.9533,-1.982,-2.0074,-2.0173,-2.014,-2.0173,-2.0173,-2.0133,-2.01,-1.99,-1.9593,-1.9427,-1.9376,-1.9479,-1.9472,-1.9181,-1.9129,-1.8423,-1.7763,-1.7606,-1.6636,-1.5825,-1.5799,-1.5551,-1.5441,-1.5415,-1.5315,-1.4929,-1.3532,-1.3108,-1.242,-1.1111,-1.0597,-1.028,-1.0127,-1.0017,-0.9974,-3.468,-3.468,-3.468,-3.468,-3.4655,-3.4205,-3.3779,-3.3325,-3.2115,-3.0766,-2.9407,-2.9396,-2.9396,-2.9361,-2.9177,-2.9039,-2.8993,-2.7814,-2.722,-2.722,-2.6207,-2.5684,-2.5684,-2.5684,-2.5684,-2.5684,-2.5684,-2.5684,-2.5684,-2.5684,-2.5684,-2.5684,-2.5684,-2.5684,-2.5684,0.0,0.0,0.0,-2.5596,-2.5557,-2.5586,-2.4756,-2.4297,-2.4268,-2.3135,0.0,-2.2012,-2.1296,-2.0239,-1.8861,-1.9363,0.0,0.0,0.0,0.0,0.0,0.0,0.0,0.0,0.0,0.0,0.0,-1.9063,-1.8286,-1.6637,-1.6974,-1.8056,-1.9628,-1.7991,-1.8017,-2.0915,-1.9343,-1.8762,-2.0223,-1.9417,-1.8991,-1.9559,-1.9745,-1.9833,-2.0114,-2.0207,-2.018,-2.02,-2.0173,-2.0241,-2.0207,-2.018,-2.0127,-2.0094,-2.0047,-2.0,-2.0067,-2.0027,-2.0054,-2.0013,-1.9799,-1.9529,-1.9475,-1.8435,-1.7578,-1.7502,-1.6533,-1.578,-1.5918,-1.5861,-1.5846,-1.5332,-1.4248,-1.3258,-1.2767,-1.1599,-1.0555,-1.0297,-1.0236,-1.0226,-3.5542,-3.5529,-3.5529,-3.5529,0.0,-3.5529,-3.5215,-3.4643,-3.3757,-3.2874,-3.2007,-3.2007,-3.1865,-3.1582,-3.1016,-3.0559,-3.0226,-2.9039,-2.8495,-2.8459,-2.7793,-2.721,-2.661,-2.662,-2.6342,-2.5732,-2.5684,-2.5684,-2.5684,-2.5684,-2.5684,-2.5684,-2.5684,-2.5684,-2.5684,-2.5684,-2.5684,-2.5684,-2.5684,-2.5684,-2.5664,-2.5078,-2.4736,-2.4697,-2.3496,0.0,0.0,0.0,0.0,0.0,0.0,0.0,0.0,0.0,0.0,-2.0402,-2.0384,-2.0448,-2.0597,-2.1084,-2.1271,-2.1066,-2.1716,-2.1366,-1.9499,-1.9694,-2.0443,-2.1778,-2.0746,-2.0798,-2.263,-2.1885,-2.1618,-2.2598,-2.2291,-2.209,-2.2273,-2.1837,-2.1463,-2.1497,-2.106,-2.0661,-2.0661,-2.0668,-2.0661,-2.0668,-2.0668,-2.0655,-2.0635,-2.0408,-2.0173,-2.0173,-2.0173,-2.0173,-2.0247,-2.0381,-2.0454,-2.0332,-1.9875,-1.9562,-1.9575,-1.8888,-1.8423,-1.8483,-1.8442,-1.825,-1.7275,-1.6431,-1.5329,-1.3713,-1.2606,-1.1589,-1.0777,-1.0439,-1.0361,-3.6417,-3.6417,-3.6417,-3.6417,-3.6417,-3.6417,-3.6094,-3.5608,-3.5014,0.0,0.0,-3.468,-3.4474,-3.3959,-3.3003,-3.2286,-3.1744,-3.0582,-3.0033,-2.9987,-2.9757,-2.9165,-2.82,-2.8115,-2.7382,-2.6219,-2.6053,-2.5917,-2.5684,-2.5684,-2.5684,-2.5684,-2.5684,-2.583,-2.6014,-2.6062,-2.6149,-2.6284,-2.5917,-2.5684,-2.5674,-2.5303,-2.5059,-2.5059,-2.3955,-2.334,-2.3306,-2.2398,-2.1855,-2.1736,-2.1568,-2.1484,-2.1503,-2.1936,-2.2064,-2.1811,-2.2451,-2.2782,-2.2708,-2.339,-2.346,-2.2714,-2.3699,-2.3764,-2.2339,-2.2366,-2.2817,-2.3692,-2.3266,-2.3335,-2.4261,-2.4127,-2.4351,-2.488,-2.5068,-2.5086,-2.5061,-2.4257,-2.3543,-2.3467,-2.2701,-2.1957,-2.2118,-2.2118,-2.1964,-2.1957,-2.186,-2.1355,-2.1112,-2.0708,-2.0448,-2.0448,-2.0474,-2.0414,-2.0428,-2.0588,-2.0742,-2.0762,-2.0942,-2.1096,-2.1102,-2.1102,-2.1102,-2.0773,-2.1102,-2.0392,-1.9285,-1.857,-1.7532,-1.4754,-1.3648,-1.2869,-1.1556,-1.0816,-1.05,-3.6417,-3.6417,-3.6417,-3.6417,-3.6417,-3.6417,-3.6367,-3.6169,-3.5177,-3.468,-3.468,-3.468,-3.463,-3.4555,-3.442,-3.4267,-3.4147,-3.2971,-3.2404,-3.2346,-3.1291,-3.0662,-3.0496,-3.0058,-2.9197,-2.8059,-2.755,-2.6754,-2.5781,-2.5693,-2.5684,-2.5732,-2.5684,-2.6255,-2.7268,-2.7352,-2.7861,-2.8819,-2.6791,-2.5684,-2.5674,-2.5303,-2.5059,-2.5096,-2.4531,-2.4062,-2.3711,-2.353,-2.3207,-2.264,-2.2577,-2.2577,-2.2596,-2.3034,-2.3326,-2.3456,-2.3884,-2.4273,-2.4678,-2.4824,-2.4954,-2.5199,-2.5721,-2.5484,-2.4125,-2.4313,-2.5265,-2.6698,-2.4862,-2.4694,-2.7433,-2.5957,-2.5255,-2.6571,-2.5855,-2.5252,-2.5679,-2.5423,-2.534,-2.5541,-2.5457,-2.5192,-2.5008,-2.5069,-2.4947,-2.4947,-2.3504,-2.2591,-2.1398,-2.1042,-2.0989,-2.0982,-2.0989,-2.0989,-2.0935,-2.0995,-2.1022,-2.1049,-2.1062,-2.1102,-2.1102,-2.1102,-2.1102,-2.1102,-2.1102,-2.0976,-2.0589,-1.9483,-1.8442,-1.7339,-1.5459,-1.3517,-1.3001,-1.1925,-1.0861,-3.7073,-3.6857,-3.6857,-3.6681,-3.6417,-3.6417,-3.6417,-3.6367,-3.5877,-3.5604,-3.5604,-3.5617,-3.5454,-3.5132,-3.5119,-3.5002,-3.468,-3.4144,-3.3857,-3.3811,-3.3281,-3.2652,-3.2065,-3.175,-3.0645,-2.8813,-2.8477,-2.7598,-2.6202,-2.6094,-2.6309,-2.6726,-2.7342,-2.7673,-2.7589,-2.7589,-2.7872,-2.8402,-2.7945,-2.74,-2.6744,-2.655,-2.6117,-2.5478,-2.5,-2.4687,-2.4492,-2.4258,-2.3988,-2.3667,-2.3657,-2.3657,-2.3667,-2.411,-2.44,-2.4502,-2.4893,-2.5177,-2.542,-2.543,-2.5625,-2.6055,-2.6494,-2.6563,-2.6191,-2.6328,-2.6884,-2.7916,-2.6967,-2.7029,-2.8723,-2.8117,-2.7943,-2.8766,-2.8455,-2.8317,-2.8305,-2.7606,-2.72,-2.7228,-2.653,-2.6037,-2.5976,-2.5976,-2.5558,-2.4832,-2.3318,-2.1971,-2.1235,-2.1109,-2.1109,-2.1102,-2.1102,-2.1102,-2.1102,-2.1102,-2.1102,-2.1102,-2.1102,-2.1102,-2.1102,-2.1102,-2.1102,-2.1102,-2.1102,-2.1102,-2.1102,-2.0519,-1.961,-1.8442,-1.7468,-1.5978,-1.4944,-1.4036,-1.2935,-3.7764,-3.7374,-3.7374,-3.7111,-3.6769,-3.6644,-3.6593,-3.6581,-3.6468,-3.6417,-3.6417,-3.6417,-3.6132,-3.5755,-3.5696,-3.5445,-3.5127,-3.509,-3.5102,-3.509,-3.509,-3.4561,-3.3712,-3.3534,-3.2311,-3.0253,-2.9921,-2.9059,-2.7608,-2.7439,-2.7675,-2.8231,-2.9013,-2.905,-2.8459,-2.8402,-2.8552,-2.8866,-2.9772,-2.9372,-2.7683,-2.7315,-2.6716,-2.5752,-2.54,-2.5225,-2.5205,-2.4902,-2.4717,-2.4717,-2.466,-2.466,-2.4727,-2.5029,-2.5225,-2.5254,-2.5499,-2.5781,-2.582,-2.5879,-2.6074,-2.6494,-2.6924,-2.7305,-2.7669,-2.7806,-2.7939,-2.8281,-2.8579,-2.8881,-2.9141,-2.967,-3.0244,-3.0351,-3.0664,-3.0713,-3.0762,-2.9717,-2.8979,-2.8792,-2.7871,-2.7202,-2.7082,-2.7073,-2.6599,-2.5146,-2.3619,-2.2803,-2.2013,-2.1767,-2.1703,-2.1253,-2.1156,-2.1109,-2.1102,-2.1102,-2.1102,-2.1102,-2.1102,-2.1102,-2.1102,-2.1102,-2.1102,-2.1102,-2.1102,-2.1102,-2.1102,-2.1039,-2.0519,-1.9483,-1.864,-1.7731,-1.6108,-1.5719,-1.4879,-3.799,-3.7939,-3.7927,-3.7914,-3.7764,-3.7312,-3.7098,-3.7023,-3.6619,-3.6417,-3.6417,-3.6417,-3.6392,-3.6329,-3.6317,-3.6254,-3.6204,-3.6254,-3.6229,-3.6216,-3.6254,-3.616,-3.5906,-3.5494,-3.4593,-3.322,-3.2688,-3.1685,-3.0385,-3.0459,-3.0359,-2.9927,-2.9585,-2.9966,-3.0676,-3.0822,-3.1368,-3.2525,-3.2711,-3.1057,-2.7778,-2.6476,-2.583,-2.5732,-2.5645,-2.5625,-2.5596,-2.5586,-2.5557,-2.5567,-2.5538,-2.5557,-2.5547,-2.5606,-2.5615,-2.5664,-2.5674,-2.5859,-2.6269,-2.6328,-2.6514,-2.6924,-2.7344,-2.766,-2.7748,-2.8027,-2.8242,-2.8379,-2.8691,-2.9092,-2.9473,-2.9941,-3.0391,-3.0723,-3.084,-3.0898,-3.0889,-3.0762,-3.0645,-3.0704,-3.0206,-3.0392,-3.0089,-2.9903,-2.9412,-2.7753,-2.7192,-2.6315,-2.4316,-2.3818,-2.3325,-2.2091,-2.1367,-2.1199,-2.1109,-2.1102,-2.1102,-2.1102,-2.1102,-2.1102,-2.1102,-2.1102,-2.1102,-2.1102,-2.1102,-2.1102,-2.1102,-2.1102,-2.1039,-2.0526,-1.9483,-1.8116,-1.6496,-1.6237,-1.5459,-3.8818,-3.853,-3.8517,-3.8316,-3.799,-3.7764,-3.7487,-3.7161,-3.696,-3.6719,-3.643,-3.6417,-3.6417,-3.6417,-3.6417,-3.6417,-3.6417,-3.6417,-3.6417,-3.6417,-3.6417,-3.6417,-3.638,-3.6144,-3.5394,-3.4198,-3.3887,-3.2978,-3.1749,-3.1895,-3.2019,-3.1879,-3.196,-3.198,-3.1776,-3.1377,-3.1444,-3.1909,-3.1279,-3.0147,-2.8819,-2.8168,-2.7163,-2.5868,-2.5684,-2.5684,-2.5684,-2.5684,-2.5684,-2.5684,-2.5684,-2.5684,-2.5684,-2.5684,-2.5684,-2.5703,-2.5986,-2.6201,-2.6377,-2.6621,-2.6943,-2.7383,-2.7559,-2.7816,-2.8027,-2.8418,-2.8662,-2.8711,-2.9053,-2.9482,-2.9902,-3.0342,-3.0693,-3.0859,-3.0898,-3.0898,-3.0898,-3.0898,-3.0898,-3.0898,-3.0898,-3.0898,-3.0762,-3.002,-2.9327,-2.8646,-2.8332,-2.7188,-2.6063,-2.5993,-2.5286,-2.3793,-2.3128,-2.2356,-2.1472,-2.1102,-2.1102,-2.1102,-2.1102,-2.1102,-2.1102,-2.1102,-2.1102,-2.1102,-2.1102,-2.1102,-2.1102,-2.1102,-2.1102,-2.0912,-2.0849,-1.9744,-1.9094,-1.8966,-1.825,-3.9471,-3.912,-3.9094,-3.8856,-3.8467,-3.8304,-3.8015,-3.7687,-3.7475,-3.7098,-3.6656,-3.6631,-3.6556,-3.6417,-3.6417,-3.6417,-3.6417,-3.6417,-3.6417,-3.6417,-3.6417,-3.6417,-3.6417,-3.6417,-3.5906,-3.5078,-3.4957,-3.4257,-3.3116,-3.3327,-3.3603,-3.3669,-3.3983,-3.3653,-3.2859,-3.2337,-3.2083,-3.1918,-3.1033,-3.0421,-2.9932,-2.959,-2.8226,-2.5965,-2.5684,-2.5684,-2.5684,-2.5684,-2.5684,-2.5684,-2.5684,-2.5684,-2.5684,-2.5801,-2.5967,-2.6094,-2.6377,-2.6621,-2.6719,-2.7021,-2.7373,-2.7826,-2.7842,-2.7959,-2.8281,-2.8672,-2.8965,-2.9121,-2.9482,-2.9883,-3.0176,-3.0615,-3.0879,-3.0898,-3.0898,-3.0898,-3.0898,-3.0898,-3.0898,-3.0898,-3.0898,-3.0898,-3.0782,-3.0057,-2.9573,-2.9624,-2.9027,-2.8099,-2.8114,-2.8065,-2.7477,-2.5742,-2.4837,-2.3446,-2.1665,-2.1149,-2.1122,-2.1102,-2.1102,-2.1102,-2.1102,-2.1102,-2.1102,-2.1102,-2.1102,-2.1102,-2.1102,-2.1102,-2.1102,-2.1102,-2.1039,-2.0976,-2.0646,-2.0976,-2.0526,-3.9685,-3.9659,-3.9659,-3.9597,-3.9559,-3.9044,-3.8806,-3.8642,-3.8203,-3.7663,-3.7186,-3.7149,-3.6908,-3.6443,-3.6468,-3.6417,-3.6417,-3.6417,-3.6417,-3.6417,-3.6417,-3.6417,-3.6417,-3.6417,-3.637,-3.6168,-3.6108,-3.6083,-3.5949,-3.5581,-3.5365,-3.5328,-3.4919,-3.4643,-3.4482,-3.4362,-3.4227,-3.3676,-3.3481,-3.2791,-3.1252,-3.0045,-2.8373,-2.6267,-2.5732,-2.5684,-2.5732,-2.5732,-2.5732,-2.5684,-2.5801,-2.5752,-2.5732,-2.6143,-2.6523,-2.6865,-2.6963,-2.7158,-2.7552,-2.7607,-2.7803,-2.8164,-2.8213,-2.8262,-2.8369,-2.874,-2.9141,-2.9512,-2.9922,-3.0195,-3.0273,-3.0644,-3.0889,-3.0898,-3.0898,-3.0898,-3.0898,-3.0937,-3.0898,-3.0898,-3.0937,-3.0996,-3.0957,-3.1181,-3.1167,-3.1419,-3.1912,-3.1736,-3.0464,-3.0167,-2.9461,-2.7849,-2.6078,-2.396,-2.2086,-2.141,-2.1223,-2.1209,-2.1269,-2.1142,-2.1109,-2.1102,-2.1109,-2.1102,-2.1102,-2.1102,-2.1102,-2.1102,-2.1102,-2.1102,-2.1102,-2.1102,-2.1102,-2.1102,-2.0779,-3.9697,-3.9697,-3.9697,-3.9697,-3.9672,-3.9471,-3.9195,-3.8906,-3.8705,-3.8241,-3.7776,-3.7713,-3.74,-3.6933,-3.6933,-3.6732,-3.643,-3.6417,-3.6417,-3.6417,-3.6417,-3.6417,-3.6417,-3.6417,-3.6417,-3.6417,-3.6417,-3.6417,-3.6392,-3.6157,-3.6069,-3.5981,-3.5516,-3.5207,-3.5144,-3.4843,-3.4568,-3.4462,-3.4424,-3.3703,-3.2428,-3.1866,-3.0783,-2.9074,-2.6855,-2.5684,-2.5684,-2.6476,-2.6572,-2.5732,-2.6699,-2.6947,-2.629,-2.6562,-2.6855,-2.7021,-2.7285,-2.75,-2.7718,-2.792,-2.8125,-2.8262,-2.8301,-2.8418,-2.8701,-2.9082,-2.9521,-2.9941,-3.0381,-3.0625,-3.0664,-3.0801,-3.0898,-3.0898,-3.0898,-3.0898,-3.0947,-3.1113,-3.1201,-3.1006,-3.1113,-3.1387,-3.1621,-3.1846,-3.2031,-3.2305,-3.2617,-3.256,-3.2405,-3.2273,-3.1593,-3.0108,-2.8883,-2.7251,-2.4145,-2.2504,-2.1663,-2.161,-2.1577,-2.1456,-2.1396,-2.1203,-2.1162,-2.1162,-2.1142,-2.1102,-2.1102,-2.1102,-2.1102,-2.1102,-2.1102,-2.1102,-2.1102,-2.1102,-2.1102,-3.9697,-3.9697,-3.9697,-3.9697,-3.9697,-3.9697,-3.9484,-3.9145,-3.9183,-3.8818,-3.8354,-3.8278,-3.7965,-3.7513,-3.7462,-3.7197,-3.6681,-3.6505,-3.6417,-3.6417,-3.6417,-3.6417,-3.6417,-3.6417,-3.6417,-3.6417,-3.6417,-3.6417,-3.6417,-3.6417,-3.6417,-3.638,-3.5968,-3.5805,-3.573,-3.5429,-3.519,-3.5039,-3.4989,-3.4479,-3.356,-3.3095,-3.2277,-3.0785,-2.8199,-2.6986,-2.7355,-2.7838,-2.7934,-2.76,-2.814,-2.7976,-2.6999,-2.707,-2.7285,-2.7441,-2.7695,-2.7924,-2.7891,-2.8135,-2.8291,-2.8301,-2.8437,-2.8633,-2.8926,-2.9434,-2.9883,-3.0215,-3.0615,-3.0898,-3.0898,-3.0889,-3.0898,-3.0898,-3.0898,-3.0957,-3.1094,-3.1338,-3.1435,-3.1416,-3.1562,-3.1855,-3.2109,-3.2275,-3.2471,-3.2773,-3.2891,-3.3135,-3.335,-3.3355,-3.3092,-3.1817,-3.0811,-2.9424,-2.7409,-2.5778,-2.3114,-2.2573,-2.2099,-2.1932,-2.1695,-2.141,-2.1263,-2.1236,-2.1189,-2.1136,-2.1109,-2.1109,-2.1116,-2.1122,-2.1102,-2.1102,-2.1102,-2.1102,-2.1102,-3.9697,-3.9697,-3.9697,-3.9697,-3.9697,-3.9697,-3.9697,-3.9634,-3.9647,-3.932,-3.8944,-3.8932,-3.8555,-3.8103,-3.8015,-3.7713,-3.7186,-3.6795,-3.6518,-3.6417,-3.6417,-3.6417,-3.6417,-3.6417,-3.6417,-3.6417,-3.6417,-3.6417,-3.6417,-3.6417,-3.6417,-3.6417,-3.638,-3.6304,-3.6392,-3.6254,-3.6019,-3.5655,-3.5508,-3.5257,-3.4677,-3.3762,-3.2618,-3.1191,-2.9753,-2.9584,-3.0826,-2.9726,-2.9455,-3.0292,-2.9639,-2.8643,-2.7841,-2.7708,-2.7842,-2.8125,-2.8262,-2.8281,-2.8271,-2.8271,-2.8301,-2.8398,-2.8682,-2.8906,-2.917,-2.9717,-3.0176,-3.0332,-3.0635,-3.0898,-3.0898,-3.0898,-3.0898,-3.0898,-3.0898,-3.1045,-3.1367,-3.1514,-3.1699,-3.206,-3.2197,-3.2238,-3.2275,-3.2568,-3.2832,-3.292,-3.3135,-3.335,-3.3408,-3.3418,-3.3355,-3.3029,-3.2089,-3.0773,-3.0054,-2.9145,-2.6056,-2.3546,-2.2922,-2.2497,-2.2042,-2.175,-2.159,-2.1537,-2.1443,-2.139,-2.1383,-2.1376,-2.1283,-2.1263,-2.1196,-2.1142,-2.1102,-2.1102,-2.1102,-3.9697,-3.9697,-3.9697,-3.9697,-3.9697,-3.9697,-3.9697,-3.9697,-3.9697,-3.9597,-3.9459,-3.9433,-3.9132,-3.8693,-3.8592,-3.8291,-3.7764,-3.7538,-3.7098,-3.6543,-3.643,-3.6455,-3.6443,-3.643,-3.6417,-3.6417,-3.6417,-3.6417,-3.6417,-3.6417,-3.6417,-3.6417,-3.6417,-3.6417,-3.6417,-3.6405,-3.6304,-3.6144,-3.6119,-3.6006,-3.5855,-3.5503,-3.4616,-3.3342,-3.1982,-3.1932,-3.3161,-3.139,-3.0122,-2.9802,-3.0319,-2.9929,-2.8505,-2.8096,-2.8154,-2.8271,-2.8301,-2.8301,-2.8301,-2.831,-2.8437,-2.8662,-2.8857,-2.9219,-2.9707,-3.0029,-3.0351,-3.0596,-3.081,-3.0898,-3.0898,-3.0898,-3.0898,-3.0898,-3.0898,-3.1064,-3.1504,-3.1816,-3.2295,-3.2842,-3.2783,-3.2744,-3.2949,-3.3184,-3.3174,-3.3193,-3.334,-3.3408,-3.3418,-3.3418,-3.3418,-3.3282,-3.2556,-3.2027,-3.1176,-3.0522,-2.8658,-2.5932,-2.465,-2.3461,-2.2862,-2.2064,-2.1917,-2.1777,-2.1697,-2.165,-2.165,-2.1623,-2.1537,-2.147,-2.145,-2.1329,-2.1162,-2.1129,-2.1176,-3.9697,-3.9697,-3.9697,-3.9697,-3.9697,-3.9697,-3.9697,-3.9697,-3.9697,-3.9697,-3.9697,-3.9685,-3.9521,-3.9233,-3.9233,-3.8856,-3.8366,-3.8329,-3.7826,-3.7086,-3.6973,-3.6973,-3.6971,-3.6795,-3.6707,-3.6669,-3.6505,-3.6417,-3.6417,-3.6417,-3.6417,-3.6417,-3.6417,-3.6417,-3.6417,-3.6417,-3.6417,-3.6417,-3.6405,-3.6417,-3.6405,-3.6417,-3.5511,-3.381,-3.2733,-3.2543,-3.281,-3.1836,-3.1276,-3.0976,-3.118,-3.0126,-2.8528,-2.8291,-2.8301,-2.8301,-2.8301,-2.8301,-2.831,-2.8457,-2.8613,-2.8896,-2.9209,-2.959,-3.0117,-3.0303,-3.0615,-3.083,-3.0898,-3.0898,-3.0898,-3.0898,-3.0957,-3.1123,-3.0986,-3.1172,-3.167,-3.2285,-3.2783,-3.3203,-3.3164,-3.3193,-3.333,-3.3418,-3.3418,-3.3418,-3.3418,-3.3418,-3.3418,-3.3418,-3.3418,-3.3418,-3.3155,-3.2619,-3.2018,-3.1497,-3.1047,-2.8816,-2.6611,-2.5174,-2.4056,-2.2779,-2.2138,-2.1964,-2.1857,-2.1837,-2.1837,-2.1871,-2.183,-2.1842,-2.1769,-2.1635,-2.1436,-2.1336,-2.1323,-3.9697,-3.9697,-3.9697,-3.9697,-3.9697,-3.9697,-3.9697,-3.9697,-3.9697,-3.9697,-3.9697,-3.9697,-3.9685,-3.9672,-3.9609,-3.9333,-3.9032,-3.8906,-3.8655,-3.8228,-3.809,-3.804,-3.7789,-3.7412,-3.7186,-3.7048,-3.6732,-3.648,-3.6417,-3.6417,-3.6417,-3.6417,-3.6417,-3.6417,-3.6417,-3.6417,-3.6417,-3.6417,-3.6417,-3.6417,-3.6417,-3.6417,-3.509,-3.2644,-3.2342,-3.1774,-3.0946,-3.1422,-3.2603,-3.3589,-3.1556,-2.9755,-2.8591,-2.8301,-2.8301,-2.8301,-2.8301,-2.834,-2.8408,-2.8662,-2.8945,-2.9141,-2.9697,-3.0225,-3.0312,-3.0615,-3.082,-3.0889,-3.0898,-3.0898,-3.0898,-3.0967,-3.1152,-3.1435,-3.1377,-3.1553,-3.2199,-3.2891,-3.3281,-3.3379,-3.3408,-3.3418,-3.3418,-3.3418,-3.3418,-3.3418,-3.3418,-3.3418,-3.3418,-3.3418,-3.3418,-3.3418,-3.3418,-3.3219,-3.2556,-3.2492,-3.2036,-3.102,-2.8719,-2.6795,-2.4943,-2.3414,-2.2432,-2.2251,-2.2104,-2.2071,-2.2098,-2.2184,-2.2144,-2.2044,-2.1951,-2.1909,-2.1795,-2.1617,-2.1537,-3.9697,-3.9697,-3.9697,-3.9697,-3.9697,-3.9697,-3.9697,-3.9697,-3.9697,-3.9697,-3.9697,-3.9697,-3.9697,-3.9697,-3.9697,-3.9597,-3.9471,-3.9446,-3.9433,-3.927,-3.9245,-3.873,-3.814,-3.7864,-3.7588,-3.7262,-3.7023,-3.6807,-3.6443,-3.643,-3.6417,-3.6417,-3.6417,-3.6417,-3.6417,-3.6417,-3.6417,-3.6417,-3.6417,-3.6417,-3.6417,-3.6417,-3.5054,-3.2632,-3.228,-3.1633,-3.0473,-3.0618,-3.148,-3.2582,-3.1276,-2.9713,-2.8495,-2.8301,-2.831,-2.833,-2.832,-2.8457,-2.8721,-2.8887,-2.9209,-2.9785,-3.0059,-3.0342,-3.0684,-3.081,-3.0898,-3.0898,-3.0898,-3.0908,-3.0947,-3.1191,-3.1543,-3.1934,-3.21,-3.2314,-3.2607,-3.3066,-3.3418,-3.3418,-3.3418,-3.3418,-3.3418,-3.3418,-3.3418,-3.3418,-3.3418,-3.3418,-3.3418,-3.3418,-3.3418,-3.3418,-3.3418,-3.3418,-3.3282,-3.3282,-3.3092,-3.2629,-3.0753,-2.8311,-2.6134,-2.3819,-2.3113,-2.2659,-2.2532,-2.2472,-2.2565,-2.2665,-2.2525,-2.2325,-2.2278,-2.2198,-2.2011,-2.1871,-2.185,-3.991,-3.9697,-3.9697,-3.9697,-3.9697,-3.9697,-3.9697,-3.9697,-3.9697,-3.9697,-3.9697,-3.9697,-3.9697,-3.9697,-3.9697,-3.9697,-3.9697,-3.9697,-3.9685,-3.9685,-3.9659,-3.9308,-3.8793,-3.853,-3.8203,-3.7864,-3.74,-3.7071,-3.6757,-3.6543,-3.6417,-3.6417,-3.6417,-3.6417,-3.6417,-3.6417,-3.6417,-3.6417,-3.6417,-3.6417,-3.6417,-3.6417,-3.5319,-3.3403,-3.2694,-3.1825,-3.1224,-3.1184,-3.1531,-3.1774,-3.0577,-2.9102,-2.8441,-2.8301,-2.8369,-2.8516,-2.8555,-2.875,-2.9131,-2.9336,-2.9668,-3.0117,-3.0332,-3.0605,-3.082,-3.0898,-3.0898,-3.0898,-3.1035,-3.1143,-3.125,-3.168,-3.2129,-3.2422,-3.2803,-3.2978,-3.2832,-3.3154,-3.3379,-3.3418,-3.3418,-3.3418,-3.3418,-3.3418,-3.3418,-3.3418,-3.3418,-3.3418,-3.3418,-3.3418,-3.3418,-3.3418,-3.3418,-3.3418,-3.3418,-3.3418,-3.3418,-3.3092,-3.0918,-2.8804,-2.6831,-2.4324,-2.3311,-2.2826,-2.2853,-2.2866,-2.2866,-2.2859,-2.2759,-2.2625,-2.2612,-2.2498,-2.2291,-2.2171,-2.2151,-4.0187,-3.9697,-3.9697,-3.9697,-3.9697,-3.9697,-3.9697,-3.9697,-3.9697,-3.9697,-3.9697,-3.9697,-3.9697,-3.9697,-3.9697,-3.9697,-3.9697,-3.9697,-3.9697,-3.9697,-3.9697,-3.9584,-3.9496,-3.912,-3.8856,-3.8668,-3.7776,-3.7437,-3.7224,-3.6857,-3.6656,-3.6744,-3.6707,-3.6631,-3.6769,-3.6694,-3.6606,-3.6681,-3.6631,-3.6606,-3.6556,-3.6386,-3.5475,-3.3761,-3.2392,-3.2079,-3.2039,-3.2039,-3.2061,-3.237,-2.9931,-2.886,-2.8549,-2.8389,-2.8613,-2.8906,-2.9004,-2.918,-2.958,-2.9922,-3.0185,-3.0351,-3.0674,-3.0879,-3.0908,-3.0957,-3.1025,-3.1035,-3.1348,-3.1582,-3.1787,-3.2353,-3.2685,-3.2871,-3.3203,-3.3193,-3.3047,-3.3193,-3.3418,-3.3418,-3.3418,-3.3418,-3.3418,-3.3418,-3.3418,-3.3418,-3.3418,-3.3418,-3.3418,-3.3418,-3.3418,-3.3418,-3.3418,-3.3418,-3.3418,-3.3418,-3.3418,-3.3092,-3.0328,-2.8098,-2.6839,-2.4926,-2.3597,-2.2866,-2.2866,-2.2866,-2.2866,-2.2853,-2.2839,-2.2826,-2.2746,-2.2652,-2.2545,-2.2492,-2.2458,-4.0187,-3.9697,-3.9697,-3.9697,-3.9697,-3.9697,-3.9697,-3.9697,-3.9697,-3.9697,-3.9697,-3.9697,-3.9697,-3.9697,-3.9697,-3.9697,-3.9697,-3.9697,-3.9697,-3.9697,-3.9697,-3.9697,-3.9685,-3.9509,-3.9283,-3.8919,-3.868,-3.8266,-3.7877,-3.7663,-3.7638,-3.7588,-3.7487,-3.7626,-3.7575,-3.75,-3.7638,-3.7575,-3.7224,-3.7023,-3.6958,-3.6586,-3.5368,-3.3185,-3.175,-3.1513,-3.1887,-3.1276,-3.146,-3.2041,-3.1243,-2.9729,-2.9001,-2.9072,-2.9277,-2.9375,-2.9434,-2.9619,-2.999,-3.0185,-3.0361,-3.0684,-3.0791,-3.0898,-3.0918,-3.1201,-3.1338,-3.1445,-3.1768,-3.2139,-3.2451,-3.2656,-3.2939,-3.3193,-3.334,-3.3389,-3.332,-3.335,-3.3408,-3.3418,-3.3418,-3.3418,-3.3418,-3.3418,-3.3418,-3.3418,-3.3418,-3.3418,-3.3418,-3.3418,-3.3418,-3.3418,-3.3418,-3.3418,-3.3418,-3.3282,-3.3092,-3.2556,-2.9939,-2.7701,-2.6447,-2.4926,-2.3393,-2.2866,-2.2866,-2.2866,-2.2866,-2.2859,-2.2853,-2.2859,-2.2866,-2.2786,-2.2719,-2.2726,-2.2699,-4.0438,-3.971,-3.9697,-3.9697,-3.9697,-3.9697,-3.9697,-3.9697,-3.9697,-3.9697,-3.9697,-3.9697,-3.9697,-3.9697,-3.9697,-3.9697,-3.9697,-3.9697,-3.9697,-3.9697,-3.9697,-3.9697,-3.9697,-3.9685,-3.9509,-3.9233,-3.9007,-3.873,-3.8429,-3.8165,-3.7939,-3.8002,-3.8027,-3.7927,-3.8002,-3.8027,-3.7965,-3.7927,-3.7739,-3.7575,-3.75,-3.7251,-3.5793,-3.3742,-3.2768,-3.2819,-3.1917,-3.1338,-3.1519,-3.1838,-3.1254,-3.0258,-2.9479,-2.9453,-2.9704,-2.9834,-2.9863,-3.0078,-3.0391,-3.0537,-3.0635,-3.0869,-3.0898,-3.1016,-3.1143,-3.1416,-3.1611,-3.1855,-3.2217,-3.2637,-3.3027,-3.3086,-3.3232,-3.333,-3.3418,-3.3418,-3.3418,-3.3418,-3.3418,-3.3418,-3.3418,-3.3418,-3.3418,-3.3418,-3.3418,-3.3418,-3.3418,-3.3418,-3.3418,-3.3418,-3.3418,-3.3418,-3.3418,-3.3418,-3.3418,-3.3219,-3.2756,-3.1707,-2.9735,-2.7768,-2.6247,-2.4655,-2.2996,-2.2866,-2.2866,-2.2866,-2.2866,-2.2866,-2.2866,-2.2866,-2.2866,-2.2866,-2.2846,-2.2806,-2.2799,-4.0636,-3.9697,-3.9697,-3.9697,-3.9697,-3.9697,-3.9697,-3.9697,-3.9697,-3.9697,-3.9697,-3.9697,-3.9697,-3.9697,-3.9697,-3.9697,-3.9697,-3.9697,-3.9697,-3.9697,-3.9697,-3.9697,-3.9697,-3.9685,-3.9672,-3.9634,-3.927,-3.9019,-3.8868,-3.8555,-3.8492,-3.8329,-3.8304,-3.8454,-3.8341,-3.8278,-3.8404,-3.8429,-3.8253,-3.814,-3.809,-3.7928,-3.6509,-3.4871,-3.4354,-3.3926,-3.249,-3.1782,-3.1627,-3.1634,-3.076,-3.017,-2.9873,-2.9795,-2.9959,-3.0293,-3.0303,-3.0469,-3.0713,-3.085,-3.0879,-3.0947,-3.0996,-3.1211,-3.1514,-3.1758,-3.1973,-3.2275,-3.2637,-3.3018,-3.3369,-3.3359,-3.3369,-3.3418,-3.3418,-3.3418,-3.3418,-3.3418,-3.3418,-3.3418,-3.3418,-3.3418,-3.3418,-3.3418,-3.3418,-3.3418,-3.3418,-3.3418,-3.3418,-3.3418,-3.3418,-3.3418,-3.3418,-3.3418,-3.3418,-3.3355,-3.2956,-3.1973,-2.9995,-2.8353,-2.6706,-2.5181,-2.3924,-2.2996,-2.2866,-2.2866,-2.2866,-2.2866,-2.2866,-2.2866,-2.2866,-2.2866,-2.2866,-2.2866,-2.2866,-4.0689,-3.9697,-3.9697,-3.9697,-3.9697,-3.9697,-3.9697,-3.9697,-3.9697,-3.9697,-3.9697,-3.9697,-3.9697,-3.9697,-3.9697,-3.9697,-3.9697,-3.9697,-3.9697,-3.9697,-3.9697,-3.9697,-3.9697,-3.9697,-3.9697,-3.9697,-3.9534,-3.9484,-3.9496,-3.9459,-3.922,-3.9346,-3.932,-3.9308,-3.9283,-3.9396,-3.9258,-3.9132,-3.8906,-3.873,-3.8642,-3.8279,-3.7429,-3.5639,-3.5144,-3.4166,-3.3316,-3.2276,-3.1751,-3.193,-3.0864,-3.0523,-3.0508,-3.0576,-3.0635,-3.0684,-3.0703,-3.0781,-3.0928,-3.0928,-3.1094,-3.1299,-3.1416,-3.1621,-3.2002,-3.2334,-3.249,-3.2705,-3.3018,-3.333,-3.3398,-3.3418,-3.3418,-3.3418,-3.3418,-3.3418,-3.3418,-3.3418,-3.3418,-3.3418,-3.3418,-3.3418,-3.3418,-3.3418,-3.3418,-3.3418,-3.3418,-3.3418,-3.3418,-3.3418,-3.3418,-3.3418,-3.3418,-3.3418,-3.3418,-3.3418,-3.3219,-3.2765,-3.1249,-2.9735,-2.8015,-2.6306,-2.5053,-2.3992,-2.3195,-2.2866,-2.2866,-2.2866,-2.2866,-2.2866,-2.2866,-2.2866,-2.2866,-2.2866,-2.2866,-4.0701,-3.9722,-3.9697,-3.9697,-3.9697,-3.9697,-3.9697,-3.9697,-3.9697,-3.9697,-3.9697,-3.9697,-3.9697,-3.9697,-3.9697,-3.9697,-3.9697,-3.9697,-3.9697,-3.9697,-3.9697,-3.9697,-3.9697,-3.9697,-3.9697,-3.9697,-3.9697,-3.9697,-3.9697,-3.9672,-3.9697,-3.9685,-3.9697,-3.9697,-3.9697,-3.9647,-3.9697,-3.9609,-3.9433,-3.9283,-3.9334,-3.8956,-3.812,-3.6912,-3.5987,-3.5001,-3.3431,-3.2893,-3.2075,-3.1556,-3.0892,-3.0741,-3.082,-3.0898,-3.0898,-3.0908,-3.0908,-3.1016,-3.1162,-3.1221,-3.1416,-3.1777,-3.1855,-3.206,-3.2393,-3.2666,-3.2891,-3.3105,-3.3213,-3.3418,-3.3418,-3.3418,-3.3418,-3.3418,-3.3418,-3.3418,-3.3418,-3.3418,-3.3418,-3.3418,-3.3418,-3.3418,-3.3418,-3.3418,-3.3418,-3.3418,-3.3418,-3.3418,-3.3418,-3.3418,-3.3418,-3.3418,-3.3418,-3.3418,-3.3418,-3.3418,-3.3418,-3.3029,-3.2365,-3.078,-2.927,-2.7553,-2.6039,-2.4783,-2.406,-2.3263,-2.2866,-2.2866,-2.2866,-2.2866,-2.2866,-2.2866,-2.2866,-2.2866,-2.2866,-4.0689,-3.9697,-3.9697,-3.9697,-3.9697,-3.9697,-3.9697,-3.9697,-3.9697,-3.9697,-3.9697,-3.9697,-3.9697,-3.9697,-3.9697,-3.9697,-3.9697,-3.9697,-3.9697,-3.9697,-3.9697,-3.9697,-3.9697,-3.9697,-3.9697,-3.9697,-3.9697,-3.9697,-3.9697,-3.9697,-3.9697,-3.9697,-3.9697,-3.9697,-3.9697,-3.9697,-3.9697,-3.9697,-3.9697,-3.9697,-3.9697,-3.9645,-3.9193,-3.7967,-3.769,-3.6148,-3.4072,-3.3223,-3.2256,-3.1439,-3.0908,-3.0879,-3.0889,-3.0898,-3.0937,-3.0996,-3.1006,-3.1221,-3.1406,-3.1641,-3.1836,-3.2246,-3.2295,-3.2529,-3.2793,-3.2978,-3.3086,-3.334,-3.3418,-3.3418,-3.3418,-3.3418,-3.3418,-3.3418,-3.3418,-3.3418,-3.3418,-3.3418,-3.3418,-3.3418,-3.3418,-3.3418,-3.3418,-3.3418,-3.3418,-3.3418,-3.3418,-3.3418,-3.3418,-3.3418,-3.3418,-3.3418,-3.3418,-3.3418,-3.3418,-3.3418,-3.3418,-3.3282,-3.2692,-3.1579,-3.0189,-2.8673,-2.7222,-2.5838,-2.4648,-2.3924,-2.3461,-2.2934,-2.2866,-2.2866,-2.2866,-2.2866,-2.2866,-2.2866,-2.2866,-4.0636,-3.9697,-3.9697,-3.9697,-3.9697,-3.9697,-3.9697,-3.9697,-3.9697,-3.9697,-3.9697,-3.9697,-3.9697,-3.9697,-3.9697,-3.9697,-3.9697,-3.9697,-3.9697,-3.9697,-3.9697,-3.9697,-3.9697,-3.9697,-3.9697,-3.9697,-3.9697,-3.9697,-3.9697,-3.9697,-3.9697,-3.9697,-3.9697,-3.9697,-3.9697,-3.9697,-3.9697,-3.9697,-3.9697,-3.9697,-3.9697,-3.9697,-3.9517,-3.8961,-3.8072,-3.6541,-3.4681,-3.3575,-3.2426,-3.117,-3.0898,-3.0898,-3.0898,-3.0898,-3.1113,-3.1318,-3.1445,-3.1475,-3.165,-3.1914,-3.2266,-3.2627,-3.2725,-3.2949,-3.3144,-3.3271,-3.331,-3.3379,-3.3418,-3.3418,-3.3418,-3.3418,-3.3418,-3.3418,-3.3418,-3.3418,-3.3418,-3.3418,-3.3418,-3.3418,-3.3418,-3.3418,-3.3418,-3.3418,-3.3418,-3.3418,-3.3418,-3.3418,-3.3418,-3.3418,-3.3418,-3.3418,-3.3418,-3.3418,-3.3418,-3.3418,-3.3418,-3.3418,-3.2956,-3.2365,-3.1304,-2.9921,-2.8476,-2.7089,-2.5838,-2.4581,-2.3856,-2.3393,-2.3065,-2.2866,-2.2866,-2.2866,-2.2866,-2.2866,-2.2866,-4.1166,-4.0136,-3.9823,-3.9697,-3.9697,-3.9697,-3.9697,-3.9697,-3.9697,-3.9697,-3.9697,-3.9697,-3.9697,-3.9697,-3.9697,-3.9697,-3.9697,-3.9697,-3.9697,-3.9697,-3.9697,-3.9697,-3.9697,-3.9697,-3.9697,-3.9697,-3.9697,-3.9697,-3.9697,-3.9697,-3.9697,-3.9697,-3.9697,-3.9697,-3.9697,-3.9697,-3.9697,-3.9697,-3.9697,-3.9697,-3.9697,-3.9633,-3.9297,-3.8518,-3.7849,-3.6325,-3.457,-3.3575,-3.2369,-3.1228,-3.0898,-3.0898,-3.0967,-3.1103,-3.1357,-3.1494,-3.2012,-3.2226,-3.2285,-3.2432,-3.2725,-3.3018,-3.3144,-3.3242,-3.3389,-3.3418,-3.3418,-3.3418,-3.3418,-3.3418,-3.3418,-3.3418,-3.3418,-3.3418,-3.3418,-3.3418,-3.3418,-3.3418,-3.3418,-3.3418,-3.3418,-3.3418,-3.3418,-3.3418,-3.3418,-3.3418,-3.3418,-3.3418,-3.3418,-3.3418,-3.3418,-3.3418,-3.3418,-3.3418,-3.3418,-3.3418,-3.3418,-3.3418,-3.3418,-3.2819,-3.2428,-3.124,-2.9856,-2.8279,-2.6831,-2.5644,-2.452,-2.3597,-2.2996,-2.2866,-2.2866,-2.2866,-2.2866,-2.2866,-2.2866,-4.1722,-4.0877,-4.0187,-3.9898,-3.9885,-3.9747,-3.9697,-3.9697,-3.9697,-3.9697,-3.9697,-3.9697,-3.9697,-3.9697,-3.9697,-3.9697,-3.9697,-3.9697,-3.9697,-3.9697,-3.9697,-3.9697,-3.9697,-3.9697,-3.9697,-3.9697,-3.9697,-3.9697,-3.9697,-3.9697,-3.9697,-3.9697,-3.9697,-3.9697,-3.9697,-3.9697,-3.9697,-3.9697,-3.9697,-3.9697,-3.9697,-3.9697,-3.9141,-3.836,-3.7465,-3.6259,-3.4069,-3.3191,-3.2369,-3.1228,-3.0898,-3.0937,-3.1103,-3.1328,-3.166,-3.1924,-3.2441,-3.2744,-3.2832,-3.2959,-3.3135,-3.3301,-3.3418,-3.3379,-3.3398,-3.3418,-3.3418,-3.3418,-3.3418,-3.3418,-3.3418,-3.3418,-3.3418,-3.3418,-3.3418,-3.3418,-3.3418,-3.3418,-3.3418,-3.3418,-3.3418,-3.3418,-3.3418,-3.3418,-3.3418,-3.3418,-3.3418,-3.3418,-3.3418,-3.3418,-3.3418,-3.3418,-3.3418,-3.3418,-3.3418,-3.3418,-3.3418,-3.3418,-3.3418,-3.3282,-3.2819,-3.2365,-3.1304,-2.9726,-2.8081,-2.6506,-2.5188,-2.3992,-2.2866,-2.2866,-2.2866,-2.2866,-2.2866,-2.2866,-2.2866,-4.2175,-4.2011,-4.089,-4.0438,-4.0388,-3.9898,-3.9697,-3.9697,-3.9697,-3.9697,-3.9697,-3.9697,-3.9697,-3.9697,-3.9697,-3.9697,-3.9697,-3.9697,-3.9697,-3.9697,-3.9697,-3.9697,-3.9697,-3.9697,-3.9697,-3.9697,-3.9697,-3.9697,-3.9697,-3.9697,-3.9697,-3.9697,-3.9697,-3.9697,-3.9697,-3.9697,-3.9697,-3.9697,-3.9697,-3.9697,-3.9697,-3.9697,-3.9478,-3.9077,-3.8072,-3.6703,-3.5123,-3.3631,-3.2369,-3.0957,-3.0967,-3.1103,-3.1338,-3.1611,-3.1982,-3.2432,-3.2715,-3.3018,-3.3193,-3.3271,-3.335,-3.3398,-3.3418,-3.3418,-3.3418,-3.3418,-3.3418,-3.3418,-3.3418,-3.3418,-3.3418,-3.3418,-3.3418,-3.3418,-3.3418,-3.3418,-3.3418,-3.3418,-3.3418,-3.3418,-3.3418,-3.3418,-3.3418,-3.3418,-3.3418,-3.3418,-3.3418,-3.3418,-3.3418,-3.3418,-3.3418,-3.3418,-3.3418,-3.3418,-3.3418,-3.3418,-3.3418,-3.3418,-3.3418,-3.3418,-3.3282,-3.2756,-3.2292,-3.1176,-2.9466,-2.7693,-2.5979,-2.4851,-2.3856,-2.3195,-2.2866,-2.2866,-2.2866,-2.2866,-2.2866,-4.266,-4.2559,-4.148,-4.0827,-4.0475,-3.9936,-3.9697,-3.9697,-3.9697,-3.9697,-3.9697,-3.9697,-3.9697,-3.9697,-3.9697,-3.9697,-3.9697,-3.9697,-3.9697,-3.9697,-3.9697,-3.9697,-3.9697,-3.9697,-3.9697,-3.9697,-3.9697,-3.9697,-3.9697,-3.9697,-3.9697,-3.9697,-3.9697,-3.9697,-3.9697,-3.9697,-3.9697,-3.9697,-3.9697,-3.9697,-3.9697,-3.9633,-3.9245,-3.8255,-3.6942,-3.5442,-3.3901,-3.2473,-3.1604,-3.1132,-3.1152,-3.1387,-3.165,-3.1992,-3.2402,-3.2803,-3.2998,-3.3223,-3.335,-3.3418,-3.3418,-3.3418,-3.3418,-3.3418,-3.3418,-3.3418,-3.3418,-3.3418,-3.3418,-3.3418,-3.3418,-3.3418,-3.3418,-3.3418,-3.3418,-3.3418,-3.3418,-3.3418,-3.3418,-3.3418,-3.3418,-3.3418,-3.3418,-3.3418,-3.3418,-3.3418,-3.3418,-3.3418,-3.3418,-3.3418,-3.3418,-3.3418,-3.3418,-3.3418,-3.3418,-3.3418,-3.3418,-3.3418,-3.3418,-3.3418,-3.3418,-3.3345,-3.2756,-3.1835,-3.1047,-2.9466,-2.7817,-2.6039,-2.4716,-2.3727,-2.3126,-2.2866,-2.2866,-2.2866,-2.2866,-4.2886,-4.2635,-4.1718,-4.1075,-4.0701,-3.9998,-3.9697,-3.9697,-3.9697,-3.9697,-3.9697,-3.9697,-3.9697,-3.9697,-3.9697,-3.9697,-3.9697,-3.9697,-3.9697,-3.9697,-3.9697,-3.9697,-3.9697,-3.9697,-3.9697,-3.9697,-3.9697,-3.9697,-3.9697,-3.9697,-3.9697,-3.9697,-3.9697,-3.9697,-3.9697,-3.9697,-3.9697,-3.9697,-3.9697,-3.9697,-3.9697,-3.9141,-3.8687,-3.7305,-3.5781,-3.4403,-3.3197,-3.2119,-3.1407,-3.1319,-3.1465,-3.1758,-3.206,-3.2402,-3.2803,-3.3037,-3.3213,-3.3408,-3.3418,-3.3418,-3.3418,-3.3418,-3.3418,-3.3418,-3.3418,-3.3418,-3.3418,-3.3418,-3.3418,-3.3418,-3.3418,-3.3418,-3.3418,-3.3418,-3.3418,-3.3418,-3.3418,-3.3418,-3.3418,-3.3418,-3.3418,-3.3418,-3.3418,-3.3418,-3.3418,-3.3418,-3.3418,-3.3418,-3.3418,-3.3418,-3.3418,-3.3418,-3.3418,-3.3418,-3.3418,-3.3418,-3.3418,-3.3418,-3.3418,-3.3418,-3.3418,-3.3418,-3.3355,-3.2692,-3.1899,-3.1111,-2.9392,-2.7156,-2.551,-2.4053,-2.3529,-2.2934,-2.2866,-2.2866,-2.2866,-4.2715,-4.2187,-4.1555,-4.1238,-4.1037,-4.0136,-3.9697,-3.9697,-3.9697,-3.9697,-3.9697,-3.9697,-3.9697,-3.9697,-3.9697,-3.9697,-3.9697,-3.9697,-3.9697,-3.9697,-3.9697,-3.9697,-3.9697,-3.9697,-3.9697,-3.9697,-3.971,-3.971,-3.9772,-3.9835,-3.9798,-3.9747,-3.976,-3.9697,-3.9697,-3.9697,-3.9697,-3.9697,-3.9697,-3.9697,-3.9478,-3.853,-3.7796,-3.7026,-3.4891,-3.3406,-3.3038,-3.2023,-3.1446,-3.1562,-3.1924,-3.2256,-3.2588,-3.2725,-3.3018,-3.332,-3.3369,-3.3418,-3.3418,-3.3418,-3.3418,-3.3418,-3.3418,-3.3418,-3.3418,-3.3418,-3.3418,-3.3418,-3.3418,-3.3418,-3.3418,-3.3418,-3.3418,-3.3418,-3.3418,-3.3418,-3.3418,-3.3418,-3.3418,-3.3418,-3.3418,-3.3418,-3.3418,-3.3418,-3.3418,-3.3418,-3.3418,-3.3418,-3.3418,-3.3418,-3.3418,-3.3418,-3.3418,-3.3418,-3.3418,-3.3418,-3.3418,-3.3418,-3.3418,-3.3418,-3.3418,-3.3418,-3.3355,-3.3228,-3.2692,-3.1771,-2.9986,-2.8015,-2.6172,-2.4324,-2.3461,-2.2934,-2.2934,-2.2866,-2.2866,-4.2389,-4.2125,-4.1178,-4.0736,-4.0689,-4.0011,-3.9697,-3.9697,-3.9697,-3.9697,-3.9697,-3.9697,-3.9697,-3.9697,-3.9697,-3.9697,-3.9697,-3.9697,-3.9697,-3.9697,-3.9722,-3.9697,-3.971,-3.976,-3.9747,-3.971,-3.9722,-3.9961,-4.0275,-4.0237,-4.0237,-4.0199,-3.9973,-3.971,-3.9697,-3.9697,-3.9697,-3.9697,-3.9697,-3.9645,-3.953,-3.8307,-3.737,-3.721,-3.4481,-3.3188,-3.3288,-3.2146,-3.1769,-3.1953,-3.2353,-3.2656,-3.2871,-3.2978,-3.3242,-3.3398,-3.3418,-3.3418,-3.3418,-3.3418,-3.3418,-3.3418,-3.3418,-3.3418,-3.3418,-3.3418,-3.3418,-3.3418,-3.3418,-3.3418,-3.3418,-3.3418,-3.3418,-3.3418,-3.3418,-3.3418,-3.3418,-3.3418,-3.3418,-3.3418,-3.3418,-3.3418,-3.3418,-3.3418,-3.3418,-3.3418,-3.3418,-3.3418,-3.3418,-3.3418,-3.3418,-3.3418,-3.3418,-3.3418,-3.3418,-3.3418,-3.3418,-3.3418,-3.3418,-3.3418,-3.3418,-3.3418,-3.3355,-3.3355,-3.2956,-3.2365,-3.0522,-2.8615,-2.6306,-2.4588,-2.3529,-2.2934,-2.2866,-2.2866,-2.2866,-4.2099,-4.1769,-4.0902,-4.04,-4.0187,-3.9835,-3.9697,-3.9697,-3.9697,-3.9697,-3.9697,-3.9697,-3.9697,-3.9697,-3.9697,-3.9697,-3.9697,-3.9697,-3.9697,-3.9735,-3.9923,-3.9998,-4.0011,-3.9998,-4.0224,-4.0124,-4.0099,-4.0262,-4.0777,-4.0814,-4.0802,-4.0701,-4.0438,-4.0425,-4.0312,-4.0212,-4.0023,-4.0036,-4.0049,-3.9573,-3.8733,-3.7554,-3.6472,-3.5545,-3.4008,-3.2694,-3.2837,-3.2525,-3.208,-3.2422,-3.2725,-3.2978,-3.3096,-3.3223,-3.3418,-3.3418,-3.3418,-3.3418,-3.3418,-3.3418,-3.3418,-3.3418,-3.3418,-3.3418,-3.3418,-3.3418,-3.3418,-3.3418,-3.3418,-3.3418,-3.3418,-3.3418,-3.3418,-3.3418,-3.3418,-3.3418,-3.3418,-3.3418,-3.3418,-3.3418,-3.3418,-3.3418,-3.3418,-3.3418,-3.3418,-3.3418,-3.3418,-3.3418,-3.3418,-3.3418,-3.3418,-3.3418,-3.3418,-3.3418,-3.3418,-3.3418,-3.3418,-3.3418,-3.3418,-3.3418,-3.3418,-3.3418,-3.3418,-3.3418,-3.3155,-3.2502,-3.1056,-2.9148,-2.6839,-2.4858,-2.3263,-2.2866,-2.2866,-2.2866,-2.2866,-4.1819,-4.1225,-4.0714,-4.0187,-3.9747,-3.9697,-3.9697,-3.9697,-3.9697,-3.971,-3.9747,-3.9785,-3.9885,-3.9848,-3.9823,-3.9885,-3.9936,-3.991,-3.9936,-4.0023,-4.0375,-4.0475,-4.0485,-4.0563,-4.0674,-4.0902,-4.0902,-4.0814,-4.1304,-4.1367,-4.1367,-4.1275,-4.11,-4.1141,-4.104,-4.0915,-4.0651,-4.0588,-4.0473,-3.968,-3.8424,-3.6645,-3.558,-3.4411,-3.297,-3.2356,-3.2402,-3.2493,-3.2656,-3.292,-3.3164,-3.332,-3.3398,-3.3408,-3.3418,-3.3418,-3.3418,-3.3418,-3.3418,-3.3418,-3.3418,-3.3418,-3.3418,-3.3418,-3.3418,-3.3418,-3.3418,-3.3418,-3.3418,-3.3418,-3.3418,-3.3418,-3.3418,-3.3418,-3.3418,-3.3418,-3.3418,-3.3418,-3.3418,-3.3418,-3.3418,-3.3418,-3.3418,-3.3418,-3.3418,-3.3418,-3.3418,-3.3418,-3.3418,-3.3418,-3.3418,-3.3418,-3.3418,-3.3418,-3.3418,-3.3418,-3.3418,-3.3418,-3.3418,-3.3418,-3.3418,-3.3418,-3.3418,-3.3418,-3.3418,-3.2428,-3.0337,-2.8755,-2.7296,-2.545,-2.3863,-2.3133,-2.3201,-2.2928,-2.2866,-4.1492,-4.1188,-4.0325,-3.9835,-3.971,-3.9697,-3.9697,-3.9697,-3.9697,-3.9873,-4.0262,-4.0287,-4.0413,-4.0786,-4.0824,-4.0774,-4.0774,-4.0877,-4.089,-4.0953,-4.0978,-4.1012,-4.105,-4.1116,-4.1188,-4.1213,-4.1291,-4.1379,-4.1806,-4.1919,-4.1919,-4.1894,-4.1656,-4.1681,-4.1756,-4.1756,-4.1455,-4.1216,-4.1153,-3.9834,-3.8402,-3.6869,-3.5509,-3.4014,-3.2715,-3.2338,-3.2578,-3.2734,-3.2939,-3.3232,-3.333,-3.3418,-3.3418,-3.3418,-3.3418,-3.3418,-3.3418,-3.3418,-3.3418,-3.3418,-3.3418,-3.3418,-3.3418,-3.3418,-3.3418,-3.3418,-3.3418,-3.3418,-3.3418,-3.3418,-3.3418,-3.3418,-3.3418,-3.3418,-3.3418,-3.3418,-3.3418,-3.3418,-3.3418,-3.3418,-3.3418,-3.3418,-3.3418,-3.3418,-3.3418,-3.3418,-3.3418,-3.3418,-3.3418,-3.3418,-3.3418,-3.3418,-3.3418,-3.3418,-3.3418,-3.3418,-3.3418,-3.3418,-3.3418,-3.3418,-3.3418,-3.3418,-3.3418,-3.3418,-3.3418,-3.1579,-2.8952,-2.8098,-2.8279,-2.6439,-2.4851,-2.406,-2.34,-2.3133,-2.2928,-4.1015,-4.089,-4.0061,-3.9697,-3.9697,-3.9697,-3.9697,-3.9697,-3.9697,-3.9998,-4.0488,-4.0501,-4.0827,-4.1175,-4.1213,-4.1213,-4.1213,-4.1163,-4.1175,-4.1279,-4.158,-4.1643,-4.1656,-4.1693,-4.1856,-4.1831,-4.1844,-4.1944,-4.2321,-4.2527,-4.2539,-4.2459,-4.2082,-4.2208,-4.2371,-4.2476,-4.2296,-4.202,-4.1496,-4.0172,-3.8627,-3.7144,-3.5689,-3.4058,-3.2759,-3.277,-3.2959,-3.3018,-3.3193,-3.3389,-3.3408,-3.3418,-3.3418,-3.3418,-3.3418,-3.3418,-3.3418,-3.3418,-3.3418,-3.3418,-3.3418,-3.3418,-3.3418,-3.3418,-3.3418,-3.3418,-3.3418,-3.3418,-3.3418,-3.3418,-3.3418,-3.3418,-3.3418,-3.3418,-3.3418,-3.3418,-3.3418,-3.3418,-3.3418,-3.3418,-3.3418,-3.3418,-3.3418,-3.3418,-3.3418,-3.3418,-3.3418,-3.3418,-3.3418,-3.3418,-3.3418,-3.3418,-3.3418,-3.3418,-3.3418,-3.3418,-3.3418,-3.3418,-3.3418,-3.3418,-3.3418,-3.3418,-3.3418,-3.3418,-3.3418,-3.1442,-2.954,-2.98,-2.9717,-2.7685,-2.5905,-2.4979,-2.4128,-2.34,-2.3133,-4.0538,-4.0488,-3.991,-3.9697,-3.9697,-3.9697,-3.9697,-3.9697,-3.9697,-4.0049,-4.0538,-4.0561,-4.1003,-4.1605,-4.1718,-4.1681,-4.1731,-4.1731,-4.1756,-4.1451,-4.202,-4.2263,-4.2275,-4.2288,-4.2384,-4.2652,-4.2678,-4.2434,-4.2798,-4.2886,-4.2848,-4.2986,-4.2873,-4.2836,-4.2811,-4.2848,-4.2748,-4.2647,-4.2002,-4.0849,-3.8136,-3.6576,-3.5612,-3.3474,-3.2891,-3.3008,-3.3281,-3.3398,-3.3418,-3.3418,-3.3418,-3.3418,-3.3418,-3.3418,-3.3418,-3.3418,-3.3418,-3.3418,-3.3418,-3.3418,-3.3418,-3.3418,-3.3418,-3.3418,-3.3418,-3.3418,-3.3418,-3.3418,-3.3418,-3.3418,-3.3418,-3.3418,-3.3418,-3.3418,-3.3418,-3.3418,-3.3418,-3.3418,-3.3418,-3.3418,-3.3418,-3.3418,-3.3418,-3.3418,-3.3418,-3.3418,-3.3418,-3.3418,-3.3418,-3.3418,-3.3418,-3.3418,-3.3418,-3.3418,-3.3418,-3.3418,-3.3418,-3.3418,-3.3418,-3.3418,-3.3418,-3.3418,-3.3418,-3.3418,-3.3345,-3.2355,-3.1102,-3.1304,-3.0578,-2.8484,-2.6906,-2.5972,-2.4979,-2.3924,-2.3195,-4.0526,-4.0463,-3.9923,-3.9697,-3.9697,-3.9697,-3.9697,-3.9697,-3.9697,-4.0237,-4.0949,-4.1137,-4.1656,-4.2371,-4.2446,-4.2446,-4.2472,-4.2346,-4.2547,-4.2497,-4.274,-4.2715,-4.2803,-4.2685,-4.2904,-4.2898,-4.2873,-4.2798,-4.2936,-4.2986,-4.2986,-4.2986,-4.2986,-4.2986,-4.2986,-4.2986,-4.2974,-4.2961,-4.2631,-4.1148,-3.8467,-3.7455,-3.6544,-3.4336,-3.3344,-3.3262,-3.3418,-3.3418,-3.3418,-3.3418,-3.3418,-3.3418,-3.3418,-3.3418,-3.3418,-3.3418,-3.3418,-3.3418,-3.3418,-3.3418,-3.3418,-3.3418,-3.3418,-3.3418,-3.3418,-3.3418,-3.3418,-3.3418,-3.3418,-3.3418,-3.3418,-3.3418,-3.3418,-3.3418,-3.3418,-3.3418,-3.3418,-3.3418,-3.3418,-3.3418,-3.3418,-3.3418,-3.3418,-3.3418,-3.3418,-3.3418,-3.3418,-3.3418,-3.3418,-3.3418,-3.3418,-3.3418,-3.3418,-3.3418,-3.3418,-3.3418,-3.3418,-3.3418,-3.3418,-3.3418,-3.3418,-3.3418,-3.3418,-3.3418,-3.3155,-3.2419,-3.2155,-3.2419,-3.1378,-2.954,-2.8163,-2.7362,-2.5711,-2.446,-2.3597,-4.0162,-4.0111,-3.9823,-3.9697,-3.9697,-3.9697,-3.9697,-3.9697,-3.9697,-4.0312,-4.1175,-4.1363,-4.1957,-4.2873,-4.2974,-4.2986,-4.2986,-4.2961,-4.2873,-4.2936,-4.2986,-4.2949,-4.2986,-4.2986,-4.2961,-4.2986,-4.2986,-4.2961,-4.2986,-4.2986,-4.2986,-4.2986,-4.2986,-4.2986,-4.2986,-4.2986,-4.2986,-4.2986,-4.2986,-4.1602,-3.9229,-3.8391,-3.7133,-3.5036,-3.3902,-3.366,-3.3418,-3.3418,-3.3418,-3.3418,-3.3418,-3.3418,-3.3418,-3.3418,-3.3418,-3.3418,-3.3418,-3.3418,-3.3418,-3.3418,-3.3418,-3.3418,-3.3418,-3.3418,-3.3418,-3.3418,-3.3418,-3.3418,-3.3418,-3.3418,-3.3418,-3.3418,-3.3418,-3.3418,-3.3418,-3.3418,-3.3418,-3.3418,-3.3418,-3.3418,-3.3418,-3.3418,-3.3418,-3.3418,-3.3418,-3.3418,-3.3418,-3.3418,-3.3418,-3.3418,-3.3418,-3.3418,-3.3418,-3.3418,-3.3418,-3.3418,-3.3418,-3.3418,-3.3418,-3.3418,-3.3418,-3.3418,-3.3418,-3.3418,-3.3282,-3.3019,-3.2956,-3.3019,-3.2956,-3.1634,-3.0189,-2.8878,-2.6964,-2.4993,-2.406,-3.9722,-3.9697,-3.9697,-3.9697,-3.9697,-3.9697,-3.9697,-3.9697,-3.971,-4.0312,-4.12,-4.1275,-4.2007,-4.2672,-4.2986,-4.2986,-4.2986,-4.2986,-4.2986,-4.2986,-4.2986,-4.2986,-4.2986,-4.2986,-4.2986,-4.2986,-4.2986,-4.2986,-4.2986,-4.2986,-4.2986,-4.2986,-4.2986,-4.2986,-4.2986,-4.2986,-4.2986,-4.2986,-4.2806,-4.2263,-4.0765,-3.9276,-3.7604,-3.599,-3.456,-3.366,-3.3471,-3.3418,-3.3418,-3.3418,-3.3418,-3.3418,-3.3418,-3.3418,-3.3418,-3.3418,-3.3418,-3.3418,-3.3418,-3.3418,-3.3418,-3.3418,-3.3418,-3.3418,-3.3418,-3.3418,-3.3418,-3.3418,-3.3418,-3.3418,-3.3418,-3.3418,-3.3418,-3.3418,-3.3418,-3.3418,-3.3418,-3.3418,-3.3418,-3.3418,-3.3418,-3.3418,-3.3418,-3.3418,-3.3418,-3.3418,-3.3418,-3.3418,-3.3418,-3.3418,-3.3418,-3.3418,-3.3418,-3.3418,-3.3418,-3.3418,-3.3418,-3.3418,-3.3418,-3.3418,-3.3418,-3.3418,-3.3418,-3.3418,-3.3282,-3.3155,-3.3219,-3.3282,-3.3155,-3.2756,-3.1368,-2.9466,-2.7164,-2.5383,-2.446,-3.9697,-3.9697,-3.9697,-3.9697,-3.9697,-3.9697,-3.9697,-3.9697,-3.971,-4.0312,-4.1075,-4.1363,-4.1944,-4.2986,-4.2986,-4.2986,-4.2986,-4.2986,-4.2986,-4.2986,-4.2986,-4.2986,-4.2986,-4.2986,-4.2986,-4.2986,-4.2986,-4.2986,-4.2986,-4.2986,-4.2986,-4.2986,-4.2986,-4.2986,-4.2986,-4.2986,-4.2986,-4.2986,-4.2986,-4.2625,-4.2263,-4.065,-3.8439,-3.6881,-3.5509,-3.4497,-3.3839,-3.3418,-3.3418,-3.3418,-3.3418,-3.3418,-3.3418,-3.3418,-3.3418,-3.3418,-3.3418,-3.3418,-3.3418,-3.3418,-3.3418,-3.3418,-3.3418,-3.3418,-3.3418,-3.3418,-3.3418,-3.3418,-3.3418,-3.3418,-3.3418,-3.3418,-3.3418,-3.3418,-3.3418,-3.3418,-3.3418,-3.3418,-3.3418,-3.3418,-3.3418,-3.3418,-3.3418,-3.3418,-3.3418,-3.3418,-3.3418,-3.3418,-3.3418,-3.3418,-3.3418,-3.3418,-3.3418,-3.3418,-3.3418,-3.3418,-3.3418,-3.3418,-3.3418,-3.3418,-3.3418,-3.3418,-3.3418,-3.3418,-3.3418,-3.3345,-3.3355,-3.3418,-3.2756,-3.2292,-3.1433,-2.9856,-2.7693,-2.6373,-2.5845]},{"header":{"parameterUnit":"m.s-1","parameterCategory":1,"la1":31.0,"la2":29.5877,"lo1":-88.7671,"lo2":-86.6584,"dy":0.0162,"dx":0.0185,"nx":115,"ny":88,"refTime":"2024-08-28T12:00:00:Z","depth":0,"parameterNumber":3,"parameterNumberName":"V-component_of_WINDS"},"data":[0.0,0.0,0.0,0.0,0.0,0.0,0.0,0.0,0.0,0.0,0.0,0.0,0.0,0.0,0.0,0.0,0.0,0.0,0.0,0.0,0.0,0.0,0.0,0.0,0.0,0.0,0.0,0.0,0.0,0.0,0.0,0.0,0.0,0.0,0.0,0.0,0.0,0.0,0.0,0.0,0.0,0.0,0.0,0.0,0.0,0.0,0.0,0.0,0.0,0.0,0.0,0.0,0.0,0.0,0.0,0.0,0.0,0.0,0.0,0.0,0.0,0.0,0.0,0.0,0.0,0.0,0.0,0.0,0.0,0.0,0.0,0.0,0.0,0.0,0.0,0.0,0.0,0.0,0.0,0.0,0.0,0.0,0.0,0.0,0.0,0.0,0.0,0.0,0.0,0.0,0.0,0.0,0.0,0.0,0.0,0.0,0.0,0.0,0.0,0.0,0.0,0.0,0.0,0.0,0.0,0.0,0.0,0.0,0.0,0.0,0.0,0.0,0.0,0.0,0.0,0.0,0.0,0.0,0.0,0.0,0.0,0.0,0.0,0.0,0.0,0.0,0.0,0.0,0.0,0.0,0.0,0.0,0.0,0.0,0.0,0.0,0.0,0.0,0.0,0.0,0.0,0.0,0.0,0.0,0.0,0.0,0.0,0.0,0.0,0.0,0.0,0.0,0.0,0.0,0.0,0.0,0.0,0.0,0.0,0.0,0.0,0.0,0.0,0.0,0.0,0.0,0.0,0.0,0.0,0.0,0.0,0.0,0.0,0.0,0.0,0.0,0.0,0.0,0.0,0.0,0.0,0.0,0.0,0.0,0.0,0.0,0.0,0.0,0.0,0.0,0.0,0.0,0.0,0.0,0.0,0.0,0.0,0.0,0.0,0.0,0.0,0.0,0.0,0.0,0.0,0.0,0.0,0.0,0.0,0.0,0.0,0.0,0.0,0.0,0.0,0.0,0.0,0.0,0.0,0.0,0.0,0.0,0.0,0.0,0.0,0.0,0.0,0.0,0.0,0.0,0.0,0.0,0.0,0.0,0.0,0.0,0.0,0.0,0.0,0.0,0.0,0.0,0.0,0.0,0.0,0.0,0.0,0.0,0.0,0.0,0.0,0.0,0.0,0.0,0.0,0.0,0.0,0.0,0.0,0.0,0.0,0.0,0.0,0.0,0.0,0.0,0.0,0.0,0.0,0.0,0.0,0.0,0.0,0.0,0.0,0.0,0.0,0.0,0.0,0.0,0.0,0.0,0.0,0.0,0.0,0.0,0.0,0.0,0.0,0.0,0.0,0.0,0.0,0.0,0.0,0.0,0.0,0.0,0.0,0.0,0.0,0.0,0.0,0.0,0.0,0.0,0.0,0.0,0.0,0.0,0.0,0.0,0.0,0.0,0.0,0.0,0.0,0.0,0.0,0.0,0.0,0.0,0.0,0.0,0.0,0.0,0.0,0.0,0.0,0.0,0.0,0.0,0.0,0.0,0.0,0.0,0.0,0.0,0.0,0.0,0.0,0.0,0.0,0.0,0.0,0.0,0.0,0.0,0.0,0.0,0.0,0.0,0.0,0.0,0.0,0.0,0.0,0.0,0.0,0.0,0.0,0.0,0.0,0.0,0.0,0.0,0.0,0.0,0.0,0.0,0.0,0.0,0.0,0.0,0.0,0.0,0.0,0.0,0.0,0.0,0.0,0.0,0.0,0.0,0.0,0.0,0.0,0.0,0.0,0.0,0.0,0.0,0.0,0.0,0.0,0.0,0.0,0.0,0.0,0.0,0.0,0.0,0.0,0.0,0.0,0.0,0.0,0.0,0.0,0.0,0.0,0.0,0.0,0.0,0.0,0.0,0.0,0.0,0.0,0.0,0.0,0.0,0.0,0.0,0.0,0.0,0.0,0.0,0.0,0.0,0.0,0.0,0.0,0.0,0.0,0.0,0.0,0.0,0.0,0.0,0.0,0.0,0.0,0.0,0.0,0.0,0.0,0.0,0.0,0.0,0.0,0.0,0.0,0.0,0.0,0.0,0.0,0.0,0.0,0.0,0.0,0.0,0.0,0.0,0.0,0.0,0.0,0.0,0.0,0.0,0.0,0.0,0.0,0.0,0.0,0.0,0.0,0.0,0.0,0.0,0.0,0.0,0.0,0.0,0.0,0.0,0.0,0.0,0.0,0.0,0.0,0.0,0.0,0.0,0.0,0.0,0.0,0.0,0.0,0.0,0.0,0.0,0.0,0.0,0.0,0.0,0.0,0.0,0.0,0.0,0.0,0.0,0.0,0.0,0.0,0.0,0.0,0.0,0.0,0.0,0.0,0.0,0.0,0.0,0.0,0.0,0.0,0.0,0.0,0.0,0.0,0.0,0.0,0.0,0.0,0.0,0.0,0.0,0.0,0.0,0.0,0.0,0.0,0.0,0.0,0.0,0.0,0.0,0.0,0.0,0.0,0.0,0.0,0.0,0.0,0.0,0.0,0.0,0.0,0.0,0.0,0.0,0.0,0.0,0.0,0.0,0.0,0.0,0.0,0.0,0.0,0.0,0.0,0.0,0.0,0.0,0.0,0.0,0.0,0.0,0.0,0.0,0.0,0.0,0.0,0.0,0.0,0.0,0.0,0.0,0.0,0.0,0.0,0.0,0.0,0.0,0.0,0.0,0.0,0.0,0.0,0.0,0.0,0.0,0.0,0.0,0.0,0.0,0.0,0.0,0.0,0.0,0.0,0.0,0.0,0.0,0.0,0.0,0.0,0.0,0.0,0.0,0.0,0.0,0.0,0.0,0.0,0.0,0.0,0.0,0.0,0.0,0.0,0.0,0.0,0.0,0.0,0.0,0.0,0.0,0.0,0.0,0.0,0.0,0.0,0.0,0.0,0.0,0.0,0.0,0.0,0.0,0.0,0.0,0.0,0.0,0.0,0.0,0.0,0.0,0.0,0.0,0.0,0.0,0.0,0.0,0.0,0.0,0.0,0.0,0.0,0.0,0.0,0.0,0.0,0.0,0.0,0.0,0.0,0.0,0.0,0.0,0.0,0.0,0.0,0.0,0.0,0.0,0.0,0.0,0.0,0.0,0.0,0.0,0.0,0.0,0.0,0.0,0.0,0.0,0.0,0.0,0.0,0.0,0.0,0.0,0.0,0.0,0.0,0.0,0.0,0.0,0.0,0.0,0.0,0.0,0.0,0.0,0.0,0.0,0.0,0.0,0.0,0.0,0.0,0.0,0.0,0.0,0.0,0.0,0.0,0.0,0.0,0.0,0.0,0.0,0.0,0.0,0.0,0.0,0.0,0.0,0.0,0.0,0.0,0.0,0.0,0.0,0.0,0.0,0.0,0.0,0.0,0.0,0.0,0.0,0.0,0.0,0.0,0.0,0.0,0.0,0.0,0.0,0.0,0.0,0.0,0.0,0.0,0.0,0.0,0.0,0.0,0.0,0.0,0.0,0.0,0.0,0.0,0.0,0.0,0.0,0.0,0.0,0.0,0.0,0.0,0.0,0.0,0.0,0.0,0.0,0.0,0.0,0.0,0.0,0.0,0.0,0.0,0.0,0.0,0.0,0.0,0.0,0.0,0.0,0.0,0.0,0.0,0.0,0.0,0.0,0.0,0.0,0.0,0.0,0.0,0.0,0.0,0.0,0.0,0.0,0.0,0.0,0.0,0.0,0.0,0.0,0.0,0.0,0.0,0.0,0.0,0.0,0.0,0.0,0.0,0.0,0.0,0.0,0.0,0.0,0.0,0.0,0.0,0.0,0.0,0.0,0.0,0.0,0.0,0.0,0.0,0.0,0.0,0.0,0.0,0.0,0.0,0.0,0.0,0.0,0.0,0.0,0.0,0.0,0.0,0.0,0.0,0.0,0.0,0.0,0.0,0.0,0.0,0.0,0.0,0.0,0.0,0.0,0.0,0.0,0.0,0.0,0.0,0.0,0.0,0.0,0.0,0.0,0.0,0.0,0.0,0.0,0.0,0.0,0.0,0.0,0.0,0.0,0.0,0.0,0.0,0.0,0.0,0.0,0.0,0.0,0.0,0.0,0.0,0.0,0.0,0.0,0.0,0.0,0.0,0.0,0.0,0.0,0.0,0.0,0.0,0.0,0.0,0.0,0.0,0.0,0.0,0.0,0.0,0.0,0.0,0.0,0.0,0.0,0.0,0.0,0.0,0.0,0.0,0.0,0.0,0.0,0.0,0.0,0.0,0.0,0.0,0.0,0.0,0.0,0.0,0.0,0.0,0.0,0.0,0.0,0.0,0.0,0.0,0.0,0.0,0.0,0.0,0.0,1.9048,0.0,0.0,0.0,0.0,0.0,0.0,0.0,0.0,0.0,0.0,0.0,0.0,0.0,0.0,0.0,0.0,0.0,0.0,0.0,0.0,0.0,0.0,0.0,0.0,0.0,0.0,0.0,0.0,0.0,0.0,0.0,0.0,0.0,0.0,0.0,0.0,0.0,0.0,0.0,0.0,0.0,0.0,0.0,0.0,0.0,0.0,0.0,0.0,0.0,0.0,0.0,0.0,0.0,0.0,0.0,0.0,0.0,0.0,0.0,0.0,0.0,0.0,0.0,0.0,0.0,0.0,0.0,0.0,0.0,0.0,0.0,0.0,0.0,0.0,0.0,0.0,0.0,0.0,0.0,0.0,0.0,0.0,0.0,0.0,0.0,0.0,0.0,0.0,0.0,0.0,0.0,0.0,0.0,0.0,0.0,0.0,0.0,0.0,0.0,0.0,0.0,0.0,0.0,0.0,0.0,0.0,0.0,0.0,0.0,0.0,2.0413,2.0365,2.035,2.0151,1.9741,0.0,0.0,0.0,0.0,0.0,0.0,0.0,0.0,0.0,0.0,0.0,0.0,0.0,0.0,0.0,0.0,0.0,0.0,0.0,0.0,0.0,0.0,0.0,0.0,0.0,0.0,0.0,0.0,0.0,0.0,0.0,0.0,0.0,0.0,0.0,0.0,0.0,0.0,0.0,0.0,0.0,0.0,0.0,0.0,0.0,0.0,0.0,0.0,0.0,0.0,0.0,0.0,0.0,0.0,0.0,0.0,0.0,0.0,0.0,0.0,0.0,0.0,0.0,0.0,0.0,0.0,0.0,0.0,0.0,0.0,0.0,0.0,0.0,0.0,0.0,0.0,0.0,0.0,0.0,0.0,0.0,0.0,0.0,0.0,0.0,0.0,0.0,0.0,0.0,0.0,0.0,0.0,0.0,0.0,0.0,0.0,0.0,0.0,0.0,0.0,0.0,0.0,0.0,0.0,0.0,0.0,0.0,0.0,0.0,0.0,0.0,0.0,2.0418,2.0396,2.0324,0.0,0.0,0.0,0.0,0.0,0.0,0.0,0.0,0.0,0.0,0.0,0.0,0.0,0.0,0.0,0.0,0.0,0.0,0.0,0.0,0.0,0.0,0.0,0.0,0.0,0.0,0.0,0.0,0.0,0.0,0.0,0.0,0.0,0.0,0.0,0.0,0.0,0.0,0.0,0.0,0.0,0.0,0.0,0.0,0.0,0.0,0.0,0.0,0.0,0.0,0.0,0.0,0.0,0.0,0.0,0.0,0.0,0.0,0.0,0.0,0.0,0.0,0.0,0.0,0.0,0.0,0.0,0.0,0.0,0.0,0.0,0.0,0.0,0.0,0.0,0.0,0.0,0.0,0.0,0.0,0.0,0.0,0.0,0.0,0.0,0.0,0.0,0.0,0.0,0.0,0.0,0.0,0.0,0.0,0.0,0.0,0.0,0.0,0.0,0.0,0.0,0.0,0.0,0.0,0.0,0.0,0.0,0.0,0.0,0.0,2.0505,2.0502,2.0489,0.0,2.041,0.0,0.0,0.0,0.0,0.0,0.0,0.0,0.0,0.0,0.0,0.0,0.0,0.0,0.0,0.0,0.0,0.0,0.0,0.0,0.0,0.0,0.0,0.0,0.0,0.0,0.0,0.0,0.0,0.0,0.0,0.0,0.0,0.0,0.0,0.0,0.0,0.0,0.0,0.0,0.0,0.0,0.0,0.0,0.0,0.0,0.0,0.0,0.0,0.0,0.0,0.0,0.0,0.0,0.0,0.0,0.0,0.0,0.0,0.0,0.0,0.0,0.0,0.0,0.0,0.0,0.0,0.0,0.0,0.0,0.0,0.0,0.0,0.0,0.0,0.0,0.0,0.0,0.0,0.0,0.0,0.0,0.0,0.0,0.0,0.0,0.0,0.0,0.0,0.0,0.0,0.0,0.0,0.0,0.0,0.0,0.0,0.0,0.0,0.0,0.0,0.0,0.0,0.0,0.0,0.0,0.0,0.0,0.0,0.0,0.0,2.0537,2.05,2.0515,2.047,0.0,0.0,0.0,0.0,0.0,0.0,0.0,0.0,0.0,0.0,0.0,0.0,0.0,0.0,0.0,0.0,0.0,0.0,0.0,0.0,0.0,0.0,0.0,0.0,0.0,0.0,0.0,0.0,0.0,0.0,0.0,0.0,0.0,0.0,0.0,0.0,0.0,0.0,0.0,0.0,0.0,0.0,0.0,0.0,0.0,0.0,0.0,0.0,0.0,0.0,0.0,0.0,0.0,0.0,0.0,0.0,0.0,0.0,0.0,0.0,0.0,0.0,0.0,0.0,0.0,0.0,0.0,0.0,0.0,0.0,0.0,0.0,0.0,0.0,0.0,0.0,0.0,0.0,0.0,0.0,0.0,0.0,0.0,0.0,0.0,0.0,0.0,0.0,0.0,0.0,0.0,0.0,0.0,0.0,0.0,0.0,0.0,0.0,0.0,0.0,0.0,0.0,0.0,0.0,0.0,0.0,0.0,0.0,0.0,0.0,2.0599,2.0575,2.0545,2.0501,2.0381,2.0116,0.0,0.0,0.0,0.0,0.0,0.0,0.0,0.0,0.0,0.0,0.0,0.0,0.0,0.0,0.0,0.0,0.0,0.0,0.0,0.0,0.0,0.0,0.0,0.0,0.0,0.0,0.0,0.0,0.0,0.0,0.0,0.0,0.0,0.0,0.0,0.0,0.0,0.0,0.0,0.0,0.0,0.0,0.0,0.0,0.0,0.0,0.0,0.0,0.0,0.0,0.0,0.0,0.0,0.0,0.0,0.0,0.0,0.0,0.0,0.0,0.0,0.0,0.0,0.0,0.0,0.0,0.0,0.0,0.0,0.0,0.0,0.0,0.0,0.0,0.0,0.0,0.0,0.0,0.0,0.0,0.0,0.0,0.0,0.0,0.0,0.0,0.0,0.0,0.0,0.0,0.0,0.0,0.0,0.0,0.0,0.0,0.0,0.0,0.0,0.0,0.0,0.0,0.0,0.0,0.0,0.0,0.0,0.0,2.0605,2.0605,2.0603,2.0599,2.0547,2.0147,0.0,0.0,0.0,0.0,0.0,0.0,0.0,0.0,0.0,0.0,0.0,0.0,0.0,0.0,0.0,0.0,0.0,0.0,0.0,0.0,0.0,0.0,0.0,0.0,0.0,0.0,0.0,0.0,0.0,0.0,0.0,0.0,0.0,0.0,0.0,0.0,0.0,0.0,0.0,0.0,0.0,0.0,0.0,0.0,0.0,0.0,0.0,0.0,0.0,0.0,0.0,0.0,0.0,0.0,0.0,0.0,0.0,0.0,0.0,0.0,0.0,0.0,0.0,0.0,0.0,0.0,0.0,0.0,0.0,0.0,0.0,0.0,0.0,0.0,0.0,0.0,0.0,0.0,0.0,0.0,0.0,0.0,0.0,0.0,0.0,0.0,0.0,0.0,0.0,0.0,0.0,0.0,0.0,0.0,0.0,0.0,0.0,0.0,0.0,0.0,0.0,0.0,0.0,0.0,0.0,0.0,0.0,0.0,0.0,2.0604,2.0605,2.0605,2.0603,2.0578,2.0164,0.0,0.0,0.0,0.0,0.0,0.0,0.0,0.0,0.0,0.0,0.0,0.0,0.0,0.0,0.0,0.0,0.0,0.0,0.0,0.0,0.0,0.0,0.0,0.0,0.0,0.0,0.0,0.0,0.0,0.0,0.0,0.0,0.0,0.0,0.0,0.0,0.0,0.0,0.0,0.0,0.0,0.0,0.0,0.0,0.0,0.0,0.0,0.0,0.0,0.0,0.0,0.0,0.0,0.0,0.0,0.0,0.0,0.0,0.0,0.0,0.0,0.0,0.0,0.0,0.0,0.0,0.0,0.0,0.0,0.0,0.0,0.0,0.0,0.0,0.0,0.0,0.0,0.0,0.0,0.0,0.0,0.0,0.0,0.0,0.0,0.0,0.0,0.0,0.0,0.0,0.0,0.0,0.0,0.0,0.0,0.0,0.0,0.0,0.0,0.0,0.0,0.0,0.0,0.0,0.0,0.0,0.0,0.0,0.0,2.0967,0.0,2.0996,0.0,2.1015,2.0466,0.0,0.0,0.0,0.0,0.0,0.0,0.0,0.0,0.0,0.0,0.0,0.0,0.0,0.0,0.0,0.0,0.0,0.0,0.0,0.0,0.0,0.0,0.0,0.0,0.0,0.0,0.0,0.0,0.0,0.0,0.0,0.0,0.0,0.0,0.0,0.0,0.0,0.0,0.0,0.0,0.0,0.0,0.0,0.0,0.0,0.0,0.0,0.0,0.0,0.0,0.0,0.0,0.0,0.0,0.0,0.0,0.0,0.0,0.0,0.0,0.0,0.0,0.0,0.0,0.0,0.0,0.0,0.0,0.0,0.0,0.0,0.0,0.0,0.0,0.0,0.0,0.0,0.0,0.0,0.0,0.0,0.0,0.0,0.0,0.0,0.0,0.0,0.0,0.0,0.0,0.0,0.0,0.0,0.0,0.0,0.0,0.0,0.0,0.0,0.0,0.0,0.0,0.0,0.0,0.0,0.0,0.0,0.0,2.0965,2.1764,2.184,2.1888,2.1832,2.1894,2.1113,0.0,0.0,0.0,0.0,0.0,0.0,0.0,0.0,0.0,0.0,0.0,0.0,0.0,0.0,0.0,0.0,0.0,0.0,0.0,0.0,0.0,0.0,0.0,0.0,0.0,0.0,0.0,0.0,0.0,0.0,0.0,0.0,0.0,0.0,0.0,0.0,0.0,0.0,0.0,0.0,0.0,0.0,0.0,0.0,0.0,0.0,0.0,0.0,0.0,0.0,0.0,0.0,0.0,0.0,0.0,0.0,0.0,0.0,0.0,0.0,0.0,0.0,0.0,0.0,0.0,0.0,0.0,0.0,0.0,0.0,0.0,0.0,0.0,0.0,0.0,0.0,0.0,0.0,0.0,0.0,0.0,0.0,0.0,0.0,0.0,0.0,0.0,0.0,0.0,0.0,0.0,0.0,0.0,0.0,0.0,0.0,0.0,0.0,0.0,0.0,0.0,0.0,0.0,0.0,0.0,0.0,0.0,0.0,0.0,2.2623,2.3263,2.3592,2.3579,2.3023,2.1933,0.0,0.0,0.0,0.0,0.0,0.0,0.0,0.0,0.0,0.0,0.0,0.0,0.0,0.0,0.0,0.0,0.0,0.0,0.0,0.0,0.0,0.0,0.0,0.0,0.0,0.0,0.0,0.0,0.0,0.0,0.0,0.0,0.0,0.0,0.0,0.0,0.0,0.0,0.0,0.0,0.0,0.0,0.0,0.0,0.0,0.0,0.0,0.0,0.0,0.0,0.0,0.0,0.0,0.0,0.0,0.0,0.0,0.0,0.0,0.0,0.0,0.0,0.0,0.0,0.0,0.0,0.0,0.0,0.0,0.0,0.0,0.0,0.0,0.0,0.0,0.0,0.0,0.0,0.0,0.0,0.0,0.0,0.0,0.0,0.0,0.0,0.0,0.0,0.0,0.0,0.0,0.0,0.0,0.0,0.0,0.0,0.0,0.0,0.0,0.0,0.0,0.0,0.0,0.0,0.0,0.0,0.0,0.0,0.0,2.5754,2.5803,2.58,2.5783,2.4972,2.3593,2.1601,0.0,0.0,0.0,0.0,0.0,0.0,0.0,0.0,0.0,0.0,0.0,0.0,0.0,0.0,0.0,0.0,0.0,0.0,0.0,0.0,0.0,0.0,0.0,0.0,0.0,0.0,0.0,0.0,0.0,0.0,0.0,0.0,0.0,0.0,0.0,0.0,0.0,0.0,0.0,0.0,0.0,0.0,0.0,0.0,0.0,0.0,0.0,0.0,0.0,0.0,0.0,0.0,0.0,0.0,0.0,0.0,0.0,0.0,0.0,0.0,0.0,0.0,0.0,0.0,0.0,0.0,0.0,0.0,0.0,0.0,0.0,0.0,0.0,0.0,0.0,0.0,0.0,0.0,0.0,0.0,0.0,0.0,0.0,0.0,0.0,0.0,0.0,0.0,0.0,0.0,0.0,0.0,0.0,0.0,0.0,0.0,0.0,0.0,0.0,0.0,0.0,0.0,0.0,0.0,0.0,0.0,0.0,0.0,3.0593,2.9362,2.8628,2.8385,2.7624,2.5996,0.0,0.0,0.0,0.0,0.0,0.0,0.0,0.0,0.0,0.0,0.0,0.0,0.0,0.0,0.0,0.0,0.0,0.0,0.0,0.0,0.0,0.0,0.0,0.0,0.0,0.0,0.0,0.0,0.0,0.0,0.0,0.0,0.0,0.0,0.0,0.0,0.0,0.0,0.0,0.0,0.0,0.0,0.0,0.0,0.0,0.0,0.0,0.0,0.0,0.0,0.0,0.0,0.0,0.0,0.0,0.0,0.0,0.0,0.0,0.0,0.0,0.0,0.0,0.0,0.0,0.0,0.0,0.0,0.0,0.0,0.0,0.0,0.0,0.0,0.0,0.0,0.0,0.0,0.0,0.0,0.0,0.0,0.0,0.0,0.0,0.0,0.0,0.0,0.0,0.0,0.0,0.0,0.0,0.0,0.0,0.0,0.0,0.0,0.0,0.0,0.0,0.0,0.0,0.0,0.0,0.0,0.0,0.0,0.0,3.2257,3.3824,3.3736,3.1918,3.0568,2.8652,0.0,0.0,0.0,0.0,0.0,0.0,0.0,0.0,0.0,0.0,0.0,0.0,0.0,0.0,0.0,0.0,0.0,0.0,0.0,0.0,0.0,0.0,0.0,0.0,0.0,0.0,0.0,0.0,0.0,0.0,0.0,0.0,0.0,0.0,0.0,0.0,0.0,0.0,0.0,0.0,0.0,0.0,0.0,0.0,0.0,0.0,0.0,0.0,0.0,0.0,0.0,0.0,0.0,0.0,0.0,0.0,0.0,0.0,0.0,0.0,0.0,0.0,0.0,0.0,0.0,0.0,0.0,0.0,0.0,0.0,0.0,0.0,0.0,0.0,0.0,0.0,0.0,0.0,0.0,0.0,0.0,0.0,0.0,0.0,0.0,0.0,0.0,0.0,0.0,0.0,0.0,0.0,0.0,0.0,0.0,0.0,0.0,0.0,0.0,0.0,0.0,0.0,0.0,0.0,0.0,0.0,0.0,0.0,3.2229,3.5053,3.6961,3.7453,3.6411,3.3473,3.0718,0.0,0.0,0.0,0.0,0.0,0.0,0.0,0.0,0.0,0.0,0.0,0.0,0.0,0.0,0.0,0.0,0.0,0.0,0.0,0.0,0.0,0.0,0.0,0.0,0.0,0.0,0.0,0.0,0.0,0.0,0.0,0.0,0.0,0.0,0.0,0.0,0.0,0.0,0.0,0.0,0.0,0.0,0.0,0.0,0.0,0.0,0.0,0.0,0.0,0.0,0.0,0.0,0.0,0.0,0.0,0.0,0.0,0.0,0.0,0.0,0.0,0.0,0.0,0.0,0.0,0.0,0.0,0.0,0.0,0.0,0.0,0.0,0.0,0.0,0.0,0.0,0.0,0.0,0.0,0.0,0.0,0.0,0.0,0.0,0.0,0.0,0.0,0.0,0.0,0.0,0.0,0.0,0.0,0.0,0.0,0.0,0.0,0.0,0.0,0.0,0.0,0.0,0.0,0.0,0.0,0.0,0.0,0.0,3.4847,3.8038,3.9232,4.0167,4.0745,3.6217,3.2479,0.0,0.0,0.0,0.0,0.0,0.0,0.0,0.0,0.0,0.0,0.0,0.0,0.0,0.0,0.0,0.0,0.0,0.0,0.0,0.0,0.0,0.0,0.0,0.0,0.0,0.0,0.0,0.0,0.0,0.0,0.0,0.0,0.0,0.0,0.0,0.0,0.0,0.0,0.0,0.0,0.0,0.0,0.0,0.0,0.0,0.0,0.0,0.0,0.0,0.0,0.0,0.0,0.0,0.0,0.0,0.0,0.0,0.0,0.0,0.0,0.0,0.0,0.0,0.0,0.0,0.0,0.0,0.0,0.0,0.0,0.0,0.0,0.0,0.0,0.0,0.0,0.0,0.0,0.0,0.0,0.0,0.0,0.0,0.0,0.0,0.0,0.0,0.0,0.0,0.0,0.0,0.0,0.0,0.0,0.0,0.0,0.0,0.0,0.0,0.0,0.0,0.0,0.0,0.0,0.0,0.0,0.0,0.0,3.6273,3.8972,4.117,4.2121,4.1726,3.8192,3.4799,0.0,0.0,0.0,0.0,0.0,0.0,0.0,0.0,0.0,0.0,0.0,0.0,0.0,0.0,0.0,0.0,0.0,0.0,0.0,0.0,0.0,0.0,0.0,0.0,0.0,0.0,0.0,0.0,0.0,0.0,0.0,0.0,0.0,0.0,0.0,0.0,0.0,0.0,0.0,0.0,0.0,0.0,0.0,0.0,0.0,0.0,0.0,0.0,2.6736,0.0,0.0,0.0,0.0,0.0,0.0,0.0,0.0,0.0,0.0,0.0,0.0,0.0,0.0,0.0,0.0,0.0,0.0,0.0,0.0,0.0,0.0,0.0,0.0,0.0,0.0,0.0,0.0,0.0,0.0,0.0,0.0,0.0,0.0,0.0,0.0,0.0,0.0,0.0,0.0,0.0,0.0,0.0,0.0,0.0,0.0,0.0,0.0,0.0,0.0,0.0,0.0,0.0,0.0,0.0,0.0,0.0,0.0,0.0,3.753,4.0392,4.22,4.293,4.2492,4.0133,3.7077,0.0,0.0,0.0,0.0,0.0,0.0,0.0,0.0,0.0,0.0,0.0,0.0,0.0,0.0,0.0,0.0,0.0,0.0,0.0,0.0,0.0,0.0,0.0,0.0,0.0,0.0,0.0,0.0,0.0,0.0,0.0,0.0,0.0,0.0,0.0,0.0,0.0,0.0,0.0,0.0,0.0,0.0,0.0,0.0,0.0,0.0,0.0,0.0,0.0,0.0,0.0,0.0,0.0,0.0,0.0,0.0,0.0,0.0,0.0,0.0,0.0,0.0,0.0,0.0,0.0,0.0,0.0,0.0,0.0,0.0,0.0,0.0,0.0,0.0,0.0,0.0,0.0,0.0,0.0,0.0,0.0,0.0,0.0,0.0,0.0,0.0,0.0,0.0,0.0,0.0,0.0,0.0,0.0,0.0,0.0,0.0,0.0,0.0,0.0,0.0,0.0,0.0,0.0,0.0,0.0,0.0,0.0,3.5419,3.8748,4.1873,4.297,4.3378,4.3182,4.1648,3.884,3.4679,0.0,0.0,0.0,0.0,0.0,0.0,0.0,0.0,0.0,0.0,0.0,0.0,0.0,0.0,0.0,0.0,0.0,0.0,0.0,0.0,0.0,0.0,0.0,0.0,0.0,0.0,0.0,0.0,0.0,0.0,0.0,0.0,0.0,0.0,0.0,0.0,0.0,0.0,2.5592,2.7263,0.0,0.0,0.0,0.0,0.0,0.0,0.0,0.0,2.9052,0.0,0.0,0.0,0.0,0.0,0.0,0.0,0.0,0.0,0.0,0.0,0.0,0.0,0.0,0.0,0.0,0.0,0.0,0.0,0.0,0.0,0.0,0.0,0.0,0.0,0.0,0.0,0.0,0.0,0.0,0.0,0.0,0.0,0.0,0.0,0.0,0.0,0.0,0.0,0.0,0.0,0.0,0.0,0.0,0.0,0.0,0.0,0.0,0.0,0.0,0.0,0.0,0.0,0.0,0.0,0.0,3.2792,3.6818,4.0192,4.2816,4.4374,4.4534,4.3142,4.1602,3.8792,3.4594,0.0,0.0,0.0,0.0,0.0,0.0,0.0,0.0,0.0,0.0,0.0,0.0,0.0,0.0,0.0,0.0,0.0,0.0,0.0,0.0,0.0,0.0,0.0,0.0,0.0,0.0,0.0,0.0,0.0,0.0,0.0,0.0,0.0,0.0,0.0,0.0,0.0,0.0,0.0,2.8573,2.9252,0.0,0.0,0.0,0.0,0.0,0.0,0.0,0.0,3.1305,0.0,0.0,0.0,0.0,0.0,0.0,0.0,0.0,0.0,0.0,0.0,0.0,0.0,0.0,0.0,0.0,0.0,0.0,0.0,0.0,0.0,0.0,0.0,0.0,0.0,0.0,0.0,0.0,0.0,0.0,0.0,0.0,0.0,0.0,0.0,0.0,0.0,0.0,0.0,0.0,0.0,0.0,0.0,0.0,0.0,0.0,0.0,0.0,0.0,0.0,0.0,0.0,0.0,0.0,0.0,3.3564,3.7362,4.0543,4.3028,4.4297,4.4335,4.3113,4.1177,3.8331,0.0,0.0,0.0,0.0,0.0,0.0,0.0,0.0,0.0,0.0,0.0,0.0,0.0,0.0,0.0,0.0,0.0,0.0,0.0,0.0,0.0,0.0,0.0,0.0,0.0,0.0,0.0,0.0,0.0,0.0,0.0,0.0,0.0,0.0,0.0,0.0,0.0,0.0,0.0,0.0,3.0661,3.1656,3.2136,0.0,0.0,0.0,0.0,0.0,0.0,3.3389,3.2929,0.0,0.0,0.0,0.0,0.0,0.0,0.0,0.0,0.0,0.0,0.0,0.0,0.0,0.0,0.0,0.0,0.0,0.0,0.0,0.0,0.0,0.0,0.0,0.0,0.0,0.0,0.0,0.0,0.0,0.0,0.0,0.0,0.0,0.0,0.0,0.0,0.0,0.0,0.0,0.0,0.0,0.0,0.0,0.0,0.0,0.0,0.0,0.0,0.0,0.0,0.0,0.0,0.0,0.0,0.0,3.4037,3.7794,4.0726,4.2831,4.3739,4.3805,4.296,4.0539,3.7627,0.0,0.0,0.0,0.0,0.0,0.0,0.0,0.0,0.0,0.0,0.0,0.0,0.0,0.0,0.0,0.0,0.0,0.0,0.0,0.0,0.0,0.0,0.0,0.0,0.0,0.0,0.0,0.0,0.0,0.0,0.0,0.0,0.0,0.0,0.0,0.0,0.0,0.0,0.0,0.0,0.0,3.4167,3.4855,3.5204,0.0,0.0,0.0,0.0,3.529,3.5395,0.0,0.0,0.0,0.0,0.0,0.0,0.0,0.0,0.0,0.0,0.0,0.0,0.0,0.0,0.0,0.0,0.0,0.0,0.0,0.0,0.0,0.0,0.0,0.0,0.0,0.0,0.0,0.0,0.0,0.0,0.0,0.0,0.0,0.0,0.0,0.0,0.0,0.0,0.0,0.0,0.0,0.0,0.0,0.0,0.0,0.0,0.0,0.0,0.0,0.0,0.0,0.0,0.0,0.0,0.0,0.0,3.3736,3.8547,4.1438,4.2222,4.3295,4.345,4.2563,3.9773,3.6692,0.0,0.0,0.0,0.0,0.0,0.0,0.0,0.0,0.0,0.0,0.0,0.0,0.0,0.0,0.0,0.0,0.0,0.0,0.0,0.0,0.0,0.0,0.0,0.0,0.0,0.0,0.0,0.0,0.0,0.0,0.0,0.0,0.0,0.0,0.0,0.0,0.0,0.0,0.0,0.0,0.0,3.5737,3.5836,3.7098,3.7498,0.0,0.0,3.7943,3.7948,3.8594,0.0,0.0,0.0,0.0,0.0,0.0,0.0,0.0,0.0,0.0,0.0,0.0,0.0,0.0,0.0,0.0,0.0,0.0,0.0,0.0,0.0,0.0,0.0,0.0,0.0,0.0,0.0,0.0,0.0,0.0,0.0,0.0,0.0,0.0,0.0,0.0,0.0,0.0,0.0,0.0,0.0,0.0,0.0,0.0,0.0,0.0,0.0,0.0,0.0,0.0,0.0,0.0,0.0,0.0,0.0,3.1895,3.433,3.8715,4.1366,4.207,4.2581,4.2731,4.2502,3.8516,3.5302,0.0,0.0,0.0,0.0,0.0,0.0,0.0,0.0,0.0,0.0,0.0,0.0,0.0,0.0,0.0,0.0,0.0,0.0,0.0,0.0,0.0,0.0,0.0,0.0,0.0,0.0,0.0,0.0,0.0,0.0,0.0,0.0,0.0,0.0,0.0,0.0,0.0,0.0,0.0,0.0,0.0,0.0,3.8027,3.9198,0.0,0.0,0.0,3.9937,3.9921,0.0,0.0,0.0,0.0,0.0,0.0,0.0,0.0,0.0,0.0,0.0,0.0,0.0,0.0,0.0,0.0,0.0,0.0,0.0,0.0,0.0,0.0,0.0,0.0,0.0,0.0,0.0,0.0,0.0,0.0,0.0,0.0,0.0,0.0,0.0,0.0,0.0,0.0,0.0,0.0,0.0,0.0,0.0,0.0,0.0,0.0,0.0,0.0,0.0,0.0,0.0,0.0,0.0,0.0,0.0,0.0,0.0,3.4934,3.8924,4.136,4.2133,4.2044,4.2065,4.217,3.7699,0.0,0.0,0.0,0.0,0.0,0.0,0.0,0.0,0.0,0.0,0.0,0.0,0.0,0.0,0.0,0.0,0.0,0.0,0.0,0.0,0.0,0.0,0.0,0.0,0.0,0.0,0.0,1.8672,0.0,0.0,0.0,0.0,0.0,0.0,0.0,0.0,0.0,0.0,0.0,0.0,0.0,0.0,3.8734,4.0193,4.1493,4.2341,0.0,0.0,4.207,4.2081,4.2258,4.1301,0.0,0.0,0.0,0.0,0.0,0.0,0.0,0.0,0.0,0.0,0.0,0.0,0.0,0.0,0.0,0.0,0.0,0.0,0.0,0.0,0.0,0.0,0.0,0.0,0.0,0.0,0.0,0.0,0.0,0.0,0.0,0.0,0.0,0.0,0.0,0.0,0.0,0.0,0.0,0.0,0.0,0.0,0.0,0.0,0.0,0.0,0.0,0.0,0.0,0.0,0.0,0.0,0.0,0.0,3.3168,3.531,3.9398,4.1768,4.2255,4.1865,4.1642,4.1595,3.7871,3.4794,0.0,0.0,0.0,0.0,0.0,0.0,0.0,0.0,0.0,0.0,0.0,0.0,0.0,0.0,0.0,0.0,0.0,0.0,0.0,0.0,0.0,0.0,0.0,0.0,0.0,0.0,0.0,0.0,0.0,0.0,0.0,0.0,0.0,0.0,0.0,0.0,0.0,0.0,0.0,0.0,0.0,4.0981,4.1916,4.4127,4.569,0.0,4.5191,4.4738,4.4726,4.541,4.4257,3.9313,0.0,0.0,0.0,0.0,0.0,0.0,0.0,0.0,0.0,0.0,0.0,0.0,0.0,0.0,0.0,0.0,0.0,0.0,0.0,0.0,0.0,0.0,0.0,0.0,0.0,0.0,0.0,0.0,0.0,0.0,0.0,0.0,0.0,0.0,0.0,0.0,0.0,0.0,0.0,0.0,0.0,0.0,0.0,0.0,0.0,0.0,0.0,0.0,0.0,0.0,0.0,0.0,0.0,3.2943,3.52,3.9217,4.1606,4.2248,4.1643,4.1403,4.1585,3.7641,3.4781,0.0,0.0,0.0,0.0,0.0,0.0,0.0,0.0,0.0,0.0,0.0,0.0,0.0,0.0,0.0,0.0,0.0,0.0,0.0,0.0,0.0,0.0,0.0,0.0,0.0,0.0,0.0,0.0,2.5532,2.6325,2.634,0.0,0.0,0.0,0.0,0.0,0.0,0.0,0.0,0.0,0.0,4.252,4.4944,4.6124,0.0,0.0,4.6972,4.6479,4.6485,4.5925,4.447,4.1422,3.9861,0.0,0.0,0.0,0.0,0.0,0.0,0.0,0.0,0.0,0.0,0.0,0.0,0.0,0.0,0.0,0.0,0.0,0.0,0.0,0.0,0.0,0.0,0.0,0.0,0.0,0.0,0.0,0.0,0.0,0.0,0.0,0.0,0.0,0.0,0.0,0.0,0.0,0.0,0.0,0.0,0.0,0.0,0.0,0.0,0.0,0.0,0.0,0.0,0.0,0.0,0.0,0.0,3.2667,3.5385,3.9004,4.1455,4.2616,4.1882,4.1461,4.1371,3.8113,3.5516,0.0,0.0,0.0,0.0,0.0,0.0,0.0,0.0,0.0,0.0,0.0,0.0,0.0,0.0,0.0,0.0,0.0,0.0,0.0,0.0,0.0,0.0,0.0,0.0,0.0,0.0,0.0,0.0,2.6414,2.6833,2.7067,0.0,0.0,0.0,0.0,0.0,0.0,0.0,0.0,0.0,0.0,4.4513,4.7133,4.7708,4.8211,4.9091,4.8145,4.7427,4.7756,4.6418,4.4742,4.3012,0.0,0.0,0.0,0.0,0.0,0.0,0.0,0.0,0.0,0.0,0.0,0.0,0.0,0.0,0.0,0.0,0.0,0.0,0.0,0.0,0.0,0.0,0.0,0.0,0.0,0.0,0.0,2.0732,0.0,0.0,1.847,0.0,0.0,0.0,0.0,0.0,0.0,0.0,0.0,0.0,0.0,0.0,0.0,0.0,0.0,0.0,0.0,0.0,0.0,0.0,0.0,0.0,0.0,3.2499,3.6039,3.8878,4.1324,4.3316,4.2655,4.1866,4.113,3.9478,3.7194,3.4154,0.0,0.0,0.0,0.0,0.0,0.0,0.0,0.0,0.0,0.0,0.0,0.0,0.0,0.0,0.0,0.0,0.0,0.0,0.0,0.0,0.0,0.0,0.0,0.0,0.0,0.0,2.4325,2.5616,2.6942,0.0,0.0,0.0,0.0,0.0,0.0,0.0,0.0,0.0,4.0513,4.4279,4.7207,4.8075,4.8894,4.974,5.0666,4.8805,4.7573,4.8541,4.7236,4.5498,0.0,0.0,0.0,0.0,0.0,0.0,0.0,0.0,0.0,0.0,0.0,0.0,0.0,0.0,0.0,0.0,0.0,0.0,0.0,0.0,0.0,0.0,0.0,0.0,0.0,0.0,0.0,2.5,2.5571,0.0,0.0,0.0,0.0,0.0,0.0,0.0,0.0,0.0,0.0,0.0,3.1476,3.2231,0.0,0.0,0.0,0.0,0.0,0.0,0.0,0.0,0.0,0.0,0.0,0.0,3.2921,3.6037,3.8524,4.0615,4.2295,4.1574,4.1208,4.127,3.924,3.6577,3.334,0.0,0.0,0.0,0.0,0.0,0.0,0.0,0.0,0.0,0.0,0.0,0.0,0.0,0.0,0.0,0.0,0.0,0.0,0.0,0.0,0.0,0.0,0.0,0.0,0.0,2.6256,0.0,0.0,0.0,0.0,0.0,0.0,0.0,0.0,0.0,0.0,3.8396,4.1299,4.4306,4.633,4.8047,4.9477,4.994,5.0298,0.0,0.0,0.0,0.0,0.0,0.0,0.0,0.0,0.0,0.0,0.0,0.0,0.0,0.0,4.191,3.9785,3.986,4.0246,4.0266,0.0,0.0,0.0,0.0,0.0,0.0,0.0,0.0,0.0,0.0,0.0,0.0,0.0,0.0,2.8888,2.9475,2.8135,0.0,0.0,0.0,0.0,0.0,0.0,0.0,0.0,3.3535,3.4786,3.5351,3.5808,3.607,3.609,3.466,3.2512,0.0,0.0,0.0,0.0,0.0,0.0,0.0,0.0,3.3563,3.6358,3.8534,4.0331,4.1683,4.1294,4.1032,4.1071,3.8959,3.6638,3.4192,3.2607,3.0844,0.0,0.0,0.0,0.0,0.0,0.0,0.0,0.0,0.0,0.0,0.0,0.0,0.0,0.0,0.0,0.0,0.0,0.0,0.0,0.0,0.0,0.0,0.0,2.7214,0.0,0.0,0.0,0.0,0.0,0.0,0.0,0.0,0.0,3.8479,4.103,4.384,4.6528,4.7819,4.8953,5.0161,0.0,0.0,0.0,0.0,0.0,0.0,0.0,4.8677,4.8088,4.8007,4.8024,4.8024,4.7816,4.763,4.7642,0.0,0.0,4.3424,4.3238,4.3616,4.3616,4.3852,4.4245,4.4795,4.4959,4.5058,0.0,0.0,0.0,0.0,2.6545,0.0,0.0,0.0,3.2022,3.2441,0.0,3.1603,0.0,0.0,0.0,0.0,3.0258,3.286,0.0,0.0,3.8142,3.9161,3.933,3.933,3.9382,3.9337,3.815,3.7167,3.6146,3.1446,0.0,0.0,0.0,0.0,0.0,0.0,3.437,3.6993,3.8825,4.0411,4.1668,4.1729,4.1358,4.0559,3.8865,3.7503,3.6602,3.5019,3.3401,3.1858,2.9638,0.0,0.0,0.0,0.0,0.0,0.0,0.0,0.0,0.0,0.0,0.0,0.0,0.0,0.0,0.0,0.0,0.0,0.0,0.0,0.0,2.6255,0.0,0.0,0.0,0.0,0.0,0.0,0.0,0.0,0.0,4.0272,3.9965,4.3353,4.6282,4.718,0.0,0.0,0.0,0.0,5.0155,5.0493,4.998,4.9633,4.9746,4.9743,4.9708,4.9654,0.0,0.0,5.2,5.1434,5.0929,5.0948,5.1511,5.0933,4.6915,4.627,4.628,4.6275,4.694,4.7383,4.7412,4.7687,4.7934,3.366,0.0,0.0,0.0,0.0,3.2855,3.4601,3.7462,3.716,3.7158,3.7305,3.6487,0.0,0.0,0.0,0.0,0.0,0.0,3.749,3.8365,3.9957,4.068,4.0671,4.118,4.1443,4.1409,4.0552,4.0024,3.9676,3.7263,3.4383,3.1167,0.0,0.0,0.0,0.0,3.5604,3.777,3.8772,3.9682,4.0552,4.057,4.0399,3.9951,3.9861,3.9056,3.752,3.6984,3.5954,3.4262,3.2487,0.0,0.0,0.0,0.0,0.0,0.0,0.0,0.0,0.0,0.0,0.0,0.0,0.0,0.0,0.0,0.0,0.0,0.0,0.0,2.7732,2.9344,3.0776,0.0,0.0,0.0,0.0,0.0,0.0,0.0,0.0,0.0,4.5012,4.6211,4.7492,0.0,0.0,4.9533,4.9802,5.0461,5.1002,5.1182,5.1755,0.0,5.2232,5.2241,5.2241,5.2203,5.257,5.2858,5.2858,5.2666,5.255,5.255,5.2742,5.2471,5.1475,5.1269,5.1344,5.1419,5.1618,5.176,5.176,5.1794,5.186,3.8307,3.6678,3.4913,3.4847,3.591,3.6113,3.7669,4.0029,3.991,3.9976,4.0139,3.963,3.8452,3.6874,3.6384,0.0,0.0,0.0,3.998,4.0824,4.1765,4.2323,4.2574,4.298,4.3227,4.3149,4.2439,4.2083,4.2049,4.0882,3.8782,3.5799,0.0,3.5356,3.5645,3.6685,3.7929,3.9426,4.0018,4.0392,4.0527,4.0265,4.0008,3.9877,4.0108,3.9701,3.8628,3.867,3.796,3.6324,3.5257,3.3112,0.0,0.0,0.0,0.0,0.0,0.0,0.0,0.0,0.0,0.0,0.0,2.4827,2.5105,0.0,0.0,0.0,2.7305,2.8307,3.0381,3.201,0.0,0.0,0.0,0.0,0.0,0.0,0.0,4.2878,4.5416,4.7353,4.8126,4.8569,4.9139,4.9967,5.001,5.0062,5.0325,0.0,5.1351,5.1532,5.2209,5.2714,5.2757,5.3044,5.3436,5.3947,5.4141,5.4203,5.4184,5.4203,5.4203,5.4184,5.4203,5.4203,5.4184,5.4327,5.418,5.3606,5.3722,5.3955,5.3955,5.4005,5.4032,4.1788,4.1422,3.7322,3.6121,3.6969,3.8451,3.9439,4.0114,4.0983,4.1398,4.1468,4.1416,4.0705,3.9542,3.961,0.0,4.0485,4.1291,4.2308,4.3504,4.3521,4.3893,4.4598,4.4581,4.4598,4.4581,4.3842,4.3477,4.3443,4.2811,4.2187,4.1613,3.9691,3.9027,3.9658,4.0205,4.0814,4.1443,4.2001,4.1965,4.1288,4.0561,4.0197,4.018,3.986,3.964,3.9605,3.9838,3.9301,3.7879,3.7583,3.5748,3.2023,0.0,0.0,0.0,0.0,0.0,0.0,0.0,0.0,0.0,0.0,0.0,0.0,0.0,0.0,0.0,3.0316,0.0,3.2931,3.4582,0.0,0.0,0.0,4.064,4.3646,4.4088,4.5047,4.7296,0.0,0.0,4.9781,5.053,5.1028,5.117,5.106,5.1082,5.1341,5.1414,5.1504,5.1807,5.1944,5.2059,5.2398,5.2927,5.3728,5.4721,5.5399,5.5553,5.566,5.5742,5.578,5.5895,5.5915,5.5895,5.5895,5.5917,5.5434,5.405,5.4185,5.4608,5.4639,5.4688,5.4771,4.0041,3.9914,3.8868,3.9276,4.0687,4.1081,4.1335,4.1573,4.2427,4.2497,4.2069,4.2633,4.2398,4.162,4.218,4.2509,4.2685,4.3474,4.3988,4.4282,4.4299,4.4429,4.4598,4.4598,4.4598,4.4598,4.4384,4.4316,4.4282,4.4141,4.3972,4.383,4.3315,4.2351,4.1001,4.1095,4.1477,4.2085,4.2228,4.2202,4.2016,4.1322,4.0916,4.0916,3.9797,3.908,3.8879,3.8397,3.8051,3.7861,3.686,3.5515,3.374,3.0592,0.0,0.0,0.0,0.0,0.0,0.0,0.0,0.0,0.0,3.0386,3.0617,0.0,3.4306,0.0,3.4017,3.5509,3.711,3.8707,0.0,0.0,4.3365,4.478,4.614,4.7371,4.8363,4.8989,5.0311,5.1246,5.1448,5.2162,5.2619,5.2663,5.1658,5.1004,5.1232,5.1971,5.2486,5.2643,5.3257,5.3849,5.3795,5.405,5.4292,5.4606,5.4979,5.5467,5.6129,5.6491,5.6896,5.7511,5.7684,5.7684,5.7615,5.7684,5.755,5.7088,5.6222,5.5415,5.5415,5.5458,5.545,4.0292,4.0292,4.0292,4.0851,4.1731,4.1498,4.1412,4.1511,4.2347,4.248,4.2152,4.2574,4.2567,4.2249,4.2998,4.3342,4.3432,4.4226,4.4598,4.4598,4.4598,4.4598,4.4598,4.4598,4.4598,4.4598,4.4598,4.4598,4.4598,4.4598,4.4598,4.4598,4.4598,4.4016,4.2884,4.2833,4.2993,4.3328,4.2963,4.2777,4.2777,4.1745,4.1204,4.117,3.9766,3.8955,3.8791,3.835,3.8038,3.7798,3.7393,3.6381,3.473,3.2464,3.0315,0.0,0.0,0.0,0.0,0.0,0.0,0.0,0.0,0.0,0.0,0.0,3.7634,3.7096,3.79,3.9093,4.0689,4.2286,4.3901,4.548,4.6783,4.7994,4.915,5.0398,5.1316,5.1683,5.2821,5.3613,5.361,5.3977,5.4271,5.4271,5.3524,5.278,5.2237,5.2618,5.2975,5.305,5.3535,5.3906,5.3925,5.4385,5.4731,5.4784,5.5381,5.608,5.6531,5.6802,5.7131,5.757,5.7685,5.7739,5.7941,5.7978,5.8035,5.8131,5.753,5.678,5.6357,5.6261,5.6184,4.1422,4.1422,4.1422,4.1422,4.134,4.0969,4.0735,4.0727,4.1571,4.1981,4.1981,4.1981,4.1981,4.2062,4.2785,4.3139,4.3185,4.4035,4.4412,4.4457,4.4542,4.4598,4.4598,4.4598,4.4598,4.4598,4.4598,4.4598,4.4598,4.4598,4.4598,4.4598,4.4598,4.4598,4.4598,4.4598,4.4598,4.4598,4.391,4.3555,4.3555,4.2117,4.1339,4.1271,3.9817,3.8954,3.886,3.8711,3.8308,3.7621,3.8062,3.7411,3.5403,3.4447,3.3017,0.0,3.0666,0.0,0.0,0.0,0.0,0.0,0.0,0.0,0.0,3.9181,4.0512,4.1388,4.1708,4.2457,4.3889,4.5517,4.7075,4.8466,4.9386,5.0547,5.2105,5.2931,5.3665,5.4454,5.5152,5.5614,5.5522,5.5614,5.5614,5.5504,5.5412,5.4861,5.383,5.3558,5.3597,5.3518,5.35,5.3792,5.3831,5.4468,5.5077,5.521,5.5938,5.6822,5.6971,5.7039,5.7129,5.7278,5.7406,5.7467,5.7752,5.793,5.8121,5.8525,5.86,5.83,5.7434,5.7176,5.6926,4.1422,4.1422,4.1422,4.1422,4.1392,4.131,4.0977,4.0516,4.1383,4.1864,4.1997,4.1981,4.1981,4.2029,4.2157,4.2252,4.2284,4.3139,4.3562,4.3562,4.427,4.4598,4.4598,4.4598,4.4598,4.4598,4.4598,4.4598,4.4598,4.4598,4.4598,4.4598,4.4598,4.4598,4.4598,0.0,0.0,0.0,4.4445,4.4378,4.4316,4.2878,4.2083,4.2033,4.007,0.0,3.8125,3.7545,3.7082,3.6817,3.6512,0.0,0.0,0.0,0.0,0.0,0.0,0.0,0.0,0.0,0.0,0.0,3.8443,3.8992,3.9554,4.1106,4.241,4.3319,4.4951,4.618,4.6702,4.8638,5.0015,5.0369,5.1082,5.2179,5.3739,5.4066,5.4491,5.5262,5.5519,5.5633,5.5688,5.5614,5.5611,5.5706,5.5633,5.5486,5.5207,5.5078,5.5137,5.5133,5.5023,5.5097,5.5174,5.5334,5.5533,5.5573,5.5906,5.6611,5.7247,5.7657,5.813,5.8639,5.8938,5.8881,5.9017,5.9349,5.9498,5.9745,6.0022,5.9858,5.8396,5.805,5.7992,4.2357,4.2342,4.2342,4.2342,0.0,4.2342,4.1968,4.1377,4.1501,4.1607,4.1713,4.1713,4.1527,4.1252,4.163,4.1677,4.1412,4.2252,4.2645,4.2693,4.3106,4.3545,4.396,4.3977,4.4167,4.457,4.4598,4.4598,4.4598,4.4598,4.4598,4.4598,4.4598,4.4598,4.4598,4.4598,4.4598,4.4598,4.4598,4.4598,4.4564,4.3436,4.2844,4.2777,4.0696,0.0,0.0,0.0,0.0,0.0,0.0,0.0,0.0,0.0,0.0,3.6524,3.6869,3.7079,3.7063,3.8134,3.9278,4.036,4.1827,4.262,4.2541,4.3718,4.4987,4.6177,4.729,4.8119,4.8668,5.0032,5.1083,5.1511,5.2197,5.3003,5.3773,5.4562,5.5192,5.564,5.6328,5.6767,5.6767,5.6785,5.6767,5.6785,5.6785,5.6748,5.6693,5.6069,5.5614,5.5614,5.5614,5.5614,5.5629,5.5996,5.6198,5.6242,5.6716,5.7217,5.7666,5.7916,5.8209,5.862,5.8715,5.8775,5.9028,5.9248,5.9543,5.9996,6.0278,6.0323,5.96,5.9204,5.8761,4.3305,4.3305,4.3305,4.3305,4.3305,4.3305,4.3015,4.253,4.1728,0.0,0.0,4.1422,4.1085,4.0651,4.1305,4.1324,4.0905,4.1708,4.2105,4.2138,4.2301,4.2734,4.3424,4.3293,4.3714,4.4512,4.4451,4.444,4.4598,4.4598,4.4598,4.4598,4.4598,4.4514,4.4384,4.4355,4.4281,4.4179,4.444,4.4598,4.4581,4.3826,4.3403,4.3403,4.1491,4.0426,4.0265,3.9188,3.853,3.8418,3.8512,3.8559,3.8594,3.9269,3.9399,3.8847,3.9988,4.0474,3.9932,4.1027,4.1997,4.2494,4.4337,4.5407,4.5299,4.6112,4.7174,4.8442,4.8778,4.9199,4.9881,5.0726,5.1485,5.2163,5.2852,5.3341,5.359,5.4643,5.5464,5.5793,5.672,5.7576,5.7431,5.7431,5.7594,5.7576,5.7509,5.7886,5.7808,5.6895,5.618,5.618,5.6253,5.6088,5.6124,5.6565,5.6987,5.7042,5.7538,5.796,5.7978,5.7978,5.7978,5.8056,5.7978,5.819,5.8484,5.8674,5.8952,5.9728,6.001,6.0222,6.0508,6.0188,5.955,4.3305,4.3305,4.3305,4.3305,4.3305,4.3305,4.3245,4.3105,4.1923,4.1422,4.1422,4.1422,4.1362,4.1272,4.1385,4.1385,4.1332,4.2202,4.2614,4.2634,4.3366,4.3789,4.3857,4.3329,4.3491,4.4257,4.377,4.3873,4.4542,4.4615,4.4598,4.457,4.4598,4.4241,4.3532,4.3456,4.3108,4.2426,4.3827,4.4598,4.4581,4.3826,4.3403,4.3358,4.2489,4.1677,4.1068,4.0857,4.0502,4.0016,4.0007,4.0007,4.0041,4.0713,4.1019,4.0832,4.1577,4.2255,4.2743,4.2997,4.344,4.42,4.5117,4.5855,4.6343,4.7081,4.7641,4.8041,4.906,4.98,5.0133,5.122,5.2069,5.2289,5.2864,5.3543,5.4141,5.452,5.4967,5.5563,5.5859,5.6087,5.6169,5.6141,5.6196,5.6196,5.692,5.7351,5.7807,5.7813,5.7666,5.7648,5.7666,5.7666,5.7519,5.7685,5.7758,5.7831,5.7868,5.7978,5.7978,5.7978,5.7978,5.7978,5.7978,5.8024,5.8142,5.8439,5.8715,5.9009,5.9509,6.004,6.0194,6.0297,6.0438,4.4182,4.3828,4.3828,4.3618,4.3305,4.3305,4.3305,4.3245,4.2662,4.2432,4.2432,4.2447,4.2252,4.1961,4.1946,4.1713,4.1422,4.179,4.1997,4.2034,4.2406,4.2843,4.3235,4.3006,4.3563,4.4795,4.4593,4.4707,4.5155,4.5196,4.4776,4.3935,4.3439,4.3229,4.3306,4.3306,4.3125,4.2707,4.3031,4.3426,4.3856,4.3539,4.3573,4.4018,4.3301,4.276,4.2422,4.2016,4.1653,4.1409,4.1392,4.1392,4.1409,4.2078,4.2475,4.2439,4.3115,4.3718,4.4028,4.4045,4.4384,4.5128,4.5889,4.6593,4.725,4.762,4.8004,4.8474,4.9409,5.0042,5.0127,5.1384,5.2278,5.2298,5.2957,5.3539,5.3942,5.4326,5.4704,5.5061,5.5466,5.5678,5.5706,5.5706,5.592,5.6268,5.6997,5.7613,5.795,5.7997,5.7997,5.7978,5.7978,5.7978,5.7978,5.7978,5.7978,5.7978,5.7978,5.7978,5.7978,5.7978,5.7978,5.7978,5.7978,5.7978,5.7978,5.8146,5.8397,5.8715,5.8971,5.9372,5.9661,5.9901,6.0208,4.5005,4.4541,4.4541,4.4227,4.3723,4.3574,4.3514,4.3499,4.3364,4.3305,4.3305,4.3305,4.306,4.2611,4.2635,4.2336,4.1863,4.1818,4.1833,4.1818,4.1818,4.2206,4.2763,4.2729,4.3467,4.4852,4.4886,4.4962,4.5273,4.533,4.4613,4.3264,4.2412,4.2269,4.2693,4.2707,4.263,4.2395,4.1739,4.2046,4.3246,4.3502,4.3919,4.4491,4.3995,4.369,4.3656,4.3132,4.2811,4.2811,4.2821,4.2821,4.2828,4.3352,4.369,4.3741,4.4276,4.4654,4.4835,4.4823,4.5162,4.5889,4.6633,4.7293,4.7804,4.8041,4.8392,4.8984,4.9625,5.0149,5.0473,5.152,5.2384,5.257,5.3112,5.3466,5.3551,5.4027,5.4359,5.4437,5.4848,5.5161,5.522,5.5203,5.5454,5.615,5.7021,5.752,5.791,5.8024,5.8048,5.8194,5.8125,5.7997,5.7978,5.7978,5.7978,5.7978,5.7978,5.7978,5.7978,5.7978,5.7978,5.7978,5.7978,5.7978,5.7978,5.8001,5.8146,5.8439,5.8673,5.8913,5.9337,5.9441,5.9677,4.5274,4.5214,4.52,4.5185,4.5005,4.4466,4.4212,4.4122,4.3544,4.3305,4.3305,4.3305,4.3275,4.32,4.3185,4.311,4.305,4.311,4.308,4.3065,4.311,4.3189,4.3172,4.2677,4.291,4.3785,4.3379,4.3611,4.4314,4.4215,4.3762,4.304,4.235,4.1625,4.108,4.0995,4.0603,3.9809,3.9681,4.0842,4.3185,4.4064,4.4514,4.457,4.453,4.4496,4.4445,4.4429,4.4378,4.4395,4.4344,4.4378,4.4361,4.4462,4.4479,4.4451,4.4581,4.4902,4.55,4.5602,4.5923,4.6633,4.7361,4.7787,4.7939,4.8545,4.8917,4.9154,4.9695,5.0388,5.1048,5.186,5.2638,5.3213,5.3416,5.3518,5.3501,5.3551,5.3618,5.3584,5.3799,5.3717,5.3865,5.3946,5.4171,5.5061,5.5906,5.6755,5.7809,5.8037,5.8279,5.8695,5.8505,5.8047,5.7997,5.7978,5.7978,5.7978,5.7978,5.7978,5.7978,5.7978,5.7978,5.7978,5.7978,5.7978,5.7978,5.7978,5.8001,5.8164,5.8439,5.8796,5.923,5.9302,5.9509,4.6262,4.5918,4.5903,4.5663,4.5274,4.5005,4.4676,4.4287,4.4047,4.3663,4.3319,4.3305,4.3305,4.3305,4.3305,4.3305,4.3305,4.3305,4.3305,4.3305,4.3305,4.3305,4.326,4.3075,4.3417,4.4266,4.4062,4.4163,4.4408,4.37,4.3075,4.2692,4.1651,4.1117,4.1225,4.0892,4.0519,4.0205,4.0672,4.1494,4.2426,4.2862,4.3575,4.4468,4.4598,4.4598,4.4598,4.4598,4.4598,4.4598,4.4598,4.4598,4.4598,4.4598,4.4598,4.4632,4.501,4.5382,4.5686,4.6109,4.6667,4.7428,4.7733,4.8058,4.8545,4.9221,4.9644,4.9729,5.0321,5.1065,5.1792,5.2553,5.3162,5.345,5.3518,5.3518,5.3518,5.3518,5.3518,5.3518,5.3518,5.3518,5.3551,5.3881,5.4439,5.5175,5.5906,5.684,5.7858,5.8039,5.8329,5.8891,5.8526,5.8051,5.8009,5.7978,5.7978,5.7978,5.7978,5.7978,5.7978,5.7978,5.7978,5.7978,5.7978,5.7978,5.7978,5.7978,5.7978,5.8047,5.807,5.8372,5.8547,5.8589,5.8775,4.704,4.6621,4.6591,4.6307,4.5843,4.5648,4.5304,4.4814,4.4661,4.4212,4.3589,4.3559,4.3469,4.3305,4.3305,4.3305,4.3305,4.3305,4.3305,4.3305,4.3305,4.3305,4.3305,4.3305,4.3654,4.4297,4.4343,4.4443,4.4449,4.3335,4.2625,4.2423,4.1316,4.1006,4.1495,4.1111,4.0789,4.067,4.1276,4.1584,4.1673,4.1869,4.2847,4.4412,4.4598,4.4598,4.4598,4.4598,4.4598,4.4598,4.4598,4.4598,4.4598,4.4801,4.4976,4.5196,4.5686,4.6109,4.6278,4.6802,4.7411,4.8075,4.8223,4.8426,4.8984,4.9661,5.0168,5.0439,5.1065,5.1758,5.2266,5.3027,5.3484,5.3518,5.3518,5.3518,5.3518,5.3518,5.3518,5.3518,5.3518,5.3518,5.3585,5.4084,5.475,5.5277,5.6209,5.7136,5.7803,5.8022,5.8259,5.9025,5.8691,5.8399,5.8333,5.8107,5.8033,5.7978,5.7978,5.7978,5.7978,5.7978,5.7978,5.7978,5.7978,5.7978,5.7978,5.7978,5.7978,5.7978,5.8001,5.8024,5.8101,5.8024,5.8164,4.7294,4.7264,4.7264,4.7189,4.7145,4.6531,4.6247,4.6052,4.5529,4.4885,4.4317,4.4272,4.3888,4.3334,4.3364,4.3305,4.3305,4.3305,4.3305,4.3305,4.3305,4.3305,4.3305,4.3305,4.3344,4.3488,4.3512,4.3482,4.3416,4.2782,4.2428,4.2383,4.1707,4.1377,4.146,4.1408,4.1063,4.0581,4.0616,4.0674,4.0913,4.164,4.2867,4.437,4.457,4.4598,4.457,4.457,4.457,4.4598,4.4575,4.4604,4.4682,4.528,4.594,4.6532,4.6701,4.7039,4.7601,4.7817,4.8156,4.8781,4.8866,4.8951,4.9137,4.9779,5.0473,5.1116,5.1826,5.23,5.2435,5.3078,5.3501,5.3518,5.3518,5.3518,5.3518,5.3585,5.3518,5.3518,5.3585,5.3687,5.3619,5.4144,5.4669,5.5111,5.5976,5.7106,5.775,5.795,5.829,5.8883,5.9091,5.9118,5.9072,5.8822,5.8309,5.8272,5.8437,5.8088,5.7997,5.7978,5.7997,5.7978,5.7978,5.7978,5.7978,5.7978,5.7978,5.7978,5.7978,5.7978,5.7978,5.7978,5.8074,4.7309,4.7309,4.7309,4.7309,4.7279,4.704,4.6711,4.6264,4.6025,4.5574,4.502,4.4945,4.4571,4.3917,4.3917,4.3678,4.3319,4.3305,4.3305,4.3305,4.3305,4.3305,4.3305,4.3305,4.3305,4.3305,4.3305,4.3305,4.3275,4.309,4.2985,4.288,4.2327,4.2051,4.1976,4.1617,4.1287,4.107,4.1025,4.1343,4.1882,4.2287,4.3057,4.4136,4.4474,4.4598,4.4598,4.4064,4.4006,4.457,4.4545,4.4737,4.5307,4.6007,4.6515,4.6802,4.7259,4.7631,4.7889,4.8359,4.8714,4.8951,4.9018,4.9221,4.9712,5.0371,5.1133,5.186,5.2621,5.3044,5.3112,5.3348,5.3518,5.3518,5.3518,5.3518,5.3602,5.389,5.4042,5.3704,5.389,5.4363,5.4769,5.5158,5.548,5.5953,5.6494,5.7113,5.7716,5.7924,5.8187,5.8772,5.8731,5.8775,5.9949,5.9792,5.952,5.9373,5.9281,5.8951,5.8786,5.8253,5.8143,5.8143,5.8088,5.7978,5.7978,5.7978,5.7978,5.7978,5.7978,5.7978,5.7978,5.7978,5.7978,4.7309,4.7309,4.7309,4.7309,4.7309,4.7309,4.7055,4.6651,4.6593,4.6262,4.5708,4.5618,4.5244,4.4706,4.4646,4.4231,4.3618,4.3409,4.3305,4.3305,4.3305,4.3305,4.3305,4.3305,4.3305,4.3305,4.3305,4.3305,4.3305,4.3305,4.3305,4.326,4.2865,4.2671,4.2581,4.2222,4.1938,4.1758,4.1698,4.1919,4.2285,4.2551,4.3126,4.3965,4.4585,4.4691,4.4421,4.412,4.4059,4.4384,4.4599,4.5208,4.6296,4.6887,4.7259,4.753,4.797,4.8244,4.8308,4.8731,4.9001,4.9018,4.9255,4.9593,5.0101,5.098,5.1758,5.2334,5.3027,5.3518,5.3518,5.3501,5.3518,5.3518,5.3518,5.3619,5.3856,5.4279,5.4448,5.4414,5.4668,5.5175,5.5615,5.5902,5.6241,5.6765,5.6968,5.7391,5.7763,5.7918,5.8046,5.8599,5.8561,5.8855,5.9627,5.9819,6.0019,5.9975,5.9901,5.965,5.9404,5.8822,5.8419,5.8345,5.8217,5.807,5.7997,5.7997,5.8015,5.8033,5.7978,5.7978,5.7978,5.7978,5.7978,4.7309,4.7309,4.7309,4.7309,4.7309,4.7309,4.7309,4.7234,4.7249,4.686,4.6309,4.6294,4.5948,4.5409,4.5304,4.4945,4.4317,4.3753,4.3424,4.3305,4.3305,4.3305,4.3305,4.3305,4.3305,4.3305,4.3305,4.3305,4.3305,4.3305,4.3305,4.3305,4.326,4.317,4.3275,4.311,4.2925,4.2491,4.241,4.2111,4.1603,4.2349,4.3187,4.4134,4.4952,4.5016,4.4127,4.4805,4.482,4.4282,4.4886,4.6173,4.7501,4.7872,4.8223,4.8714,4.8951,4.8984,4.8968,4.8968,4.9018,4.9187,4.9678,5.0067,5.0524,5.1471,5.2266,5.2536,5.3061,5.3518,5.3518,5.3518,5.3518,5.3518,5.3518,5.3771,5.4329,5.4583,5.4905,5.553,5.5767,5.5698,5.5902,5.641,5.6867,5.7019,5.7391,5.7763,5.7865,5.7881,5.7918,5.8082,5.8339,5.8801,5.9304,5.9756,6.0103,6.0354,6.0302,6.017,6.0151,5.9758,5.9318,5.9171,5.8914,5.8767,5.8749,5.8731,5.8474,5.8419,5.8235,5.8088,5.7978,5.7978,5.7978,4.7309,4.7309,4.7309,4.7309,4.7309,4.7309,4.7309,4.7309,4.7309,4.7189,4.7025,4.6995,4.6636,4.6112,4.5992,4.5633,4.5005,4.4736,4.4212,4.3454,4.3319,4.3349,4.3334,4.3319,4.3305,4.3305,4.3305,4.3305,4.3305,4.3305,4.3305,4.3305,4.3305,4.3305,4.3305,4.329,4.317,4.3075,4.3045,4.291,4.2731,4.2973,4.3616,4.4549,4.5464,4.5498,4.4611,4.4519,4.4658,4.4919,4.5161,4.6307,4.8152,4.8663,4.8765,4.8968,4.9018,4.9018,4.9018,4.9035,4.9255,4.9644,4.9982,5.0608,5.1454,5.2012,5.257,5.2993,5.3365,5.3518,5.3518,5.3518,5.3518,5.3518,5.3518,5.3805,5.4566,5.5108,5.5936,5.6884,5.6782,5.6714,5.707,5.7476,5.7459,5.7492,5.7746,5.7865,5.7881,5.7881,5.7881,5.7937,5.8281,5.8529,5.8943,5.9262,5.9579,6.0178,6.044,6.0723,6.0742,6.0621,6.0217,5.9832,5.9612,5.9483,5.9483,5.941,5.9171,5.8988,5.8933,5.8602,5.8143,5.8052,5.818,4.7309,4.7309,4.7309,4.7309,4.7309,4.7309,4.7309,4.7309,4.7309,4.7309,4.7309,4.7294,4.71,4.6756,4.6653,4.6307,4.5723,4.5678,4.508,4.4197,4.4062,4.4062,4.3962,4.3753,4.3648,4.3604,4.3409,4.3305,4.3305,4.3305,4.3305,4.3305,4.3305,4.3305,4.3305,4.3305,4.3305,4.3305,4.329,4.3305,4.329,4.3305,4.395,4.5174,4.5889,4.6048,4.5786,4.5256,4.498,4.5282,4.5687,4.7062,4.8796,4.9001,4.9018,4.9018,4.9018,4.9018,4.9035,4.9289,4.956,5.005,5.0591,5.1251,5.2164,5.2486,5.3027,5.3399,5.3518,5.3518,5.3518,5.3518,5.3619,5.3907,5.367,5.3991,5.4854,5.5919,5.6782,5.7509,5.7442,5.7492,5.7729,5.7881,5.7881,5.7881,5.7881,5.7881,5.7881,5.7881,5.7881,5.7881,5.801,5.8246,5.8512,5.8772,5.9011,5.9741,6.0478,6.0964,6.1267,6.1128,6.0823,6.0346,6.0052,5.9997,5.9997,6.0089,5.9979,5.9808,5.9606,5.9239,5.8896,5.8621,5.8584,4.7309,4.7309,4.7309,4.7309,4.7309,4.7309,4.7309,4.7309,4.7309,4.7309,4.7309,4.7309,4.7294,4.7279,4.7204,4.6875,4.6414,4.6367,4.6067,4.5559,4.5394,4.5334,4.5035,4.4586,4.4317,4.4152,4.3678,4.3379,4.3305,4.3305,4.3305,4.3305,4.3305,4.3305,4.3305,4.3305,4.3305,4.3305,4.3305,4.3305,4.3305,4.3305,4.4213,4.5977,4.6189,4.6558,4.7089,4.6585,4.5814,4.529,4.6565,4.785,4.8781,4.9018,4.9018,4.9018,4.9018,4.9086,4.9204,4.9644,5.0135,5.0473,5.1437,5.235,5.2503,5.3027,5.3382,5.3501,5.3518,5.3518,5.3518,5.3636,5.3957,5.4448,5.4346,5.4651,5.5631,5.6968,5.7645,5.7814,5.7865,5.7881,5.7881,5.7881,5.7881,5.7881,5.7881,5.7881,5.7881,5.7881,5.7881,5.7881,5.7881,5.7974,5.8281,5.8317,5.8546,5.8959,5.9875,6.0717,6.1543,6.1598,6.163,6.1135,6.0731,6.0639,6.0713,6.0951,6.0841,6.0566,6.0309,5.9992,5.968,5.9391,5.9171,4.7309,4.7309,4.7309,4.7309,4.7309,4.7309,4.7309,4.7309,4.7309,4.7309,4.7309,4.7309,4.7309,4.7309,4.7309,4.7189,4.704,4.701,4.6995,4.68,4.677,4.6157,4.5454,4.5125,4.4796,4.4407,4.4122,4.3768,4.3334,4.3319,4.3305,4.3305,4.3305,4.3305,4.3305,4.3305,4.3305,4.3305,4.3305,4.3305,4.3305,4.3305,4.4266,4.5961,4.6208,4.6678,4.7489,4.7373,4.6781,4.5996,4.6918,4.8015,4.8861,4.9018,4.9035,4.9069,4.9052,4.9289,4.9746,5.0033,5.0591,5.1589,5.2063,5.2553,5.3145,5.3365,5.3518,5.3518,5.3518,5.3534,5.3602,5.4025,5.4634,5.531,5.5598,5.597,5.6478,5.7273,5.7881,5.7881,5.7881,5.7881,5.7881,5.7881,5.7881,5.7881,5.7881,5.7881,5.7881,5.7881,5.7881,5.7881,5.7881,5.7881,5.7937,5.7937,5.8046,5.8263,5.9076,6.0198,6.1196,6.205,6.2233,6.2254,6.1906,6.1741,6.1998,6.2273,6.1887,6.1337,6.1208,6.0988,6.0474,6.0089,6.0034,4.7563,4.7309,4.7309,4.7309,4.7309,4.7309,4.7309,4.7309,4.7309,4.7309,4.7309,4.7309,4.7309,4.7309,4.7309,4.7309,4.7309,4.7309,4.7294,4.7294,4.7264,4.6845,4.6232,4.5918,4.5529,4.5125,4.4571,4.4082,4.3708,4.3454,4.3305,4.3305,4.3305,4.3305,4.3305,4.3305,4.3305,4.3305,4.3305,4.3305,4.3305,4.3305,4.4105,4.5452,4.5941,4.6523,4.6952,4.7002,4.6747,4.6558,4.7423,4.8433,4.8892,4.9018,4.9137,4.939,4.9458,4.9796,5.0456,5.0811,5.1386,5.2164,5.2536,5.301,5.3382,5.3518,5.3518,5.3518,5.3754,5.394,5.4126,5.4871,5.5649,5.6156,5.6816,5.712,5.6867,5.7425,5.7814,5.7881,5.7881,5.7881,5.7881,5.7881,5.7881,5.7881,5.7881,5.7881,5.7881,5.7881,5.7881,5.7881,5.7881,5.7881,5.7881,5.7881,5.7881,5.8046,5.9078,6.0051,6.0979,6.2148,6.2556,6.2713,6.2787,6.2823,6.2823,6.2805,6.253,6.2163,6.2126,6.1814,6.1245,6.0915,6.086,4.7893,4.7309,4.7309,4.7309,4.7309,4.7309,4.7309,4.7309,4.7309,4.7309,4.7309,4.7309,4.7309,4.7309,4.7309,4.7309,4.7309,4.7309,4.7309,4.7309,4.7309,4.7174,4.707,4.6621,4.6307,4.598,4.502,4.4616,4.4362,4.3828,4.3589,4.3693,4.3648,4.3559,4.3723,4.3633,4.3529,4.3618,4.3559,4.3529,4.3469,4.3459,4.4004,4.5211,4.6154,4.6349,4.64,4.64,4.6432,4.6337,4.8017,4.8873,4.9077,4.9171,4.956,5.0067,5.0236,5.0541,5.1234,5.1826,5.2283,5.257,5.3129,5.3484,5.3534,5.3619,5.3737,5.3754,5.4296,5.4702,5.5057,5.6038,5.6613,5.6934,5.7509,5.7492,5.7239,5.7492,5.7881,5.7881,5.7881,5.7881,5.7881,5.7881,5.7881,5.7881,5.7881,5.7881,5.7881,5.7881,5.7881,5.7881,5.7881,5.7881,5.7881,5.7881,5.7881,5.8046,5.9361,6.0427,6.0997,6.1888,6.249,6.2823,6.2823,6.2823,6.2823,6.2787,6.275,6.2713,6.2493,6.2236,6.1942,6.1796,6.1704,4.7893,4.7309,4.7309,4.7309,4.7309,4.7309,4.7309,4.7309,4.7309,4.7309,4.7309,4.7309,4.7309,4.7309,4.7309,4.7309,4.7309,4.7309,4.7309,4.7309,4.7309,4.7309,4.7294,4.7085,4.6815,4.6381,4.6097,4.5603,4.514,4.4885,4.4855,4.4796,4.4676,4.484,4.4781,4.4691,4.4855,4.4781,4.4362,4.4122,4.3947,4.3698,4.4266,4.578,4.674,4.683,4.6504,4.6918,4.7194,4.7392,4.8225,4.9355,4.9854,5.0355,5.071,5.0879,5.098,5.1302,5.1944,5.2283,5.2587,5.3145,5.3331,5.3518,5.3551,5.4042,5.4279,5.4465,5.5023,5.5666,5.6207,5.6562,5.7053,5.7492,5.7746,5.7831,5.7712,5.7763,5.7865,5.7881,5.7881,5.7881,5.7881,5.7881,5.7881,5.7881,5.7881,5.7881,5.7881,5.7881,5.7881,5.7881,5.7881,5.7881,5.7881,5.7937,5.8046,5.8281,5.9559,6.061,6.1189,6.1888,6.2567,6.2823,6.2823,6.2823,6.2823,6.2805,6.2787,6.2805,6.2823,6.2603,6.242,6.2438,6.2365,4.8192,4.7324,4.7309,4.7309,4.7309,4.7309,4.7309,4.7309,4.7309,4.7309,4.7309,4.7309,4.7309,4.7309,4.7309,4.7309,4.7309,4.7309,4.7309,4.7309,4.7309,4.7309,4.7309,4.7294,4.7085,4.6756,4.6384,4.6055,4.5798,4.5484,4.5214,4.5289,4.5319,4.52,4.5289,4.5319,4.5244,4.52,4.4975,4.4781,4.4691,4.4492,4.52,4.6655,4.7345,4.7309,4.7993,4.8372,4.8535,4.8793,4.9654,5.0358,5.0548,5.1014,5.132,5.1674,5.1725,5.2097,5.2638,5.2892,5.3061,5.3467,5.3518,5.3721,5.394,5.4414,5.4752,5.5175,5.5801,5.6528,5.7205,5.7306,5.756,5.7729,5.7881,5.7881,5.7881,5.7881,5.7881,5.7881,5.7881,5.7881,5.7881,5.7881,5.7881,5.7881,5.7881,5.7881,5.7881,5.7881,5.7881,5.7881,5.7881,5.7881,5.7881,5.7974,5.8192,5.8703,5.9639,6.058,6.1275,6.1996,6.2755,6.2823,6.2823,6.2823,6.2823,6.2823,6.2823,6.2823,6.2823,6.2823,6.2768,6.2658,6.264,4.8535,4.7309,4.7309,4.7309,4.7309,4.7309,4.7309,4.7309,4.7309,4.7309,4.7309,4.7309,4.7309,4.7309,4.7309,4.7309,4.7309,4.7309,4.7309,4.7309,4.7309,4.7309,4.7309,4.7294,4.7279,4.7234,4.68,4.6501,4.6322,4.5948,4.5873,4.5678,4.5648,4.5828,4.5693,4.5618,4.5768,4.5798,4.5589,4.5454,4.5394,4.5301,4.6104,4.7233,4.7611,4.7893,4.8855,4.9411,4.9765,5.0015,5.1447,5.1863,5.1742,5.1606,5.176,5.2469,5.2486,5.2773,5.3196,5.3433,5.3484,5.3602,5.3687,5.4059,5.4583,5.5006,5.5378,5.5902,5.6528,5.7188,5.7797,5.778,5.7797,5.7881,5.7881,5.7881,5.7881,5.7881,5.7881,5.7881,5.7881,5.7881,5.7881,5.7881,5.7881,5.7881,5.7881,5.7881,5.7881,5.7881,5.7881,5.7881,5.7881,5.7881,5.7881,5.7918,5.8101,5.8581,5.9509,6.0287,6.1055,6.1742,6.2324,6.2755,6.2823,6.2823,6.2823,6.2823,6.2823,6.2823,6.2823,6.2823,6.2823,6.2823,6.2823,4.8491,4.7309,4.7309,4.7309,4.7309,4.7309,4.7309,4.7309,4.7309,4.7309,4.7309,4.7309,4.7309,4.7309,4.7309,4.7309,4.7309,4.7309,4.7309,4.7309,4.7309,4.7309,4.7309,4.7309,4.7309,4.7309,4.7115,4.7055,4.707,4.7025,4.6741,4.689,4.686,4.6845,4.6815,4.695,4.6785,4.6636,4.6367,4.6157,4.6052,4.5822,4.6016,4.7294,4.7711,4.8344,4.8816,4.9464,5.008,5.0729,5.1749,5.2471,5.2841,5.2959,5.3061,5.3145,5.3179,5.3315,5.3568,5.3568,5.3856,5.4211,5.4414,5.4769,5.5429,5.6004,5.6275,5.6647,5.7188,5.7729,5.7848,5.7881,5.7881,5.7881,5.7881,5.7881,5.7881,5.7881,5.7881,5.7881,5.7881,5.7881,5.7881,5.7881,5.7881,5.7881,5.7881,5.7881,5.7881,5.7881,5.7881,5.7881,5.7881,5.7881,5.7881,5.7881,5.7974,5.8209,5.8926,5.9639,6.0423,6.1229,6.1815,6.2298,6.2661,6.2823,6.2823,6.2823,6.2823,6.2823,6.2823,6.2823,6.2823,6.2823,6.2823,4.8506,4.7339,4.7309,4.7309,4.7309,4.7309,4.7309,4.7309,4.7309,4.7309,4.7309,4.7309,4.7309,4.7309,4.7309,4.7309,4.7309,4.7309,4.7309,4.7309,4.7309,4.7309,4.7309,4.7309,4.7309,4.7309,4.7309,4.7309,4.7309,4.7279,4.7309,4.7294,4.7309,4.7309,4.7309,4.7249,4.7309,4.7204,4.6995,4.6815,4.6773,4.6426,4.6864,4.7673,4.8302,4.9069,5.0152,5.053,5.133,5.2131,5.2708,5.3112,5.3382,5.3518,5.3518,5.3534,5.3534,5.3721,5.3974,5.4076,5.4414,5.504,5.5175,5.553,5.6105,5.6579,5.6968,5.734,5.7526,5.7881,5.7881,5.7881,5.7881,5.7881,5.7881,5.7881,5.7881,5.7881,5.7881,5.7881,5.7881,5.7881,5.7881,5.7881,5.7881,5.7881,5.7881,5.7881,5.7881,5.7881,5.7881,5.7881,5.7881,5.7881,5.7881,5.7881,5.7881,5.8082,5.8388,5.9128,5.9847,6.0635,6.1343,6.1924,6.2271,6.2636,6.2823,6.2823,6.2823,6.2823,6.2823,6.2823,6.2823,6.2823,6.2823,4.8491,4.7309,4.7309,4.7309,4.7309,4.7309,4.7309,4.7309,4.7309,4.7309,4.7309,4.7309,4.7309,4.7309,4.7309,4.7309,4.7309,4.7309,4.7309,4.7309,4.7309,4.7309,4.7309,4.7309,4.7309,4.7309,4.7309,4.7309,4.7309,4.7309,4.7309,4.7309,4.7309,4.7309,4.7309,4.7309,4.7309,4.7309,4.7309,4.7309,4.7309,4.7352,4.7651,4.8486,4.8677,4.9639,5.0992,5.1527,5.2252,5.2975,5.3399,5.3484,5.3501,5.3518,5.3585,5.3687,5.3704,5.4076,5.4397,5.4803,5.5141,5.5852,5.5936,5.6342,5.6799,5.712,5.7306,5.7746,5.7881,5.7881,5.7881,5.7881,5.7881,5.7881,5.7881,5.7881,5.7881,5.7881,5.7881,5.7881,5.7881,5.7881,5.7881,5.7881,5.7881,5.7881,5.7881,5.7881,5.7881,5.7881,5.7881,5.7881,5.7881,5.7881,5.7881,5.7881,5.7881,5.7937,5.8227,5.8772,5.941,6.0113,6.0784,6.1428,6.1978,6.2324,6.2541,6.2798,6.2823,6.2823,6.2823,6.2823,6.2823,6.2823,6.2823,4.8535,4.7309,4.7309,4.7309,4.7309,4.7309,4.7309,4.7309,4.7309,4.7309,4.7309,4.7309,4.7309,4.7309,4.7309,4.7309,4.7309,4.7309,4.7309,4.7309,4.7309,4.7309,4.7309,4.7309,4.7309,4.7309,4.7309,4.7309,4.7309,4.7309,4.7309,4.7309,4.7309,4.7309,4.7309,4.7309,4.7309,4.7309,4.7309,4.7309,4.7309,4.7309,4.7409,4.7792,4.8403,4.9496,5.0817,5.1578,5.24,5.3314,5.3518,5.3518,5.3518,5.3518,5.389,5.4245,5.4465,5.4515,5.482,5.5277,5.5886,5.6511,5.6681,5.707,5.7408,5.7628,5.7695,5.7814,5.7881,5.7881,5.7881,5.7881,5.7881,5.7881,5.7881,5.7881,5.7881,5.7881,5.7881,5.7881,5.7881,5.7881,5.7881,5.7881,5.7881,5.7881,5.7881,5.7881,5.7881,5.7881,5.7881,5.7881,5.7881,5.7881,5.7881,5.7881,5.7881,5.7881,5.8101,5.8388,5.8875,5.9524,6.0207,6.0843,6.1428,6.2004,6.235,6.2567,6.273,6.2823,6.2823,6.2823,6.2823,6.2823,6.2823,4.906,4.7833,4.7459,4.7309,4.7309,4.7309,4.7309,4.7309,4.7309,4.7309,4.7309,4.7309,4.7309,4.7309,4.7309,4.7309,4.7309,4.7309,4.7309,4.7309,4.7309,4.7309,4.7309,4.7309,4.7309,4.7309,4.7309,4.7309,4.7309,4.7309,4.7309,4.7309,4.7309,4.7309,4.7309,4.7309,4.7309,4.7309,4.7309,4.7309,4.7309,4.7337,4.7566,4.8099,4.8553,4.9655,5.0892,5.1578,5.2435,5.328,5.3518,5.3518,5.3636,5.3873,5.4313,5.4549,5.5446,5.5818,5.5919,5.6173,5.6681,5.7188,5.7408,5.7577,5.7831,5.7881,5.7881,5.7881,5.7881,5.7881,5.7881,5.7881,5.7881,5.7881,5.7881,5.7881,5.7881,5.7881,5.7881,5.7881,5.7881,5.7881,5.7881,5.7881,5.7881,5.7881,5.7881,5.7881,5.7881,5.7881,5.7881,5.7881,5.7881,5.7881,5.7881,5.7881,5.7881,5.7881,5.7881,5.8156,5.8352,5.8909,5.9556,6.03,6.0979,6.153,6.2049,6.249,6.2755,6.2823,6.2823,6.2823,6.2823,6.2823,6.2823,4.9613,4.8716,4.7893,4.7549,4.7534,4.7369,4.7309,4.7309,4.7309,4.7309,4.7309,4.7309,4.7309,4.7309,4.7309,4.7309,4.7309,4.7309,4.7309,4.7309,4.7309,4.7309,4.7309,4.7309,4.7309,4.7309,4.7309,4.7309,4.7309,4.7309,4.7309,4.7309,4.7309,4.7309,4.7309,4.7309,4.7309,4.7309,4.7309,4.7309,4.7309,4.7309,4.7694,4.8225,4.8825,4.9679,5.1229,5.1849,5.2435,5.328,5.3518,5.3585,5.3873,5.4262,5.4837,5.5294,5.619,5.6714,5.6867,5.7087,5.7391,5.7679,5.7881,5.7814,5.7848,5.7881,5.7881,5.7881,5.7881,5.7881,5.7881,5.7881,5.7881,5.7881,5.7881,5.7881,5.7881,5.7881,5.7881,5.7881,5.7881,5.7881,5.7881,5.7881,5.7881,5.7881,5.7881,5.7881,5.7881,5.7881,5.7881,5.7881,5.7881,5.7881,5.7881,5.7881,5.7881,5.7881,5.7881,5.7937,5.8156,5.8388,5.8875,5.9621,6.0392,6.1142,6.176,6.2298,6.2823,6.2823,6.2823,6.2823,6.2823,6.2823,6.2823,5.0151,4.9956,4.873,4.8192,4.8132,4.7549,4.7309,4.7309,4.7309,4.7309,4.7309,4.7309,4.7309,4.7309,4.7309,4.7309,4.7309,4.7309,4.7309,4.7309,4.7309,4.7309,4.7309,4.7309,4.7309,4.7309,4.7309,4.7309,4.7309,4.7309,4.7309,4.7309,4.7309,4.7309,4.7309,4.7309,4.7309,4.7309,4.7309,4.7309,4.7309,4.7309,4.7467,4.7722,4.8403,4.9376,5.0512,5.1541,5.2435,5.3484,5.3636,5.3873,5.4279,5.4752,5.5395,5.6173,5.6664,5.7188,5.7492,5.7628,5.7763,5.7848,5.7881,5.7881,5.7881,5.7881,5.7881,5.7881,5.7881,5.7881,5.7881,5.7881,5.7881,5.7881,5.7881,5.7881,5.7881,5.7881,5.7881,5.7881,5.7881,5.7881,5.7881,5.7881,5.7881,5.7881,5.7881,5.7881,5.7881,5.7881,5.7881,5.7881,5.7881,5.7881,5.7881,5.7881,5.7881,5.7881,5.7881,5.7881,5.7937,5.8192,5.8406,5.8943,5.9751,6.0592,6.1389,6.1897,6.235,6.2661,6.2823,6.2823,6.2823,6.2823,6.2823,5.084,5.072,4.9434,4.8656,4.8237,4.7593,4.7309,4.7309,4.7309,4.7309,4.7309,4.7309,4.7309,4.7309,4.7309,4.7309,4.7309,4.7309,4.7309,4.7309,4.7309,4.7309,4.7309,4.7309,4.7309,4.7309,4.7309,4.7309,4.7309,4.7309,4.7309,4.7309,4.7309,4.7309,4.7309,4.7309,4.7309,4.7309,4.7309,4.7309,4.7309,4.7337,4.7609,4.8309,4.9247,5.0265,5.134,5.2348,5.299,5.3517,5.3957,5.4363,5.482,5.5412,5.6122,5.6816,5.7154,5.7543,5.7763,5.7881,5.7881,5.7881,5.7881,5.7881,5.7881,5.7881,5.7881,5.7881,5.7881,5.7881,5.7881,5.7881,5.7881,5.7881,5.7881,5.7881,5.7881,5.7881,5.7881,5.7881,5.7881,5.7881,5.7881,5.7881,5.7881,5.7881,5.7881,5.7881,5.7881,5.7881,5.7881,5.7881,5.7881,5.7881,5.7881,5.7881,5.7881,5.7881,5.7881,5.7881,5.7881,5.7901,5.8192,5.8633,5.9011,5.9751,6.0514,6.1343,6.1951,6.242,6.2686,6.2823,6.2823,6.2823,6.2823,5.1109,5.081,4.9718,4.906,4.8506,4.7668,4.7309,4.7309,4.7309,4.7309,4.7309,4.7309,4.7309,4.7309,4.7309,4.7309,4.7309,4.7309,4.7309,4.7309,4.7309,4.7309,4.7309,4.7309,4.7309,4.7309,4.7309,4.7309,4.7309,4.7309,4.7309,4.7309,4.7309,4.7309,4.7309,4.7309,4.7309,4.7309,4.7309,4.7309,4.7309,4.7694,4.7988,4.8948,5.0048,5.1005,5.1984,5.2931,5.3719,5.4109,5.4499,5.5006,5.553,5.6122,5.6816,5.7222,5.7526,5.7865,5.7881,5.7881,5.7881,5.7881,5.7881,5.7881,5.7881,5.7881,5.7881,5.7881,5.7881,5.7881,5.7881,5.7881,5.7881,5.7881,5.7881,5.7881,5.7881,5.7881,5.7881,5.7881,5.7881,5.7881,5.7881,5.7881,5.7881,5.7881,5.7881,5.7881,5.7881,5.7881,5.7881,5.7881,5.7881,5.7881,5.7881,5.7881,5.7881,5.7881,5.7881,5.7881,5.7881,5.7881,5.7918,5.8227,5.8599,5.8977,5.9765,6.0814,6.1586,6.2253,6.2515,6.2798,6.2823,6.2823,6.2823,5.0794,5.0166,4.9523,4.9254,4.9015,4.7833,4.7309,4.7309,4.7309,4.7309,4.7309,4.7309,4.7309,4.7309,4.7309,4.7309,4.7309,4.7309,4.7309,4.7309,4.7309,4.7309,4.7309,4.7309,4.7309,4.7309,4.7324,4.7324,4.7399,4.7474,4.7429,4.7369,4.7384,4.7309,4.7309,4.7309,4.7309,4.7309,4.7309,4.7309,4.7467,4.8115,4.8594,4.9135,5.0649,5.1687,5.2362,5.3559,5.4329,5.4668,5.5294,5.5869,5.6444,5.6681,5.7188,5.7712,5.7797,5.7881,5.7881,5.7881,5.7881,5.7881,5.7881,5.7881,5.7881,5.7881,5.7881,5.7881,5.7881,5.7881,5.7881,5.7881,5.7881,5.7881,5.7881,5.7881,5.7881,5.7881,5.7881,5.7881,5.7881,5.7881,5.7881,5.7881,5.7881,5.7881,5.7881,5.7881,5.7881,5.7881,5.7881,5.7881,5.7881,5.7881,5.7881,5.7881,5.7881,5.7881,5.7881,5.7881,5.7881,5.7881,5.7918,5.7991,5.8227,5.8668,5.9491,6.0423,6.1286,6.2148,6.2541,6.2798,6.2798,6.2823,6.2823,5.0405,5.0091,4.9075,4.8655,4.8491,4.7683,4.7309,4.7309,4.7309,4.7309,4.7309,4.7309,4.7309,4.7309,4.7309,4.7309,4.7309,4.7309,4.7309,4.7309,4.7339,4.7309,4.7324,4.7384,4.7369,4.7324,4.7339,4.7623,4.7997,4.7952,4.7952,4.7908,4.7638,4.7324,4.7309,4.7309,4.7309,4.7309,4.7309,4.7352,4.7424,4.8267,4.8922,4.9044,5.1,5.2221,5.2759,5.4168,5.4887,5.5344,5.6038,5.6562,5.6934,5.712,5.7577,5.7848,5.7881,5.7881,5.7881,5.7881,5.7881,5.7881,5.7881,5.7881,5.7881,5.7881,5.7881,5.7881,5.7881,5.7881,5.7881,5.7881,5.7881,5.7881,5.7881,5.7881,5.7881,5.7881,5.7881,5.7881,5.7881,5.7881,5.7881,5.7881,5.7881,5.7881,5.7881,5.7881,5.7881,5.7881,5.7881,5.7881,5.7881,5.7881,5.7881,5.7881,5.7881,5.7881,5.7881,5.7881,5.7881,5.7881,5.7918,5.7918,5.8101,5.8388,5.9262,6.0162,6.1229,6.2023,6.2515,6.2798,6.2823,6.2823,6.2823,5.0061,4.9778,4.8745,4.8147,4.7893,4.7474,4.7309,4.7309,4.7309,4.7309,4.7309,4.7309,4.7309,4.7309,4.7309,4.7309,4.7309,4.7309,4.7309,4.7354,4.7578,4.7668,4.7683,4.7668,4.7938,4.7818,4.7788,4.7982,4.8596,4.8641,4.8626,4.8506,4.8192,4.8177,4.8042,4.7923,4.7698,4.7713,4.7728,4.7794,4.8152,4.8831,4.9741,5.0646,5.1995,5.3221,5.398,5.4806,5.5564,5.6156,5.6681,5.712,5.7323,5.7543,5.7881,5.7881,5.7881,5.7881,5.7881,5.7881,5.7881,5.7881,5.7881,5.7881,5.7881,5.7881,5.7881,5.7881,5.7881,5.7881,5.7881,5.7881,5.7881,5.7881,5.7881,5.7881,5.7881,5.7881,5.7881,5.7881,5.7881,5.7881,5.7881,5.7881,5.7881,5.7881,5.7881,5.7881,5.7881,5.7881,5.7881,5.7881,5.7881,5.7881,5.7881,5.7881,5.7881,5.7881,5.7881,5.7881,5.7881,5.7881,5.7881,5.7881,5.801,5.8334,5.9028,5.9928,6.0997,6.1915,6.2636,6.2823,6.2823,6.2823,6.2823,4.9838,4.9239,4.8521,4.7893,4.7369,4.7309,4.7309,4.7309,4.7309,4.7324,4.7369,4.7414,4.7534,4.7489,4.7459,4.7534,4.7593,4.7563,4.7593,4.7698,4.8117,4.8237,4.8356,4.8341,4.858,4.8745,4.8745,4.8641,4.9224,4.9299,4.9299,4.9299,4.909,4.903,4.891,4.876,4.8446,4.8371,4.8341,4.8566,4.907,4.9977,5.117,5.2361,5.367,5.4656,5.5422,5.6138,5.6562,5.7019,5.7442,5.7712,5.7848,5.7865,5.7881,5.7881,5.7881,5.7881,5.7881,5.7881,5.7881,5.7881,5.7881,5.7881,5.7881,5.7881,5.7881,5.7881,5.7881,5.7881,5.7881,5.7881,5.7881,5.7881,5.7881,5.7881,5.7881,5.7881,5.7881,5.7881,5.7881,5.7881,5.7881,5.7881,5.7881,5.7881,5.7881,5.7881,5.7881,5.7881,5.7881,5.7881,5.7881,5.7881,5.7881,5.7881,5.7881,5.7881,5.7881,5.7881,5.7881,5.7881,5.7881,5.7881,5.7881,5.8352,5.9379,6.0117,6.0772,6.1632,6.2368,6.2705,6.2679,6.278,6.2823,4.9449,4.9194,4.8057,4.7474,4.7324,4.7309,4.7309,4.7309,4.7309,4.7519,4.7982,4.8012,4.8162,4.8715,4.876,4.87,4.87,4.8716,4.873,4.8805,4.8835,4.8985,4.903,4.9,4.9194,4.9224,4.9209,4.9314,4.9823,4.9957,4.9957,4.9927,4.9643,4.9673,4.9763,4.9763,4.9404,4.9119,4.9045,4.9522,5.0273,5.1215,5.2521,5.3779,5.4852,5.5731,5.6427,5.6697,5.7053,5.756,5.7729,5.7881,5.7881,5.7881,5.7881,5.7881,5.7881,5.7881,5.7881,5.7881,5.7881,5.7881,5.7881,5.7881,5.7881,5.7881,5.7881,5.7881,5.7881,5.7881,5.7881,5.7881,5.7881,5.7881,5.7881,5.7881,5.7881,5.7881,5.7881,5.7881,5.7881,5.7881,5.7881,5.7881,5.7881,5.7881,5.7881,5.7881,5.7881,5.7881,5.7881,5.7881,5.7881,5.7881,5.7881,5.7881,5.7881,5.7881,5.7881,5.7881,5.7881,5.7881,5.7881,5.7881,5.7881,5.8772,6.0023,6.0427,6.03,6.1171,6.1897,6.2271,6.2585,6.2705,6.278,4.888,4.873,4.7743,4.7309,4.7309,4.7309,4.7309,4.7309,4.7309,4.7668,4.8252,4.8267,4.8656,4.9179,4.9224,4.9224,4.9224,4.9164,4.9179,4.9194,4.9553,4.9628,4.9643,4.9688,4.9883,4.9853,4.9868,4.9987,5.0436,5.0569,5.0584,5.0601,5.0152,5.0301,5.0496,5.051,5.0406,5.0077,5.0005,5.0503,5.1376,5.2315,5.3412,5.4903,5.5892,5.6474,5.7087,5.7188,5.7492,5.7831,5.7865,5.7881,5.7881,5.7881,5.7881,5.7881,5.7881,5.7881,5.7881,5.7881,5.7881,5.7881,5.7881,5.7881,5.7881,5.7881,5.7881,5.7881,5.7881,5.7881,5.7881,5.7881,5.7881,5.7881,5.7881,5.7881,5.7881,5.7881,5.7881,5.7881,5.7881,5.7881,5.7881,5.7881,5.7881,5.7881,5.7881,5.7881,5.7881,5.7881,5.7881,5.7881,5.7881,5.7881,5.7881,5.7881,5.7881,5.7881,5.7881,5.7881,5.7881,5.7881,5.7881,5.7881,5.7881,5.8823,5.9736,5.9606,5.9604,6.0575,6.14,6.1824,6.2245,6.2585,6.2705,4.8312,4.8252,4.7563,4.7309,4.7309,4.7309,4.7309,4.7309,4.7309,4.7728,4.8312,4.8446,4.8865,4.9583,4.9718,4.9673,4.9733,4.9733,4.9763,4.9509,5.0077,5.0255,5.027,5.0285,5.0511,5.0719,5.0749,5.0571,5.1005,5.1109,5.1065,5.1229,5.1094,5.105,5.102,5.1065,5.0945,5.0825,5.0727,5.1011,5.225,5.3094,5.3932,5.6264,5.6968,5.7171,5.7645,5.7848,5.7881,5.7881,5.7881,5.7881,5.7881,5.7881,5.7881,5.7881,5.7881,5.7881,5.7881,5.7881,5.7881,5.7881,5.7881,5.7881,5.7881,5.7881,5.7881,5.7881,5.7881,5.7881,5.7881,5.7881,5.7881,5.7881,5.7881,5.7881,5.7881,5.7881,5.7881,5.7881,5.7881,5.7881,5.7881,5.7881,5.7881,5.7881,5.7881,5.7881,5.7881,5.7881,5.7881,5.7881,5.7881,5.7881,5.7881,5.7881,5.7881,5.7881,5.7881,5.7881,5.7881,5.7881,5.7881,5.7881,5.7901,5.837,5.8959,5.8875,5.9211,6.0225,6.0967,6.1371,6.1824,6.2324,6.2661,4.8297,4.8222,4.7578,4.7309,4.7309,4.7309,4.7309,4.7309,4.7309,4.7952,4.891,4.9134,4.9643,5.0496,5.0586,5.0586,5.0616,5.0466,5.0705,5.0646,5.0823,5.0794,5.0898,5.087,5.1018,5.1124,5.1094,5.1005,5.1169,5.1229,5.1229,5.1229,5.1229,5.1229,5.1229,5.1229,5.1214,5.1199,5.1144,5.1847,5.3434,5.4243,5.5212,5.6863,5.7608,5.7611,5.7881,5.7881,5.7881,5.7881,5.7881,5.7881,5.7881,5.7881,5.7881,5.7881,5.7881,5.7881,5.7881,5.7881,5.7881,5.7881,5.7881,5.7881,5.7881,5.7881,5.7881,5.7881,5.7881,5.7881,5.7881,5.7881,5.7881,5.7881,5.7881,5.7881,5.7881,5.7881,5.7881,5.7881,5.7881,5.7881,5.7881,5.7881,5.7881,5.7881,5.7881,5.7881,5.7881,5.7881,5.7881,5.7881,5.7881,5.7881,5.7881,5.7881,5.7881,5.7881,5.7881,5.7881,5.7881,5.7881,5.7881,5.7881,5.801,5.8335,5.8459,5.8335,5.8858,5.9736,6.0397,6.0742,6.1502,6.2094,6.249,4.7863,4.7803,4.7459,4.7309,4.7309,4.7309,4.7309,4.7309,4.7309,4.8042,4.9179,4.9404,5.0002,5.1094,5.1214,5.1229,5.1229,5.1199,5.1094,5.1169,5.1229,5.1184,5.1229,5.1229,5.1199,5.1229,5.1229,5.1199,5.1229,5.1229,5.1229,5.1229,5.1229,5.1229,5.1229,5.1229,5.1229,5.1229,5.1229,5.2184,5.3871,5.4447,5.5312,5.6756,5.7554,5.7718,5.7881,5.7881,5.7881,5.7881,5.7881,5.7881,5.7881,5.7881,5.7881,5.7881,5.7881,5.7881,5.7881,5.7881,5.7881,5.7881,5.7881,5.7881,5.7881,5.7881,5.7881,5.7881,5.7881,5.7881,5.7881,5.7881,5.7881,5.7881,5.7881,5.7881,5.7881,5.7881,5.7881,5.7881,5.7881,5.7881,5.7881,5.7881,5.7881,5.7881,5.7881,5.7881,5.7881,5.7881,5.7881,5.7881,5.7881,5.7881,5.7881,5.7881,5.7881,5.7881,5.7881,5.7881,5.7881,5.7881,5.7881,5.7881,5.7937,5.8065,5.8101,5.8065,5.8101,5.872,5.941,6.0037,6.092,6.186,6.2271,4.7339,4.7309,4.7309,4.7309,4.7309,4.7309,4.7309,4.7309,4.7324,4.8042,4.9209,4.9299,5.0062,5.0855,5.1229,5.1229,5.1229,5.1229,5.1229,5.1229,5.1229,5.1229,5.1229,5.1229,5.1229,5.1229,5.1229,5.1229,5.1229,5.1229,5.1229,5.1229,5.1229,5.1229,5.1229,5.1229,5.1229,5.1229,5.1354,5.1727,5.2767,5.3812,5.497,5.6087,5.7093,5.7718,5.7828,5.7881,5.7881,5.7881,5.7881,5.7881,5.7881,5.7881,5.7881,5.7881,5.7881,5.7881,5.7881,5.7881,5.7881,5.7881,5.7881,5.7881,5.7881,5.7881,5.7881,5.7881,5.7881,5.7881,5.7881,5.7881,5.7881,5.7881,5.7881,5.7881,5.7881,5.7881,5.7881,5.7881,5.7881,5.7881,5.7881,5.7881,5.7881,5.7881,5.7881,5.7881,5.7881,5.7881,5.7881,5.7881,5.7881,5.7881,5.7881,5.7881,5.7881,5.7881,5.7881,5.7881,5.7881,5.7881,5.7881,5.7881,5.7937,5.801,5.7974,5.7937,5.801,5.8192,5.884,5.9751,6.0832,6.1659,6.2094,4.7309,4.7309,4.7309,4.7309,4.7309,4.7309,4.7309,4.7309,4.7324,4.8042,4.906,4.9404,4.9987,5.1229,5.1229,5.1229,5.1229,5.1229,5.1229,5.1229,5.1229,5.1229,5.1229,5.1229,5.1229,5.1229,5.1229,5.1229,5.1229,5.1229,5.1229,5.1229,5.1229,5.1229,5.1229,5.1229,5.1229,5.1229,5.1229,5.1479,5.1727,5.2856,5.4389,5.5458,5.6415,5.7131,5.7591,5.7881,5.7881,5.7881,5.7881,5.7881,5.7881,5.7881,5.7881,5.7881,5.7881,5.7881,5.7881,5.7881,5.7881,5.7881,5.7881,5.7881,5.7881,5.7881,5.7881,5.7881,5.7881,5.7881,5.7881,5.7881,5.7881,5.7881,5.7881,5.7881,5.7881,5.7881,5.7881,5.7881,5.7881,5.7881,5.7881,5.7881,5.7881,5.7881,5.7881,5.7881,5.7881,5.7881,5.7881,5.7881,5.7881,5.7881,5.7881,5.7881,5.7881,5.7881,5.7881,5.7881,5.7881,5.7881,5.7881,5.7881,5.7881,5.7901,5.7918,5.7881,5.8192,5.8406,5.8806,5.9556,6.0592,6.12,6.1446]}]]